     2.11           OBSERVATION DATA    G (GPS)             RINEX VERSION / TYPE
teqc 2010Oct21 OPUS Account 20111029 19:09:50UTC            PGM / RUN BY / DATE
J 1522                                                      MARKER NAME
1164                                                        MARKER NUMBER
CSMIDDLETON NGS                                             OBSERVER / AGENCY
0220320152 TRIMBLE 5700 2.01                                REC # / TYPE / VERS
12214372 TRM41249.00 NONE                                   ANT # / TYPE
  -738344.5087 -5494778.5033  3142885.0011                  APPROX POSITION XYZ
        2.0000        0.0000        0.0000                  ANTENNA: DELTA H/E/N
     1     1                                                WAVELENGTH FACT L1/2
     5    L1    L2    C1    P1    P2                        # / TYPES OF OBSERV
    15                                                      LEAP SECONDS
  2011     9    23     0     0   30.0000000     GPS         TIME OF FIRST OBS
                                                            END OF HEADER
 11  9 23  0  0 30.0000000  0  9G15G29G12G02G05G30G10G25G26
   -360141.70756   -260005.69553  24691265.6414                   24691275.4614
 -15523590.63357 -12080620.19955  22563756.6804                   22563758.2114
 -28921569.91058 -22514616.65656  21742091.3914                   21742091.2504
 -34290701.91058 -26697326.25056  21749041.2274                   21749039.7584
 -33544588.69558 -26115892.63357  20478652.0084                   20478651.1954
 -12795211.21557  -9949678.45355  22803333.2034                   22803334.0744
 -20708036.28556 -16118819.30553  23838726.1254                   23838729.0944
 -24224050.32858 -18853440.27056  21676399.3054                   21676401.8634
  -8069883.92656  -6270620.17654  23758389.5704                   23758393.5634
 11  9 23  0  1  0.0000000  0  9G15G29G12G02G05G30G10G25G26
   -482988.08246   -355729.62543  24667888.3754                   24667897.2304
 -15632859.75847 -12165764.91045  22542964.0704                   22542964.4494
 -28881535.75048 -22483421.26646  21749709.8834                   21749709.8634
 -34278453.40647 -26687781.97746  21751371.8524                   21751370.1024
 -33547529.77048 -26118184.36347  20478092.4064                   20478091.6954
 -12852482.64847  -9994305.50445  22792434.6804                   22792435.8164
 -20630469.90246 -16058378.04343  23853487.1804                   23853489.1484
 -24241620.57448 -18867131.37146  21673056.2664                   21673058.2734
  -8193550.67646  -6366983.56244  23734855.3754                   23734860.2814
 11  9 23  0  1 30.0000000  0  9G15G29G12G02G05G30G10G25G26
   -605947.91846   -451541.94543  24644489.9144                   24644499.3134
 -15742025.53147 -12250829.08645  22522190.3674                   22522191.3714
 -28841098.64548 -22451911.88746  21757404.8364                   21757405.0354
 -34266105.27047 -26678160.06646  21753721.2664                   21753719.4844
 -33549951.85548 -26120071.68447  20477631.4454                   20477630.5554
 -12909172.35547 -10038479.27745  22781646.0864                   22781648.2624
 -20552757.39846 -15997822.89143  23868275.1804                   23868277.0904
 -24258617.57448 -18880375.76646  21669821.6724                   21669824.1334
  -8317130.57846  -6463279.29744  23711339.0864                   23711344.1684
 11  9 23  0  2  0.0000000  0  9G15G29G12G02G05G30G10G25G26
   -729015.28946   -547438.03143  24621070.4144                   24621079.2154
 -15851083.28147 -12335809.05145  22501437.3284                   22501438.3054
 -28800258.50047 -22420088.45346  21765176.3284                   21765176.7544
 -34253654.74647 -26668458.35546  21756090.9774                   21756088.9654
 -33551853.62148 -26121553.56647  20477269.3834                   20477268.5514
 -12965276.53547 -10082196.79745  22770970.1644                   22770971.4844
 -20474898.28946 -15937153.46943  23883090.8204                   23883093.3244
 -24275038.98048 -18893171.66446  21666696.6024                   21666699.3754
  -8440616.98447  -6559502.17644  23687839.9144                   23687844.3874
 11  9 23  0  2 30.0000000  0  9G15G29G12G02G05G30G10G25G26
   -852185.02046   -643413.91443  24597631.5864                   24597640.4774
 -15960028.12147 -12420701.06645  22480705.4454                   22480705.7814
 -28759015.45347 -22387951.07446  21773024.7114                   21773024.8404
 -34241099.27047 -26658674.87546  21758479.9774                   21758478.4574
 -33553234.39548 -26122629.47347  20477006.8364                   20477006.0944
 -13020792.22747 -10125455.77045  22760406.2194                   22760407.7504
 -20396892.86746 -15876370.07043  23897934.3594                   23897936.9494
 -24290883.27748 -18905517.85546  21663681.6334                   21663684.1454
  -8564003.90247  -6655647.54744  23664360.0944                   23664364.6804
 11  9 23  0  3  0.0000000  0  9G15G29G12G02G05G30G10G25G26
   -975457.21946   -739469.56244  24574173.0164                   24574182.0944
 -16068860.59447 -12505505.51645  22459995.5474                   22459996.4104
 -28717374.56247 -22355503.68446  21780948.5394                   21780949.2344
 -34228441.53147 -26648811.70746  21760888.9304                   21760886.9454
 -33554097.71548 -26123302.16847  20476842.4694                   20476841.6764
 -13075721.30547 -10168257.64545  22749953.4924                   22749954.9414
 -20318745.80547 -15815476.28143  23912805.9304                   23912807.7774
 -24306153.78548 -18917416.94546  21660775.5864                   21660778.1254
  -8687290.40247  -6751714.66844  23640899.6094                   23640903.5084
 11  9 23  0  3 30.0000000  0  9G15G29G12G02G05G30G10G25G26
  -1098825.96146   -835600.44944  24550696.1174                   24550705.2304
 -16177575.45747 -12590218.30945  22439307.4844                   22439308.5634
 -28675334.65647 -22322745.36746  21788948.5394                   21788949.0354
 -34215677.97747 -26638866.07846  21763317.7894                   21763315.7154
 -33554442.29348 -26123570.65647  20476776.6414                   20476776.0044
 -13130059.57447 -10210599.16445  22739613.0164                   22739614.1954
 -20240456.21146 -15754471.46943  23927704.2504                   23927706.3094
 -24320847.83248 -18928866.84446  21657979.2894                   21657981.9104
  -8810468.81247  -6847697.55144  23617459.2814                   23617462.5554
 11  9 23  0  4  0.0000000  0  9G15G29G12G02G05G30G10G25G26
  -1222288.46947   -931804.44944  24527202.1024                   24527210.8134
 -16286170.60547 -12674837.82845  22418642.8524                   22418643.3204
 -28632898.64147 -22289678.40246  21797023.9614                   21797024.4774
 -34202809.16847 -26628838.42646  21765766.7344                   21765764.8284
 -33554269.44148 -26123435.94547  20476809.9614                   20476808.9144
 -13183806.78147 -10252480.12945  22729385.3674                   22729386.8754
 -20162027.28547 -15693358.07443  23942628.1024                   23942631.1764
 -24334966.46148 -18939868.37546  21655292.8834                   21655295.3554
  -8933536.09047  -6943593.87144  23594040.1644                   23594043.6374
 11  9 23  0  4 30.0000000  0  9G15G29G12G02G05G30G10G25G26
  -1345841.82047  -1028079.23044  24503690.0864                   24503698.5314
 -16394643.74647 -12759362.26645  22398000.8834                   22398001.1134
 -28590069.37947 -22256305.00446  21805173.7974                   21805174.5594
 -34189834.50447 -26618728.30546  21768235.4454                   21768234.0004
 -33553580.23848 -26122898.88347  20476940.7504                   20476940.3874
 -13236962.09447 -10293899.84845  22719270.9304                   22719271.7854
 -20083461.14146 -15632137.77344  23957579.8364                   23957581.9454
 -24348510.48048 -18950422.15646  21652715.6414                   21652718.0634
  -9056488.44947  -7039400.64544  23570642.6484                   23570646.7274
 11  9 23  0  5  0.0000000  0  9G15G29G12G02G05G30G10G25G26
  -1469483.44547  -1124422.81244  24480161.3754                   24480169.6604
 -16502993.14147 -12843790.28146  22377382.1254                   22377383.3284
 -28546849.23047 -22222627.03146  21813398.9774                   21813399.4104
 -34176753.98847 -26608535.69146  21770724.8674                   21770722.8674
 -33552377.04348 -26121961.30147  20477170.3364                   20477169.1374
 -13289525.15247 -10334858.07845  22709268.2894                   22709269.2424
 -20004760.30546 -15570812.48844  23972555.5944                   23972558.4144
 -24361480.84048 -18960528.93046  21650247.5004                   21650249.4694
  -9179322.24646  -7135115.00844  23547267.5784                   23547271.4804
 11  9 23  0  5 30.0000000  0  9G15G29G12G02G05G30G10G25G26
  -1593210.65246  -1220833.09044  24456615.9144                   24456624.5784
 -16611216.31647 -12928119.93446  22356788.5944                   22356788.5044
 -28503240.43047 -22188646.20746  21821697.0234                   21821697.4844
 -34163567.61347 -26598260.58246  21773233.8674                   21773232.3484
 -33550660.82048 -26120623.97347  20477496.7894                   20477495.2974
 -13341495.01247 -10375354.08644  22699378.5474                   22699379.9304
 -19925926.91446 -15509383.91443  23987557.0474                   23987559.8634
 -24373878.04748 -18970189.08246  21647888.1564                   21647890.7154
  -9302033.38346  -7230733.79343  23523916.4534                   23523919.2074
 11  9 23  0  6  0.0000000  0  9G15G29G12G02G05G30G10G25G26
  -1717019.91846  -1317307.34444  24433055.8674                   24433064.4454
 -16719310.46547 -13012349.06645  22336218.4774                   22336218.9844
 -28459245.09848 -22154364.18746  21830069.1884                   21830070.2114
 -34150274.54747 -26587902.34846  21775763.4304                   21775761.9614
 -33548432.64848 -26118887.71947  20477920.2424                   20477919.3714
 -13392870.61747 -10415387.01645  22689601.8754                   22689602.8954
 -19846962.89546 -15447853.58243  24002583.8134                   24002585.5664
 -24385702.62548 -18979403.04346  21645638.3984                   21645640.3014
  -9424617.80546  -7326253.87544  23500589.3834                   23500592.5274
 11  9 23  0  6 30.0000000  0  9G15G29G12G02G05G30G10G25G26
  -1840910.12146  -1413844.62144  24409480.1174                   24409488.1604
 -16827275.22347 -13096477.35246  22315673.2734                   22315674.1914
 -28414867.57447 -22119784.36346  21838514.2344                   21838515.1994
 -34136876.44547 -26577462.27046  21778313.0164                   21778311.0944
 -33545695.73848 -26116755.03147  20478441.1334                   20478440.0824
 -13443653.06247 -10454957.74645  22679938.2894                   22679940.0314
 -19767872.37146 -15386224.68043  24017634.1644                   24017636.8634
 -24396957.02048 -18988172.71546  21643496.5164                   21643498.8284
  -9547073.21147  -7421673.37544  23477286.6174                   23477290.6884
 11  9 23  0  7  0.0000000  0  9G15G29G12G02G05G30G10G25G26
  -1964875.52346  -1510440.53544  24385889.5634                   24385897.5474
 -16935105.61747 -13180500.95345  22295154.4454                   22295154.0744
 -28370107.69547 -22084906.58246  21847031.7814                   21847032.3054
 -34123370.64147 -26566938.26646  21780883.1724                   21780881.2424
 -33542448.82048 -26114224.94547  20479059.1484                   20479058.1134
 -13493839.30947 -10494063.91845  22670388.1884                   22670389.4264
 -19688655.02046 -15324496.93743  24032708.7274                   24032711.6564
 -24407639.57848 -18996496.79746  21641463.6884                   21641466.2424
  -9669393.20347  -7516987.39544  23454009.7344                   23454013.2344
 11  9 23  0  7 30.0000000  0  9G15G29G12G02G05G30G10G25G26
  -2088914.39547  -1607093.67643  24362285.2274                   24362292.7704
 -17042800.81247 -13264419.19945  22274659.9614                   22274660.4654
 -28324969.27047 -22049733.84446  21855620.9614                   21855621.7704
 -34109758.35947 -26556331.29346  21783473.7424                   21783471.9414
 -33538695.00448 -26111299.87947  20479773.5394                   20479772.5864
 -13543430.07847 -10532706.08245  22660952.0314                   22660952.6294
 -19609314.60246 -15262673.27043  24047807.2504                   24047809.6724
 -24417752.55948 -19004377.06246  21639539.2344                   21639541.4024
  -9791575.47347  -7612194.10244  23430759.2274                   23430761.8794
 11  9 23  0  8  0.0000000  0  9G15G29G12G02G05G30G10G25G26
  -2213023.48046  -1703801.52344  24338667.8284                   24338675.8674
 -17150357.57047 -13348229.57045  22254192.8524                   22254193.4304
 -28279454.10248 -22014267.53546  21864282.5234                   21864283.5204
 -34096038.03948 -26545640.15246  21786084.5164                   21786082.3984
 -33534434.76248 -26107980.18747  20480584.2114                   20480583.2814
 -13592423.76247 -10570882.96145  22651628.4064                   22651629.5514
 -19529852.16846 -15200754.52743  24062928.3594                   24062931.2464
 -24427295.80948 -19011813.38746  21637723.0164                   21637725.7034
  -9913614.93447  -7707289.53144  23407535.7734                   23407538.8204
 11  9 23  0  8 30.0000000  0  9G15G29G12G02G05G30G10G25G26
  -2337202.03546  -1800563.48044  24315037.3524                   24315044.2384
 -17257775.85247 -13431932.01645  22233751.6414                   22233752.4694
 -28233567.21148 -21978511.57046  21873014.3754                   21873015.3094
 -34082212.19147 -26534866.75846  21788715.4534                   21788713.4384
 -33529672.07848 -26104268.98447  20481490.4694                   20481489.4884
 -13640822.35247 -10608596.13744  22642418.8444                   22642419.3754
 -19450272.63746 -15138744.56643  24078071.2274                   24078074.2234
 -24436272.64848 -19018808.35946  21636014.9774                   21636017.7114
 -10035510.32847  -7802272.72344  23384339.6484                   23384342.7814
 11  9 23  0  9  0.0000000  0  9G15G29G12G02G05G30G10G25G26
  -2461447.81647  -1897377.84844  24291393.4844                   24291400.0084
 -17365054.31647 -13515525.52745  22213336.9224                   22213337.2624
 -28187311.70748 -21942468.37546  21881816.9614                   21881817.3714
 -34068281.36747 -26524011.57846  21791365.8134                   21791364.3674
 -33524409.40248 -26100168.18447  20482491.8204                   20482490.7854
 -13688626.27747 -10645845.93745  22633321.1484                   22633322.8244
 -19370579.02046 -15076645.75443  24093236.9844                   24093240.3754
 -24444684.96548 -19025363.44146  21634414.0234                   21634416.4884
 -10157258.61747  -7897141.26244  23361171.2894                   23361174.4264
 11  9 23  0  9 30.0000000  0  9G15G29G12G02G05G30G10G25G26
  -2585756.94146  -1994241.56643  24267737.3594                   24267744.7074
 -17472189.30947 -13599007.25045  22192949.9224                   22192950.4964
 -28140688.80548 -21906138.89846  21890688.8364                   21890688.9964
 -34054244.25047 -26513073.57046  21794037.1334                   21794035.3674
 -33518647.25048 -26095678.17247  20483588.4304                   20483587.3554
 -13735834.02047 -10682631.18745  22624338.0314                   22624339.4454
 -19290772.91446 -15014459.16043  24108423.0164                   24108425.7894
 -24452532.70348 -19031478.59846  21632920.9774                   21632923.3284
 -10278854.88747  -7991891.36744  23338031.9924                   23338035.5474
 11  9 23  0 10  0.0000000  0  9G15G29G12G02G05G30G10G25G26
  -2710126.34846  -2091152.25843  24244070.9534                   24244077.2664
 -17579178.32447 -13682375.20746  22172590.7734                   22172591.1254
 -28093701.48048 -21869525.45346  21899630.1334                   21899630.6604
 -34040100.33247 -26502052.33246  21796728.8834                   21796727.2274
 -33512386.67248 -26090799.78547  20484779.7734                   20484778.7344
 -13782444.84447 -10718951.28945  22615468.5314                   22615469.2034
 -19210856.12146 -14952186.32843  24123631.2194                   24123634.3874
 -24459816.57848 -19037154.38346  21631534.9304                   21631537.3094
 -10400294.85547  -8086519.68044  23314922.7814                   23314926.1844
 11  9 23  0 10 30.0000000  0  9G15G29G12G02G05G30G10G25G26
  -2834553.33246  -2188107.83243  24220392.0084                   24220399.4064
 -17686019.93047 -13765628.32846  22152259.5704                   22152259.9384
 -28046352.59848 -21832630.26646  21908640.2974                   21908640.9344
 -34025849.77347 -26490948.02046  21799440.8834                   21799439.0824
 -33505629.93448 -26085534.77747  20486065.7584                   20486064.5784
 -13828458.80147 -10754806.29745  22606712.2194                   22606713.8524
 -19130831.23446 -14889829.28943  24138859.3984                   24138862.1374
 -24466538.03548 -19042391.93446  21630255.6254                   21630258.5904
 -10521575.24647  -8181023.63344  23291843.5554                   23291847.1454
 11  9 23  0 11  0.0000000  0  9G15G29G12G02G05G30G10G25G26
  -2959033.91846  -2285105.20344  24196704.5234                   24196710.7814
 -17792710.64847 -13848763.84446  22131956.8914                   22131957.3714
 -27998643.53148 -21795454.42246  21917719.0394                   21917719.8014
 -34011491.49247 -26479759.74645  21802173.0084                   21802170.8594
 -33498377.87948 -26079883.80947  20487445.3674                   20487444.6214
 -13873874.58647 -10790195.19545  22598069.9384                   22598071.7424
 -19050699.60946 -14827389.04743  24154108.0164                   24154111.1414
 -24472697.21148 -19047191.33246  21629083.9774                   21629086.1484
 -10642691.18747  -8275399.46144  23268796.0784                   23268799.5984
 11  9 23  0 11 30.0000000  0  9G15G29G12G02G05G30G10G25G26
  -3083567.05546  -2382143.55543  24173006.4144                   24173012.3404
 -17899249.84847 -13931781.32046  22111682.6254                   22111682.9804
 -27950578.44148 -21758001.15246  21926865.6334                   21926866.5474
 -33997027.07847 -26468488.77746  21804925.4614                   21804923.7114
 -33490633.88348 -26073849.51647  20488918.9774                   20488917.9384
 -13918693.60547 -10825119.09445  22589541.4064                   22589542.2734
 -18970465.24646 -14764868.76643  24169375.7894                   24169378.3134
 -24478296.87148 -19051554.74246  21628018.4384                   21628020.7854
 -10763640.62947  -8369645.55545  23245779.7344                   23245783.4184
 11  9 23  0 12  0.0000000  0  9G15G29G12G02G05G30G10G25G26
  -3208148.47746  -2479219.50843  24149298.8444                   24149305.1214
 -18005633.94547 -14014677.91446  22091438.6564                   22091439.2854
 -27902158.98848 -21720271.75046  21936079.9144                   21936080.4614
 -33982455.10547 -26457133.99645  21807698.5084                   21807696.4844
 -33482398.04748 -26067431.96547  20490486.2194                   20490485.2974
 -13962914.25047 -10859576.72745  22581126.1174                   22581127.5664
 -18890129.19146 -14702269.24243  24184663.8984                   24184665.2854
 -24483336.89548 -19055482.07846  21627059.0164                   21627061.3874
 -10884418.30147  -8463757.80544  23222796.6564                   23222799.5984
 11  9 23  0 12 30.0000000  0  9G15G29G12G02G05G30G10G25G26
  -3332774.87146  -2576330.57444  24125582.9924                   24125588.4304
 -18111860.07047 -14097451.43746  22071224.0234                   22071224.9104
 -27853387.61348 -21682268.12946  21945360.5314                   21945361.0474
 -33967774.54747 -26445694.59046  21810492.0164                   21810489.8014
 -33473671.72748 -26060632.21547  20492147.1094                   20492146.2194
 -14006535.80547 -10893567.54345  22572825.1804                   22572826.5084
 -18809693.08246 -14639591.73043  24199970.3834                   24199971.3554
 -24487817.94148 -19058973.84446  21626206.4224                   21626208.9964
 -11005019.80947  -8557732.79744  23199846.7034                   23199849.6174
 11  9 23  0 13  0.0000000  0  9G15G29G12G02G05G30G10G25G26
  -3457446.18046  -2673476.60944  24101858.9844                   24101864.5944
 -18217928.84047 -14180102.32846  22051040.0944                   22051040.3204
 -27804269.69548 -21643994.48046  21954707.3754                   21954707.9064
 -33952988.26247 -26434172.80945  21813305.7034                   21813303.8164
 -33464459.42248 -26053453.78947  20493900.0394                   20493899.0434
 -14049561.05947 -10927093.69945  22564638.1024                   22564639.2154
 -18729162.35946 -14576840.53143  24215294.3204                   24215296.3794
 -24491744.20348 -19062033.30146  21625459.4144                   21625461.7114
 -11125444.30947  -8651569.84444  23176930.2894                   23176933.0784
 11  9 23  0 13 30.0000000  0  9G15G29G12G02G05G30G10G25G26
  -3582160.01647  -2770655.80144  24078125.7734                   24078131.1954
 -18323838.31248 -14262629.09846  22030886.1024                   22030885.8914
 -27754808.11748 -21605453.04746  21964120.0634                   21964120.5044
 -33938096.84448 -26422569.10245  21816139.7114                   21816137.6294
 -33454763.73448 -26045898.69147  20495744.8754                   20495743.8914
 -14091990.48447 -10960155.57045  22556564.0394                   22556564.7624
 -18648539.64846 -14514017.60943  24230636.1334                   24230638.3754
 -24495117.60948 -19064661.96146  21624817.1414                   21624820.3714
 -11245688.68047  -8745266.56244  23154048.3364                   23154050.9414
 11  9 23  0 14  0.0000000  0  9G15G29G12G02G05G30G10G25G26
  -3706912.53947  -2867865.07844  24054385.9224                   24054391.8524
 -18429585.93747 -14345029.76646  22010763.1334                   22010763.7464
 -27705004.94148 -21566645.41446  21973597.1884                   21973597.8404
 -33923099.04347 -26410882.50446  21818993.7814                   21818991.2774
 -33444585.60248 -26037967.66447  20497681.4304                   20497680.8364
 -14133823.04347 -10992752.34845  22548603.1724                   22548604.6454
 -18567826.43446 -14451124.22343  24245995.1254                   24245997.5554
 -24497938.41448 -19066860.02046  21624280.5314                   21624283.5234
 -11365748.25847  -8838819.28544  23131201.7424                   23131204.7194
 11  9 23  0 14 30.0000000  0  9G15G29G12G02G05G30G10G25G26
  -3831700.14547  -2965101.76644  24030639.7734                   24030644.3364
 -18535168.30148 -14427301.64846  21990671.4454                   21990671.5234
 -27654862.49647 -21527573.42246  21983138.8524                   21983139.3054
 -33907993.82447 -26399112.19146  21821867.9924                   21821866.0984
 -33433926.03148 -26029661.48847  20499709.7664                   20499709.2854
 -14175057.80947 -11024883.31645  22540756.7664                   22540757.7424
 -18487024.16046 -14388161.40243  24261371.8594                   24261373.6914
 -24500207.18748 -19068627.93046  21623849.0004                   21623851.3794
 -11485618.20747  -8932224.24244  23108390.6484                   23108393.4344
 11  9 23  0 15  0.0000000  0  9G15G29G12G02G05G30G10G25G26
  -3956519.66847  -3062363.25444  24006886.3594                   24006892.4654
 -18640582.82848 -14509442.77346  21970611.4384                   21970611.7464
 -27604383.41047 -21488239.12146  21992744.5084                   21992745.1844
 -33892780.97747 -26387258.03146  21824762.7814                   21824760.7424
 -33422786.48848 -26020981.30947  20501829.7894                   20501829.2154
 -14215694.53947 -11056548.27745  22533023.1254                   22533025.0314
 -18406134.75446 -14325130.68743  24276764.3134                   24276766.0554
 -24501925.12148 -19069966.60546  21623522.1334                   21623524.5984
 -11605294.82447  -9025478.53544  23085617.0474                   23085620.0744
 11  9 23  0 15 30.0000000  0  9G15G29G12G02G05G30G10G25G26
  -4081366.64846  -3159646.20343  23983127.7344                   23983133.6484
 -18745826.52047 -14591450.77046  21950583.8284                   21950584.4924
 -27553569.03147 -21448643.56246  22002414.5554                   22002415.2344
 -33877459.05148 -26375318.86745  21827678.3594                   21827676.5634
 -33411167.66048 -26011927.66447  20504040.7504                   20504040.1134
 -14255732.07847 -11087746.34445  22525405.0634                   22525406.1844
 -18325159.68446 -14262033.25843  24292173.2034                   24292175.5554
 -24503092.38348 -19070876.18046  21623300.4384                   21623302.7074
 -11724772.84847  -9118578.11344  23062881.0084                   23062884.0474
 11  9 23  0 16  0.0000000  0  9G15G29G12G02G05G30G10G25G26
  -4206242.39546  -3256951.53143  23959364.8284                   23959370.4964
 -18850900.03548 -14673326.17246  21930589.0944                   21930589.5944
 -27502425.64548 -21408791.60546  22012146.6954                   22012147.6644
 -33862031.55148 -26363297.42646  21830614.5164                   21830612.6054
 -33399074.94948 -26002504.75847  20506342.0234                   20506341.0744
 -14295173.98047 -11118480.23045  22517899.4304                   22517900.3134
 -18244104.62146 -14198873.49243  24307598.1804                   24307599.7424
 -24503713.93448 -19071360.52346  21623181.5084                   21623184.1684
 -11844052.00846  -9211522.72744  23040183.6564                   23040185.2114
 11  9 23  0 16 30.0000000  0  9G15G29G12G02G05G30G10G25G26
  -4331142.64146  -3354275.94544  23935596.8914                   23935603.0314
 -18955800.73448 -14755066.92246  21910627.7734                   21910627.9264
 -27450955.19148 -21368684.82446  22021941.6334                   22021942.1844
 -33846497.23848 -26351192.76645  21833570.3054                   21833568.6724
 -33386509.60948 -25992713.56247  20508733.2504                   20508732.3714
 -14334019.34847 -11148749.31645  22510507.3674                   22510508.4534
 -18162971.12546 -14135652.63343  24323036.6724                   24323038.4384
 -24503790.31248 -19071420.03946  21623167.0314                   21623170.0314
 -11963127.96946  -9304308.99244  23017523.5084                   23017525.4884
 11  9 23  0 17  0.0000000  0  9G15G29G12G02G05G30G10G25G26
  -4456062.38347  -3451615.58244  23911825.5474                   23911830.6804
 -19060523.90247 -14836669.31246  21890699.1954                   21890699.1804
 -27399158.32048 -21328323.67646  22031798.2584                   22031798.4144
 -33830853.75448 -26339003.04746  21836547.4614                   21836545.9694
 -33373471.10248 -25982553.67647  20511214.1484                   20511213.6684
 -14372266.20747 -11178552.02345  22503229.0554                   22503230.3794
 -18081759.10546 -14072370.53943  24338491.3284                   24338492.8874
 -24503320.83248 -19071054.22346  21623256.5864                   21623259.1294
 -12081994.23446  -9396931.88744  22994903.3674                   22994906.1374
 11  9 23  0 17 30.0000000  0  9G15G29G12G02G05G30G10G25G26
  -4581000.61747  -3548969.64144  23888050.5314                   23888055.3014
 -19165069.04347 -14918133.02046  21870804.8054                   21870805.0984
 -27347039.71948 -21287711.83246  22041716.0084                   22041716.6414
 -33815102.94947 -26326729.69546  21839544.3914                   21839543.3714
 -33359963.53547 -25972028.28547  20513784.8914                   20513783.7194
 -14409916.62947 -11207889.97345  22496064.4454                   22496065.4844
 -18000472.72746 -14009030.50043  24353959.6804                   24353960.8524
 -24502308.96148 -19070265.75046  21623449.1724                   21623451.7734
 -12200649.50447  -9489390.35244  22972324.6414                   22972326.1764
 11  9 23  0 18  0.0000000  0  9G15G29G12G02G05G30G10G25G26
  -4705954.68746  -3646336.04744  23864271.3754                   23864276.5784
 -19269434.08247 -14999456.36346  21850944.8134                   21850944.8914
 -27294602.09847 -21246851.40246  22051694.4304                   22051695.3364
 -33799244.55548 -26314372.50846  21842562.2034                   21842560.6024
 -33345988.85948 -25961138.92647  20516443.9454                   20516443.1684
 -14446970.94147 -11236763.41845  22489013.2034                   22489014.1334
 -17919114.84846 -13945634.75843  24369441.7424                   24369442.9414
 -24500756.32448 -19069055.90646  21623744.7584                   21623747.2424
 -12319089.82847  -9581681.32844  22949785.7034                   22949787.0394
 11  9 23  0 18 30.0000000  0  9G15G29G12G02G05G30G10G25G26
  -4830921.50046  -3743712.33643  23840490.7664                   23840495.5634
 -19373616.66447 -15080637.55946  21831119.5554                   21831119.4384
 -27241848.75048 -21205744.94946  22061733.3674                   22061734.0944
 -33783279.01248 -26301931.85246  21845600.8054                   21845598.7894
 -33331549.11348 -25949887.17247  20519191.6804                   20519190.8954
 -14483429.19147 -11265172.41445  22482075.1564                   22482076.0124
 -17837687.26646 -13882184.65243  24384936.2194                   24384938.6484
 -24498664.54348 -19067425.94546  21624142.6644                   21624145.2734
 -12437311.37147  -9673801.83644  22927289.0234                   22927291.0824
 11  9 23  0 19  0.0000000  0  9G15G29G12G02G05G30G10G25G26
  -4955896.60547  -3841095.10244  23816709.2974                   23816714.0084
 -19477613.43447 -15161673.94946  21811329.2734                   21811330.0204
 -27188781.05548 -21164393.55546  22071831.6094                   22071832.0784
 -33767204.19148 -26289406.02346  21848659.4384                   21848657.5824
 -33316644.69948 -25938273.33647  20522028.1174                   20522027.1094
 -14519290.16847 -11293115.98445  22475251.1334                   22475252.5864
 -17756190.53546 -13818680.70343  24400444.5004                   24400446.7194
 -24496033.61348 -19065375.88746  21624643.0634                   21624645.6644
 -12555308.91847  -9765747.77744  22904834.6414                   22904836.9924
 11  9 23  0 19 30.0000000  0  9G15G29G12G02G05G30G10G25G26
  -5080879.95346  -3938484.35944  23792925.1334                   23792929.1994
 -19581424.83248 -15242565.91846  21791574.7584                   21791574.3754
 -27135404.32447 -21122801.36745  22081989.2274                   22081990.4104
 -33751022.83648 -26276797.18446  21851738.7274                   21851736.7424
 -33301280.50448 -25926301.22747  20524951.5394                   20524950.7584
 -14554556.98047 -11320596.57045  22468539.9924                   22468541.3874
 -17674630.29746 -13755127.22743  24415964.7114                   24415967.4574
 -24492868.07448 -19062909.23046  21625245.5394                   21625248.1684
 -12673081.39147  -9857518.35545  22882423.5004                   22882425.5394
 11  9 23  0 20  0.0000000  0  9G15G29G12G02G05G30G10G25G26
  -5205867.56646  -4035876.93044  23769140.4774                   23769144.7074
 -19685047.63348 -15323310.90646  21771855.6644                   21771856.0594
 -27081721.09047 -21080970.33645  22092204.8834                   22092205.3484
 -33734733.85948 -26264104.48045  21854838.3754                   21854836.6804
 -33285457.58248 -25913971.66447  20527962.7664                   20527961.6644
 -14589228.97347 -11347613.67645  22461942.2114                   22461942.9844
 -17593007.63746 -13691525.07843  24431497.0394                   24431500.0204
 -24489168.55547 -19060026.48846  21625949.6884                   21625952.0704
 -12790624.33647  -9949110.05945  22860055.2894                   22860057.5744
 11  9 23  0 20 30.0000000  0  9G15G29G12G02G05G30G10G25G26
  -5330856.81646  -4133270.71544  23745355.3364                   23745360.2034
 -19788479.39148 -15403907.04746  21752173.7504                   21752173.7114
 -27027733.91047 -21038902.46545  22102477.9454                   22102478.4534
 -33718336.91848 -26251327.66446  21857958.6174                   21857956.8954
 -33269177.98048 -25901286.26647  20531060.4694                   20531059.4494
 -14623306.46147 -11374167.52345  22455457.4774                   22455458.2504
 -17511324.64546 -13627875.91043  24447041.2194                   24447042.9144
 -24484936.76648 -19056728.98446  21626754.7274                   21626757.3244
 -12907934.01647 -10040519.99245  22837732.0944                   22837734.3754
 11  9 23  0 21  0.0000000  0  9G15G29G12G02G05G30G10G25G26
  -5455843.41846  -4230662.47744  23721570.5864                   23721576.2584
 -19891716.72748 -15484351.67246  21732528.1724                   21732528.2544
 -26973444.58647 -20996599.14845  22112808.7584                   22112809.2464
 -33701831.01648 -26238465.92245  21861099.2974                   21861097.4924
 -33252442.60248 -25888245.70746  20534245.1884                   20534244.4924
 -14656788.73047 -11400257.58245  22449085.7814                   22449087.0354
 -17429582.73446 -13564180.83643  24462596.0784                   24462598.2894
 -24480173.34048 -19053017.21146  21627661.3054                   21627663.6564
 -13025005.46147 -10131744.29344  22815453.1884                   22815456.3754
 11  9 23  0 21 30.0000000  0 10G15G29G12G02G05G30G10G25G26G21
  -5580826.70347  -4328051.65644  23697787.5474                   23697792.0234
 -19994759.31648 -15564644.57046  21712919.7814                   21712919.7344
 -26918858.06647 -20954064.27045  22123196.3594                   22123197.8714
 -33685217.66848 -26225520.45345  21864261.0784                   21864259.2304
 -33235255.49248 -25874853.14147  20537515.7664                   20537514.9534
 -14689678.23447 -11425885.71945  22442827.4534                   22442828.1374
 -17347786.08646 -13500443.12143  24478160.7504                   24478163.8554
 -24474881.95348 -19048894.05146  21628668.2734                   21628671.0944
 -13141836.81247 -10222781.51244  22793220.8754                   22793223.6094
   -126608.99655    -93117.28153  25052866.8524                   25052871.3364
 11  9 23  0 22  0.0000000  0  9G15G29G12G02G05G30G25G26G21
  -5705809.26647  -4425440.29744  23674004.0554                   23674008.3594
 -20097610.48447 -15644788.28546  21693347.9224                   21693348.0864
 -26863982.73047 -20911304.32445  22133638.6484                   22133639.6174
 -33668502.31247 -26212495.50045  21867441.4844                   21867440.0434
 -33217624.46148 -25861114.67647  20540871.1564                   20540869.8914
 -14721980.72347 -11451056.43745  22436680.3674                   22436681.0864
 -24469069.89548 -19044365.16046  21629774.2424                   21629777.0274
 -13258430.04747 -10313633.18444  22771034.2114                   22771035.9414
   -212522.30946   -160062.57842  25036518.0704                   25036522.0354
 11  9 23  0 22 30.0000000  0  9G15G29G12G02G05G30G25G26G21
  -5830792.30947  -4522829.33244  23650219.8524                   23650224.3984
 -20200272.48047 -15724784.58246  21673811.5864                   21673812.1024
 -26808825.93447 -20868325.06245  22144135.0084                   22144135.2704
 -33651689.35247 -26199394.49645  21870640.6724                   21870639.5434
 -33199555.98448 -25847035.33647  20544309.2274                   20544308.0824
 -14753701.38347 -11475773.80145  22430644.0474                   22430644.7504
 -24462743.47748 -19039435.48446  21630978.2584                   21630980.6214
 -13374785.82847 -10404299.82444  22748891.0784                   22748894.1804
   -298427.16446   -227001.28542  25020171.4924                   25020175.7584
 11  9 23  0 23  0.0000000  0  9G15G29G12G02G05G30G25G26G21
  -5955765.31247  -4620210.54344  23626437.1804                   23626441.9534
 -20302734.87947 -15804625.36346  21654313.7814                   21654313.7894
 -26753382.98447 -20825122.81645  22154685.0944                   22154686.1804
 -33634770.72747 -26186211.14845  21873860.5704                   21873858.9224
 -33181044.20348 -25832610.57046  20547831.6414                   20547830.5864
 -14784832.63747 -11500031.89145  22424719.9774                   22424721.3874
 -24455896.55148 -19034100.20746  21632281.1024                   21632283.7854
 -13490892.28947 -10494772.18744  22726797.0704                   22726799.9104
   -384315.87545   -293927.46942  25003827.0554                   25003831.1484
 11  9 23  0 23 30.0000000  0  9G15G29G12G02G05G30G25G26G21
  -6080716.33647  -4717574.65244  23602660.2034                   23602664.8674
 -20404986.77347 -15884302.09846  21634855.5234                   21634855.8634
 -26697647.84847 -20781692.89845  22165291.2814                   22165292.8594
 -33617737.27347 -26172938.30945  21877101.9844                   21877100.3524
 -33162082.00047 -25817834.80946  20551439.9614                   20551439.2194
 -14815366.09047 -11523824.17245  22418909.1724                   22418910.5394
 -24448521.98048 -19028353.78546  21633684.3364                   21633687.1954
 -13606736.89147 -10585040.52744  22704752.8984                   22704754.9104
   -470180.09045   -360834.43442  24987486.6174                   24987491.3324
 11  9 23  0 24  0.0000000  0  9G15G29G12G02G05G30G25G26G21
  -6205642.12146  -4814919.08644  23578887.1804                   23578891.1604
 -20507025.69147 -15963812.89546  21615438.3054                   21615438.4884
 -26641623.45747 -20738037.57845  22175952.9064                   22175953.0594
 -33600588.90647 -26159575.94145  21880365.0394                   21880363.0824
 -33142672.20348 -25802710.28146  20555133.7664                   20555132.7154
 -14845302.30547 -11547151.05945  22413213.1174                   22413213.8094
 -24440621.66448 -19022197.68446  21635187.8594                   21635190.2544
 -13722316.07047 -10675102.03144  22682758.6724                   22682760.6724
   -556020.10546   -427722.53142  24971152.0004                   24971156.8554
 11  9 23  0 24 30.0000000  0  9G15G29G12G02G05G30G25G26G21
  -6330541.79346  -4912243.21944  23555119.4224                   23555122.6604
 -20608851.25047 -16043157.41446  21596061.4844                   21596061.6914
 -26585314.68748 -20694160.67245  22186668.0784                   22186669.1134
 -33583327.15647 -26146125.20345  21883650.0084                   21883647.8324
 -33122818.48048 -25787239.83246  20558911.6564                   20558910.7464
 -14874643.66847 -11570014.44145  22407629.3754                   22407630.2274
 -24432199.34848 -19015634.84046  21636790.6954                   21636793.3554
 -13837627.73447 -10764955.09444  22660815.7814                   22660817.4774
   -641838.33645   -494593.74242  24954821.5944                   24954824.5474
 11  9 23  0 25  0.0000000  0  9G15G29G12G02G05G30G25G26G21
  -4879992.64146  -3781944.85944  23831149.1954                   23831153.3244
 -19135041.87947 -14894734.46146  21876518.0944                   21876518.4064
 -24953310.39547 -19422469.07045  22497227.9614                   22497229.3714
 -31990536.61747 -24904989.70745  22186748.1094                   22186745.9224
 -31527107.94948 -24543829.01646  20862565.3444                   20862564.3134
 -13327974.03547 -10364817.33645  22701950.6644                   22701951.9614
 -22847841.34448 -17781070.16846  21938283.7274                   21938285.8444
 -12377248.60247  -9626997.15645  22938716.5314                   22938718.3284
    847783.47346    666150.68442  25238286.7274                   25238290.0664
 11  9 23  0 25 30.0000000  0  9G15G29G12G02G05G30G25G26G21
  -5004838.13746  -3879226.76244  23807391.9534                   23807396.4494
 -19236440.58648 -14973746.36346  21857222.7814                   21857221.9694
 -24896448.23048 -19378160.94145  22508048.9304                   22508049.5784
 -31973054.31647 -24891367.10945  22190074.7424                   22190072.0274
 -31506379.56648 -24527677.02046  20866509.5704                   20866508.8164
 -13356134.30547 -10386760.39545  22696592.1724                   22696592.8874
 -22838387.35948 -17773703.42246  21940083.0634                   21940085.4654
 -12492020.81247  -9716429.87945  22916876.0554                   22916877.5634
    762000.69946    599307.19942  25221963.1024                   25221965.4304
 11  9 23  0 26  0.0000000  0  9G15G29G12G02G05G30G25G26G21
  -5129653.74247  -3976485.36344  23783640.5474                   23783644.5204
 -19337624.37148 -15052590.79746  21837967.8594                   21837968.2074
 -24839316.06247 -19333642.42645  22518920.9304                   22518921.7814
 -31955463.55948 -24877660.00045  22193422.5784                   22193419.9774
 -31485218.89848 -24511188.17646  20870536.5004                   20870536.0234
 -13383707.09047 -10408245.69145  22691345.2974                   22691346.7814
 -22828422.51648 -17765938.60546  21941978.8364                   21941981.6914
 -12606519.75847  -9805649.67644  22895087.2504                   22895089.2384
    676232.89846    532475.38742  25205642.4064                   25205645.7704
 11  9 23  0 26 30.0000000  0  9G15G29G12G02G05G30G25G26G21
  -5254434.97347  -4073717.17244  23759895.0704                   23759898.5554
 -19438589.19147 -15131264.59846  21818754.7344                   21818755.1174
 -24781914.76247 -19288914.20345  22529843.7814                   22529845.0124
 -31937762.34447 -24863866.80945  22196790.7114                   22196788.2154
 -31463626.42648 -24494362.85246  20874645.2424                   20874644.1724
 -13410691.06247 -10429272.18445  22686210.2814                   22686211.1094
 -22817946.76648 -17757775.69146  21943972.6804                   21943975.2034
 -12720739.71547  -9894652.07845  22873352.3284                   22873353.9884
    590481.20746    465656.03143  25189323.5084                   25189326.6334
 11  9 23  0 27  0.0000000  0  9G15G29G12G02G05G30G25G26G21
  -5379180.91047  -4170921.48044  23736156.3754                   23736160.0984
 -19539334.91448 -15209767.68746  21799583.4064                   21799583.7774
 -24724249.59847 -19243980.35945  22540817.5704                   22540818.5164
 -31919952.59447 -24849989.05545  22200179.5634                   22200177.7274
 -31441606.99248 -24477204.83246  20878835.9064                   20878834.6454
 -13437089.27347 -10449842.23445  22681186.8524                   22681187.5044
 -22806964.49248 -17749218.08646  21946062.5234                   21946064.7974
 -12834679.30547  -9983436.01245  22851669.8364                   22851671.0234
    504743.34846    398847.64542  25173007.4144                   25173011.9184
 11  9 23  0 27 30.0000000  0  9G15G29G12G02G05G30G25G26G21
  -5503889.07847  -4268096.37144  23712424.7034                   23712428.9884
 -19639859.62948 -15288098.56646  21780454.3594                   21780453.8284
 -24666323.72747 -19198843.37545  22551839.7114                   22551840.9494
 -31902034.47347 -24836026.85545  22203589.2894                   22203587.0314
 -31419162.93748 -24459715.94946  20883106.4534                   20883105.5664
 -13462902.94147 -10469956.80945  22676274.9614                   22676275.9104
 -22795478.17248 -17740267.71546  21948248.2344                   21948250.6994
 -12948335.32847 -10071998.98445  22830041.8204                   22830043.3794
    419018.15246    332048.96943  25156694.7734                   25156697.9534
 11  9 23  0 28  0.0000000  0  9G15G29G12G02G05G30G25G26G21
  -5628554.77047  -4365238.12944  23688701.2894                   23688705.7464
 -19740159.25448 -15366254.03946  21761367.8524                   21761368.0044
 -24608139.38347 -19153504.98045  22562912.3754                   22562913.4024
 -31884005.89547 -24821978.59045  22207019.9454                   22207018.0204
 -31396294.68748 -24441896.52346  20887458.4454                   20887457.1684
 -13488130.98447 -10489615.05145  22671474.3284                   22671475.1844
 -22783487.87548 -17730924.64546  21950529.8204                   21950532.3554
 -13061702.12147 -10160336.57845  22808468.6804                   22808470.2034
    333306.88346    265261.22743  25140384.5394                   25140388.3164
 11  9 23  0 28 30.0000000  0  9G15G29G12G02G05G30G25G26G21
  -5753174.66847  -4462344.22344  23664987.1024                   23664990.4844
 -19840231.27348 -15444232.16446  21742324.7194                   21742324.7544
 -24549698.76247 -19107966.88345  22574033.1804                   22574033.8134
 -31865866.60547 -24807844.05945  22210471.8054                   22210469.7624
 -31373004.21548 -24423748.09446  20891890.4224                   20891889.3984
 -13512774.00447 -10508817.42245  22666784.4384                   22666785.5044
 -22770995.54348 -17721190.37546  21952907.1254                   21952909.4534
 -13174775.78947 -10248445.77045  22786951.2194                   22786952.7034
    247609.52046    198484.35243  25124076.7734                   25124080.4304
 11  9 23  0 29  0.0000000  0  9G15G29G12G02G05G30G25G26G21
  -5877746.63347  -4559412.95744  23641281.5314                   23641284.1644
 -19940074.16048 -15522031.74246  21723325.4144                   21723325.2894
 -24491005.68047 -19062232.08245  22585201.4694                   22585202.7424
 -31847617.41847 -24793623.89546  22213944.5164                   22213942.9184
 -31349294.78148 -24405273.21146  20896401.9844                   20896401.1644
 -13536833.67647 -10527565.27045  22662206.1564                   22662207.1844
 -22758004.08248 -17711067.18746  21955379.2194                   21955381.8164
 -13287553.39847 -10336324.28545  22765490.3284                   22765492.0274
    161924.71546    131717.16842  25107770.8444                   25107773.6134
 11  9 23  0 29 30.0000000  0  9G15G29G12G02G05G30G25G26G21
  -6002269.91447  -4656443.77344  23617585.2424                   23617588.9144
 -20039687.65648 -15599652.57846  21704368.8444                   21704369.1134
 -24432064.96547 -19016304.30545  22596417.9774                   22596419.5904
 -31829259.49647 -24779319.00445  22217438.0704                   22217436.2894
 -31325170.43048 -24386475.00846  20900992.8834                   20900991.7624
 -13560312.78147 -10545860.71545  22657738.7974                   22657739.6024
 -22744517.53148 -17700558.20346  21957945.7344                   21957948.4694
 -13400033.43747 -10423970.91445  22744085.7584                   22744086.5594
     76249.74646     64957.73443  25091467.3754                   25091471.0044
 11  9 23  0 30  0.0000000  0  9G15G29G12G02G05G30G25G26G21
  -6126739.25446  -4753432.57444  23593898.8834                   23593902.1954
 -20139067.40248 -15677091.27346  21685458.1884                   21685457.8524
 -24372877.85547 -18970184.55945  22607681.1334                   22607681.8714
 -31810791.27748 -24764928.18045  22220952.3674                   22220950.4924
 -31300631.43448 -24367353.70346  20905662.3054                   20905661.4104
 -13583210.32447 -10563702.99245  22653381.2814                   22653382.2384
 -22730536.03548 -17689663.56246  21960606.4924                   21960609.4344
 -13512209.89547 -10511381.00045  22722738.9304                   22722740.8324
     -9413.60246     -1792.68443  25075166.5314                   25075169.8594
 11  9 23  0 30 30.0000000  0  9G15G29G12G02G05G30G25G26G21
  -6251151.44946  -4850376.84844  23570223.7424                   23570227.2154
 -20238210.80148 -15754345.78146  21666591.5554                   21666591.7504
 -24313447.14147 -18923874.97345  22618990.0164                   22618991.6294
 -31792212.19547 -24750450.95345  22224487.6334                   22224486.0554
 -31275679.95748 -24347910.98046  20910410.3834                   20910409.4654
 -13605526.88747 -10581092.56245  22649134.5314                   22649135.9804
 -22716061.48848 -17678384.71946  21963360.6804                   21963362.9654
 -13624078.87147 -10598551.47345  22701451.2424                   22701452.5274
    -95065.60546    -68534.24643  25058866.8674                   25058869.8754
 11  9 23  0 31  0.0000000  0  9G15G29G12G02G05G30G25G26G21
  -6375503.05947  -4947273.92644  23546561.1414                   23546563.8134
 -20337114.91448 -15831413.85246  21647770.6334                   21647770.3524
 -24253775.12947 -18877377.35945  22630345.7504                   22630346.6994
 -31773521.36347 -24735886.66045  22228044.3594                   22228043.1604
 -31250317.49248 -24328148.02046  20915236.7194                   20915235.9144
 -13627262.87147 -10598029.73845  22644998.2194                   22644999.2814
 -22701095.47748 -17666722.92246  21966208.6564                   21966211.3444
 -13735636.17247 -10685479.07445  22680222.1564                   22680223.5124
   -180706.42646   -135267.06643  25042570.0704                   25042573.6914
 11  9 23  0 31 30.0000000  0  9G15G29G12G02G05G30G25G26G21
  -6499792.34447  -5044122.44544  23522909.0234                   23522911.7734
 -20435779.17648 -15908295.02046  21628995.4304                   21628995.1684
 -24193867.06247 -18830695.82845  22641746.2664                   22641746.4734
 -31754720.35248 -24721236.52045  22231622.1024                   22231620.4184
 -31224547.96548 -24308067.86346  20920140.5864                   20920139.5824
 -13648420.96547 -10614516.57845  22640972.0164                   22640973.3444
 -22685641.84448 -17654681.16446  21969149.5164                   21969152.2074
 -13846879.72747 -10772162.20344  22659053.1484                   22659055.1094
   -266338.09446   -201992.80543  25026273.8054                   25026277.0124
 11  9 23  0 32  0.0000000  0  9G15G29G12G02G05G30G25G26G21
  -6624015.82847  -5140919.68744  23499269.7664                   23499271.9384
 -20534200.50848 -15984986.87546  21610266.1484                   21610266.2894
 -24133724.72747 -18783831.72745  22653190.4534                   22653191.6884
 -31735808.00447 -24706499.63745  22235220.5784                   22235218.9414
 -31198373.16448 -24287671.89846  20925121.3754                   20925120.5944
 -13669001.27347 -10630553.21545  22637055.8594                   22637057.2154
 -22669702.00848 -17642260.54746  21972182.8444                   21972185.2304
 -13957805.04747 -10858597.36345  22637944.6334                   22637946.3834
   -351960.27346   -268711.16043  25009980.7734                   25009984.7154
 11  9 23  0 32 30.0000000  0  9G15G29G12G02G05G30G25G26G21
  -6748172.91046  -5237665.21544  23475643.4304                   23475645.8054
 -20632378.71148 -16061489.30146  21591583.5394                   21591583.4614
 -24073353.54347 -18736789.29345  22664678.9144                   22664680.3834
 -31716786.19547 -24691677.47345  22238840.6884                   22238839.0864
 -31171797.64148 -24266963.69146  20930178.7344                   20930177.7774
 -13689007.15247 -10646142.23445  22633249.1334                   22633249.6024
 -22653280.39548 -17629464.51246  21975307.6254                   21975310.6644
 -14068410.68747 -10944783.40645  22616897.0944                   22616898.6094
   -437575.71946   -335424.24643  24993688.8754                   24993690.6414
 11  9 23  0 33  0.0000000  0  9G15G29G12G02G05G30G25G26G21
  -6872258.65246  -5334355.13344  23452030.2504                   23452033.1134
 -20730310.33248 -16137799.57446  21572947.7194                   21572947.3404
 -24012754.89147 -18689569.61345  22676210.7424                   22676212.3874
 -31697653.30947 -24676768.74245  22242481.2274                   22242479.6294
 -31144822.20748 -24245943.85946  20935312.1414                   20935310.9144
 -13708438.18047 -10661283.31245  22629551.2114                   22629552.6914
 -22636377.87948 -17616293.76646  21978523.8524                   21978526.4884
 -14178691.77347 -11030716.58245  22595911.3134                   22595913.2704
   -523183.39146   -402131.30543  24977397.2034                   24977400.9734
 11  9 23  0 33 30.0000000  0  9G15G29G12G02G05G30G25G26G21
  -6996269.30947  -5430986.55544  23428431.8204                   23428434.6564
 -20827991.30948 -16213914.53946  21554359.6804                   21554359.2974
 -23951930.52347 -18642174.06645  22687785.1564                   22687785.8874
 -31678407.93748 -24661772.36345  22246143.8364                   22246141.9454
 -31117447.72348 -24224613.07846  20940521.0634                   20940520.0904
 -13727294.22347 -10675976.33645  22625963.6724                   22625964.7074
 -22618995.37948 -17602748.99646  21981832.1644                   21981834.8874
 -14288643.16847 -11116392.84845  22574987.8204                   22574989.7074
   -608782.79346   -468831.91443  24961108.5004                   24961111.7854
 11  9 23  0 34  0.0000000  0  9G15G29G12G02G05G30G25G26G21
  -7120205.44547  -5527559.91445  23404847.6414                   23404850.2344
 -20925423.50448 -16289835.66446  21535818.9844                   21535818.3714
 -23890887.89147 -18594608.43745  22699401.1414                   22699402.6054
 -31659053.62947 -24646691.09445  22249827.0394                   22249825.2274
 -31089680.70748 -24202976.43046  20945804.7814                   20945803.6764
 -13745580.17647 -10690225.15245  22622483.5864                   22622484.8754
 -22601139.10248 -17588835.04746  21985230.2274                   21985232.1134
 -14398265.05147 -11201812.35545  22554127.4224                   22554128.9224
   -694377.89146   -535529.17243  24944820.0314                   24944823.6954
 11  9 23  0 34 30.0000000  0  9G15G29G12G02G05G30G25G26G21
  -7244061.57447  -5624070.94945  23381277.8914                   23381280.6414
 -21022602.21548 -16365559.23846  21517326.3444                   21517325.7974
 -23829627.23447 -18546872.91045  22711058.7034                   22711060.3984
 -31639587.84448 -24631522.95345  22253530.9534                   22253529.1884
 -31061520.93748 -24181033.73446  20951163.5864                   20951162.4884
 -13763294.81647 -10704028.77345  22619112.4774                   22619113.2704
 -22582808.80948 -17574551.73046  21988718.0164                   21988721.0274
 -14507551.35947 -11286970.37545  22533331.4844                   22533332.6374
   -779966.79346   -602221.63343  24928533.7664                   24928535.0474
 11  9 23  0 35  0.0000000  0  9G15G29G12G02G05G30G25G26G21
  -7367834.18447  -5720516.89544  23357724.8444                   23357727.1094
 -21119524.42248 -16441082.96146  21498882.6484                   21498881.5274
 -23768151.14147 -18498969.50045  22722757.7344                   22722758.3484
 -31620009.71548 -24616267.27045  22257256.4924                   22257254.7894
 -31032970.07448 -24158786.29746  20956596.6724                   20956595.4804
 -13780438.83247 -10717387.73045  22615850.1884                   22615851.0354
 -22564006.39148 -17559900.52746  21992296.0704                   21992298.1954
 -14616497.89147 -11371863.63345  22512599.0234                   22512600.3554
   -865549.66846   -668909.34043  24912246.3594                   24912249.1454
 11  9 23  0 35 30.0000000  0  9G15G29G12G02G05G30G25G26G21
  -7491521.52747  -5816896.40644  23334187.9064                   23334190.1764
 -21216188.72348 -16516405.72746  21480487.8594                   21480487.9064
 -23706464.08647 -18450901.72745  22734496.3834                   22734497.1024
 -31600320.19148 -24600924.77345  22261003.6804                   22261001.6604
 -31004031.84048 -24136237.00446  20962103.3204                   20962102.5784
 -13797014.37547 -10730303.72745  22612695.8134                   22612696.7974
 -22544735.30148 -17544884.12546  21995963.3524                   21995966.0354
 -14725101.93747 -11456490.03545  22491932.5784                   22491933.4454
   -951127.87946   -735593.48443  24895961.2504                   24895964.4494
 11  9 23  0 36  0.0000000  0  9G15G29G12G02G05G30G25G26G21
  -7615121.95347  -5913208.18745  23310666.6334                   23310669.9264
 -21312594.94948 -16591527.37946  21462142.4224                   21462141.7774
 -23644571.04347 -18402673.43445  22746274.0784                   22746275.4024
 -31580521.13748 -24585496.93445  22264771.5864                   22264769.2074
 -30974710.48048 -24113389.18046  20967683.0084                   20967681.9654
 -13813024.86347 -10742779.43045  22609648.9064                   22609650.5164
 -22524999.87148 -17529505.91846  21999719.0864                   21999721.3594
 -14833362.13347 -11540848.47745  22471330.6334                   22471332.1374
  -1036704.04346   -802276.00443  24879677.1954                   24879679.8244
 11  9 23  0 36 30.0000000  0  9G15G29G12G02G05G30G25G26G21
  -7738633.10547  -6009450.40644  23287163.3204                   23287166.0664
 -21408741.11748 -16666446.39546  21443846.0944                   21443845.5984
 -23582475.05147 -18354286.99645  22758090.6094                   22758092.0664
 -31560612.25448 -24569983.50445  22268560.0944                   22268557.4964
 -30945008.48448 -24090244.75446  20973334.8524                   20973333.9694
 -13828471.56647 -10754815.80545  22606709.6484                   22606710.8014
 -22504802.58648 -17513767.80146  22003562.6254                   22003564.8444
 -14941274.98047 -11624936.27345  22450796.1174                   22450796.7774
  -1122278.93446   -868957.51243  24863392.2664                   24863395.0044
 11  9 23  0 37  0.0000000  0  9G15G29G12G02G05G30G25G26G21
  -7862051.14547  -6105620.07044  23263678.3364                   23263679.8914
 -21504624.07048 -16741160.31246  21425600.2974                   21425599.8484
 -23520178.52747 -18305744.28945  22769944.6414                   22769946.2344
 -31540592.45348 -24554383.63745  22272369.3364                   22272367.3014
 -30914927.27348 -24066804.83246  20979059.6254                   20979058.5664
 -13843354.86747 -10766413.16445  22603877.3284                   22603878.5044
 -22484144.98848 -17497670.99246  22007493.3524                   22007495.9024
 -15048835.63347 -11708749.64545  22430327.5234                   22430328.4614
  -1207851.88346   -935637.53143  24847108.4064                   24847110.6174
 11  9 23  0 37 30.0000000  0  9G15G29G12G02G05G30G25G26G21
  -7985371.41847  -6201713.54345  23240210.4144                   23240212.8834
 -21600239.56248 -16815665.82446  21407405.2424                   21407405.1334
 -23457682.80547 -18257046.36345  22781837.8364                   22781838.9064
 -31520459.83648 -24538695.87145  22276200.5554                   22276198.6724
 -30884467.27748 -24043069.75846  20984855.5234                   20984854.6054
 -13857674.67647 -10777571.44945  22601152.6414                   22601153.8324
 -22463027.97348 -17481216.19546  22011511.3834                   22011514.0984
 -15156039.32447 -11792284.84845  22409927.2424                   22409928.1174
  -1293422.09846  -1002315.37543  24830824.3754                   24830826.8914
 11  9 23  0 38  0.0000000  0  9G15G29G12G02G05G30G25G26G21
  -8108591.81647  -6297729.18744  23216762.0784                   23216764.1644
 -21695586.00448 -16889961.66846  21389261.2504                   21389260.4414
 -23394991.80147 -18208196.27045  22793767.4534                   22793768.7194
 -31500215.34048 -24522920.92245  22280052.9844                   22280051.4144
 -30853632.70748 -24019042.80946  20990723.1724                   20990722.2464
 -13871433.16047 -10788292.34845  22598534.0234                   22598535.8954
 -22441454.84848 -17464406.00846  22015616.9144                   22015620.2894
 -15262883.12147 -11875539.64145  22389595.5634                   22389596.5084
  -1378990.79346  -1068992.04343  24814541.5004                   24814544.6564
 11  9 23  0 38 30.0000000  0  9G15G29G12G02G05G30G25G26G21
  -8231709.50047  -6393664.80944  23193333.4064                   23193335.2624
 -21790662.02048 -16964046.82046  21371168.9224                   21371168.7344
 -23332109.32047 -18159196.97745  22805733.6724                   22805734.7114
 -31479858.87547 -24507058.73445  22283926.7894                   22283924.5864
 -30822426.02348 -23994725.90246  20996661.6334                   20996660.5044
 -13884632.08247 -10798577.20745  22596022.7734                   22596023.9494
 -22419428.46148 -17447242.61346  22019808.7504                   22019811.3324
 -15369363.81647 -11958511.46145  22369332.8134                   22369333.2074
  -1464559.08246  -1135668.42243  24798257.7274                   24798260.6054
 11  9 23  0 39  0.0000000  0  9G15G29G12G02G05G30G25G26G21
  -8354722.39546  -6489518.77344  23169924.2504                   23169927.0004
 -21885465.93448 -17037919.94146  21353128.2814                   21353127.4804
 -23269039.29747 -18110051.53545  22817735.0314                   22817737.2774
 -31459391.26647 -24491109.92645  22287821.3834                   22287819.5634
 -30790850.72347 -23970121.75046  21002670.4454                   21002669.4184
 -13897273.82447 -10808427.88745  22593616.7034                   22593617.8914
 -22396952.27048 -17429728.71946  22024085.5704                   22024088.4304
 -15475478.84847 -12041198.36745  22349139.8984                   22349140.4804
  -1550128.48446  -1202345.68743  24781974.0784                   24781976.7154
 11  9 23  0 39 30.0000000  0  9G15G29G12G02G05G30G25G26G21
  -8477628.16047  -6585289.25445  23146536.0314                   23146538.5204
 -21979996.14548 -17111579.77746  21335139.5784                   21335139.1414
 -23205785.31647 -18060762.75445  22829772.1094                   22829773.7464
 -31438812.91047 -24475074.82445  22291737.2664                   22291735.5784
 -30758909.39847 -23945232.39546  21008748.4064                   21008747.4614
 -13909360.28947 -10817845.91845  22591316.8914                   22591318.0744
 -22374029.40648 -17411866.77346  22028448.0784                   22028450.7504
 -15581225.27347 -12123598.03145  22329016.6954                   22329017.1524
  -1635699.64546  -1269024.30943  24765690.9224                   24765693.4304
 11  9 23  0 40  0.0000000  0  9G15G29G12G02G05G30G25G26G21
  -8600420.97347  -6680971.72745  23123169.4304                   23123171.2114
 -22074247.47348 -17185022.32046  21317203.8984                   21317203.7114
 -23142347.77047 -18011330.94145  22841844.3834                   22841845.5744
 -31418120.85947 -24458951.13345  22295674.3054                   22295672.7074
 -30726602.10248 -23920057.86346  21014896.3134                   21014895.3014
 -13920890.29747 -10826830.32045  22589122.9144                   22589124.0784
 -22350659.58248 -17393656.55546  22032895.2894                   22032896.7774
 -15686596.76247 -12205705.54745  22308964.6724                   22308965.5904
  -1721270.55146  -1335702.75843  24749407.0554                   24749409.2544
 11  9 23  0 40 30.0000000  0  9G15G29G12G02G05G30G25G26G21
  -8723098.26647  -6776564.18045  23099824.4534                   23099826.9414
 -22168217.98448 -17258246.03946  21299322.1724                   21299321.4574
 -23078730.25047 -17961758.85945  22853950.5004                   22853951.0274
 -31397315.38747 -24442739.05945  22299633.8284                   22299632.2344
 -30693931.34448 -23894600.10946  21021113.3364                   21021112.4064
 -13931865.56647 -10835382.46545  22587034.0864                   22587035.7664
 -22326845.63748 -17375100.24646  22037426.4224                   22037429.9064
 -15791589.81647 -12287518.19145  22288985.6884                   22288985.9924
  -1806842.07446  -1402381.67243  24733123.3914                   24733124.7934
 11  9 23  0 41  0.0000000  0  9G15G29G12G02G05G30G25G26G21
  -8845656.98047  -6872064.23045  23076502.5394                   23076503.6954
 -22261905.48848 -17331249.23446  21281493.8524                   21281493.5434
 -23014935.90247 -17912049.02045  22866089.7974                   22866091.3484
 -31376395.80547 -24426438.08645  22303614.5944                   22303612.9304
 -30660899.77347 -23868861.21146  21027398.8204                   21027398.1374
 -13942287.83247 -10843503.69945  22585051.1334                   22585051.8554
 -22302590.25848 -17356199.97746  22042042.3524                   22042044.2734
 -15896201.36347 -12369033.54745  22269078.2424                   22269079.2664
  -1892414.72346  -1469061.44543  24716839.2194                   24716841.7894
 11  9 23  0 41 30.0000000  0  9G15G29G12G02G05G30G25G26G21
  -8968094.97747  -6967470.23845  23053202.7034                   23053204.4574
 -22355308.45347 -17404030.70746  21263720.1254                   21263719.7814
 -22950968.75047 -17862204.50845  22878262.5704                   22878263.3754
 -31355362.98447 -24410048.87145  22307617.1254                   22307615.3524
 -30627510.69148 -23842843.71946  21033752.4064                   21033751.4774
 -13952159.39847 -10851195.81245  22583172.2664                   22583173.6644
 -22277896.95347 -17336958.44946  22046741.1484                   22046744.0274
 -16000428.45347 -12450249.33245  22249244.5554                   22249245.3444
  -1977989.79746  -1535743.21543  24700554.9774                   24700557.2814
 11  9 23  0 42  0.0000000  0  9G15G29G12G02G05G30G25G26G21
  -9090407.66447  -7062778.57845  23029927.4694                   23029928.9884
 -22448423.01247 -17476587.44946  21246000.8594                   21245999.9344
 -22886830.20747 -17812226.46545  22890467.5084                   22890469.1604
 -31334215.26647 -24393570.13345  22311641.6804                   22311639.5744
 -30593764.94948 -23816548.31246  21040174.3984                   21040173.6024
 -13961480.19547 -10858458.75045  22581398.7504                   22581399.7544
 -22252766.55547 -17317376.36346  22051523.5864                   22051525.8524
 -16104266.15247 -12531161.70745  22229484.5004                   22229485.7424
  -2063566.32046  -1602426.07843  24684270.6094                   24684271.2704
 11  9 23  0 42 30.0000000  0 10G15G29G12G02G05G30G18G25G26G21
  -9212594.20747  -7157988.65245  23006675.9224                   23006677.9224
 -22541249.07847 -17548919.39546  21228336.5554                   21228335.7774
 -22822525.81247 -17762119.17645  22902704.4304                   22902704.9574
 -31312954.21147 -24377003.07845  22315687.3444                   22315685.4414
 -30559667.40248 -23789978.78146  21046662.8524                   21046661.9414
 -13970254.19147 -10865295.62545  22579729.2734                   22579730.0664
   1402981.39156   1104039.96153  24629425.5784                   24629431.0124
 -22227204.14847 -17297457.60546  22056387.9454                   22056389.7584
 -16207712.97747 -12611769.48445  22209799.2114                   22209800.3134
  -2149147.11746  -1669112.34443  24667984.9844                   24667986.0904
 11  9 23  0 43  0.0000000  0 10G15G29G12G02G05G30G18G25G26G21
  -9334655.63347  -7253101.21945  22983448.4454                   22983449.8054
 -22633788.87547 -17621028.28146  21210726.9774                   21210726.5354
 -22758063.03947 -17711888.48845  22914971.1484                   22914971.7424
 -31291584.21947 -24360351.13345  22319753.9614                   22319752.3524
 -30525224.62947 -23763140.22746  21053217.4064                   21053216.0274
 -13978487.25047 -10871710.97745  22578162.0314                   22578163.3754
   1285773.64546   1012709.65643  24607121.3204                   24607126.5474
 -22201216.44948 -17277207.50046  22061333.5314                   22061336.7624
 -16310769.84847 -12692073.41445  22190187.9844                   22190188.9024
  -2234736.87946  -1735805.52343  24651697.2274                   24651698.4414
 11  9 23  0 43 30.0000000  0 10G15G29G12G02G05G30G18G25G26G21
  -9456592.56247  -7348116.78145  22960244.5474                   22960245.8244
 -22726043.21148 -17692914.69946  21193171.3204                   21193170.8094
 -22693448.34047 -17661539.41045  22927266.6644                   22927268.1024
 -31270108.45347 -24343616.76245  22323840.5314                   22323839.1454
 -30490442.65248 -23736037.37146  21059835.7894                   21059834.7584
 -13986184.41047 -10877708.74245  22576697.7664                   22576698.4224
   1168726.53146    921504.55142  24584847.4844                   24584852.8794
 -22174809.63747 -17256630.77046  22066358.1094                   22066359.6604
 -16413436.81247 -12772073.53145  22170650.9924                   22170652.1024
  -2320339.57846  -1802508.81243  24635408.0634                   24635409.3594
 11  9 23  0 44  0.0000000  0 10G15G29G12G02G05G30G18G25G26G21
  -9578402.91047  -7443033.72345  22937064.4534                   22937065.5944
 -22818010.60247 -17764577.54746  21175670.2584                   21175670.0634
 -22628685.20747 -17611074.68045  22939590.5784                   22939591.6644
 -31248527.27347 -24326800.25445  22327947.4614                   22327945.9224
 -30455324.63348 -23708672.66046  21066518.6414                   21066517.7194
 -13993348.02747 -10883290.76245  22575334.5234                   22575335.7344
   1051841.32846    830425.60542  24562604.6884                   24562609.9734
 -22147986.93447 -17235729.97346  22071462.8364                   22071465.1804
 -16515710.85247 -12851767.45745  22151189.0234                   22151189.7304
  -2405956.40246  -1869223.12143  24619114.8594                   24619117.0864
 11  9 23  0 44 30.0000000  0 10G15G29G12G02G05G30G18G25G26G21
  -9700079.32046  -7537846.28945  22913909.7584                   22913910.7424
 -22909684.73448 -17836011.87946  21158225.6254                   21158225.1174
 -22563772.48447 -17560493.37945  22951943.0944                   22951944.5204
 -31226836.56247 -24309898.38745  22332075.1174                   22332073.1954
 -30419868.88348 -23681044.79346  21073265.6954                   21073264.6254
 -13999975.69947 -10888455.17645  22574073.3204                   22574074.4734
    935122.89145    739476.62543  24540393.6884                   24540397.5704
 -22120747.03147 -17214504.10246  22076645.7734                   22076648.8634
 -16617584.35248 -12931149.29345  22131802.8444                   22131803.8484
  -2491583.78546  -1935945.65643  24602820.7584                   24602822.0004
 11  9 23  0 45  0.0000000  0 10G15G29G12G02G05G30G18G25G26G21
  -9821617.39147  -7632551.07045  22890782.0004                   22890782.7384
 -23001061.80148 -17907214.73046  21140836.9694                   21140836.3554
 -22498712.71947 -17509797.51645  22964324.4144                   22964325.6254
 -31205034.33247 -24292909.62945  22336223.6254                   22336222.0514
 -30384076.29748 -23653154.45346  21080076.7114                   21080075.5744
 -14006067.73447 -10893202.18445  22572913.9064                   22572914.8984
    818574.41445    648660.10942  24518214.6024                   24518218.4574
 -22093091.14547 -17192954.08246  22081908.8524                   22081910.9924
 -16719052.46147 -13010215.24245  22112494.4614                   22112494.8954
  -2577220.91446  -2002675.80143  24586523.7974                   24586525.9304
 11  9 23  0 45 30.0000000  0 10G15G29G12G02G05G30G18G25G26G21
  -9943012.23847  -7727144.24645  22867680.5394                   22867682.0164
 -23092138.02748 -17978183.14546  21123505.5234                   21123504.9024
 -22433507.34447 -17458988.18445  22976731.8834                   22976733.9804
 -31183118.96147 -24275832.70345  22340394.6644                   22340391.9694
 -30347948.17248 -23625002.65246  21086951.3914                   21086950.6564
 -14011624.27347 -10897531.92645  22571856.8204                   22571857.3794
    702198.04345    557977.65242  24496068.0864                   24496073.3554
 -22065020.46947 -17171080.86746  22087250.4534                   22087253.7304
 -16820110.35947 -13088961.54345  22093263.6644                   22093263.6844
  -2662866.28946  -2069412.36344  24570226.5234                   24570228.2734
 11  9 23  0 46  0.0000000  0 10G15G29G12G02G05G30G18G25G26G21
 -10064261.51647  -7821624.00045  22844608.5234                   22844608.6484
 -23182911.52748 -18048915.69146  21106231.7504                   21106231.0744
 -22368159.77347 -17408068.06645  22989167.5314                   22989168.5664
 -31161090.58647 -24258667.71945  22344585.9844                   22344583.8324
 -30311487.23048 -23596591.52346  21093889.7274                   21093888.7544
 -14016647.67247 -10901446.23845  22570900.7584                   22570901.4694
    585994.61745    467430.06343  24473955.2734                   24473960.7584
 -22036538.14847 -17148886.86346  22092670.2974                   22092672.4884
 -16920754.91047 -13167385.75845  22074111.3914                   22074111.6254
  -2748521.03146  -2136156.22343  24553927.0394                   24553929.0394
 11  9 23  0 46 30.0000000  0 10G15G29G12G02G05G30G18G25G26G21
 -10185359.46547  -7915985.85545  22821563.5004                   22821564.2774
 -23273377.02048 -18119408.20746  21089016.6254                   21089016.1334
 -22302670.17247 -17357037.27345  23001629.7974                   23001631.1524
 -31138945.98847 -24241412.16045  22348799.8914                   22348798.0274
 -30274693.33648 -23567920.94546  21100891.4614                   21100890.1294
 -14021136.85947 -10904944.30145  22570046.2814                   22570047.2664
    469968.03146    377020.16843  24451875.7344                   24451880.7774
 -22007644.20348 -17126372.12946  22098169.0084                   22098171.8554
 -17020979.99247 -13245483.12145  22055039.1484                   22055039.8444
  -2834183.12946  -2202905.81643  24537625.4924                   24537627.9964
 11  9 23  0 47  0.0000000  0 10G15G29G12G02G05G30G18G25G26G21
 -10306305.05947  -8010228.98845  22798548.1644                   22798548.7344
 -23363534.42648 -18189660.66446  21071860.5944                   21071859.8984
 -22237043.77047 -17305899.86745  23014117.6414                   23014119.5554
 -31116687.16447 -24224067.59445  22353035.4144                   22353033.4224
 -30237570.82848 -23538994.30946  21107955.5704                   21107954.5514
 -14025095.66447 -10908029.05545  22569292.8834                   22569294.6914
    354118.10246    286747.94543  24429829.5634                   24429834.7464
 -21978343.27748 -17103540.28146  22103744.9614                   22103747.5044
 -17120784.05947 -13323252.41445  22036046.9844                   22036047.5864
  -2919854.52346  -2269662.63344  24521322.6414                   24521325.4454
 11  9 23  0 47 30.0000000  0 10G15G29G12G02G05G30G18G25G26G21
 -10427093.19147  -8104349.43445  22775562.8364                   22775563.8444
 -23453379.61348 -18259669.83246  21054763.3204                   21054762.9774
 -22171281.94147 -17254656.94145  23026632.4534                   23026633.6764
 -31094312.02747 -24206632.39545  22357293.4064                   22357291.4304
 -30200120.38348 -23509812.14146  21115082.4614                   21115081.1174
 -14028524.13347 -10910700.55945  22568641.0084                   22568641.3364
    238447.18046    196615.18043  24407817.9224                   24407823.3244
 -21948636.46548 -17080392.10946  22109397.7664                   22109400.3674
 -17220162.03147 -13400689.69145  22017135.8914                   22017136.7114
  -3005534.41446  -2336426.07843  24505018.9454                   24505019.9304
 11  9 23  0 48  0.0000000  0 10G15G29G12G02G05G30G18G25G26G21
 -10547719.93747  -8198344.12545  22752608.1174                   22752609.1844
 -23542909.39548 -18329433.21146  21037726.3594                   21037725.6954
 -22105386.60247 -17203309.97745  23039172.0944                   23039173.5164
 -31071819.41847 -24189105.66845  22361573.5084                   22361571.8284
 -30162343.58648 -23480375.67246  21122271.0634                   21122270.0204
 -14031423.11747 -10912959.49245  22568088.7814                   22568090.1414
    122957.61346    106623.73443  24385840.6564                   24385845.6214
 -21918525.37548 -17056928.96146  22115127.9064                   22115130.8094
 -17319109.28547 -13477791.35245  21998306.6954                   21998307.3014
  -3091222.35246  -2403195.75043  24488712.2734                   24488713.3794
 11  9 23  0 48 30.0000000  0 10G15G29G12G02G05G30G18G25G26G21
 -10668184.41447  -8292212.37545  22729684.3134                   22729685.2194
 -23632123.28148 -18398950.44546  21020749.4384                   21020748.8634
 -22039363.20347 -17151863.21945  23051735.6884                   23051737.6994
 -31049210.93747 -24171488.63745  22365876.0864                   22365873.8834
 -30124245.02348 -23450688.48046  21129521.0394                   21129519.7854
 -14033796.48047 -10914808.85245  22567636.9454                   22567638.8954
      7648.78946     16773.13743  24363898.6414                   24363902.3014
 -21888014.82447 -17033154.53546  22120933.7344                   22120936.0744
 -17417624.79747 -13554556.59445  21979560.1094                   21979560.2504
  -3176920.28946  -2469973.17643  24472405.1254                   24472405.9144
 11  9 23  0 49  0.0000000  0 10G15G29G12G02G05G30G18G25G26G21
 -10788482.72746  -8385951.14545  22706792.1254                   22706793.6954
 -23721018.11348 -18468219.06246  21003833.4534                   21003832.9534
 -21973213.68047 -17100318.19945  23064323.8054                   23064325.2154
 -31026485.45347 -24153780.44945  22370200.1254                   22370198.6764
 -30085826.39848 -23420751.88746  21136831.8984                   21136830.5984
 -14035645.23447 -10916249.43745  22567285.7664                   22567286.7384
   -107477.27046    -72935.08243  24341990.5864                   24341994.4884
 -21857106.81247 -17009070.39146  22126815.3134                   22126818.3444
 -17515703.73447 -13630981.63345  21960895.6804                   21960896.2504
  -3262628.29346  -2536758.44143  24456094.6094                   24456096.4494
 11  9 23  0 49 30.0000000  0 10G15G29G12G02G05G30G18G25G26G21
 -10908608.72347  -8479555.65245  22683933.1414                   22683934.1524
 -23809588.98848 -18537235.25446  20986978.5864                   20986978.1484
 -21906938.68447 -17048675.38345  23076935.5784                   23076937.0124
 -31003639.84447 -24135978.66045  22374547.7344                   22374545.7074
 -30047087.09848 -23390565.41846  21144203.4924                   21144202.4654
 -14036968.60547 -10917280.65245  22567033.4064                   22567034.5124
   -222416.98446   -162498.08243  24320118.0784                   24320120.8674
 -21825801.33247 -16984676.54346  22132772.5784                   22132775.1994
 -17613340.37947 -13707062.04745  21942316.5234                   21942316.2384
  -3348343.94546  -2603549.64543  24439783.5944                   24439785.5514
 11  9 23  0 50  0.0000000  0 10G15G29G12G02G05G30G18G25G26G21
 -11028561.81647  -8573025.41845  22661106.5164                   22661107.6484
 -23897835.93748 -18605999.02346  20970185.7274                   20970185.0704
 -21840543.26647 -16996938.75445  23089569.4844                   23089571.3754
 -30980676.25447 -24118084.94545  22378917.5704                   22378915.6094
 -30008031.80548 -23360132.72346  21151636.0474                   21151634.8364
 -14037770.83247 -10917905.75845  22566880.8134                   22566882.1174
   -337171.30946   -251916.62143  24298280.5084                   24298284.8364
 -21794103.53947 -16959976.98046  22138804.7194                   22138807.0124
 -17710533.63347 -13782796.94145  21923821.0634                   21923821.0084
  -3434070.03146  -2670348.97743  24423470.3674                   24423471.3444
 11  9 23  0 50 30.0000000  0 10G15G29G12G02G05G30G18G25G26G21
 -11148338.87547  -8666358.04745  22638313.3364                   22638314.0554
 -23985756.54748 -18674508.50846  20953455.2274                   20953454.2114
 -21774031.07447 -16945111.10544  23102226.7504                   23102227.5394
 -30957594.32847 -24100099.01645  22383310.1334                   22383308.2274
 -29968663.49248 -23329456.10946  21159127.0634                   21159125.8444
 -14038053.85247 -10918126.30545  22566827.0164                   22566828.3714
   -451738.89146   -341189.68043  24276478.8284                   24276482.3134
 -21762016.25047 -16934973.92246  22144910.3134                   22144913.5594
 -17807280.06647 -13858183.68745  21905410.5864                   21905410.8284
  -3519806.71946  -2737156.57043  24407155.1414                   24407156.4104
 11  9 23  0 51  0.0000000  0 10G15G29G12G02G05G30G18G25G26G21
 -11267935.27047  -8759549.87145  22615554.8054                   22615555.7544
 -24073346.84448 -18742760.60246  20936787.2274                   20936786.4964
 -21707403.22747 -16893193.34844  23114905.6484                   23114906.7234
 -30934391.91047 -24082019.18745  22387725.2734                   22387723.3674
 -29928982.76248 -23298536.05546  21166678.0704                   21166676.8524
 -14037817.93047 -10917942.49645  22566871.8594                   22566872.5394
   -566117.16046   -430315.20343  24254712.3754                   24254716.3754
 -21729540.59447 -16909668.23845  22151090.5474                   22151093.3914
 -17903574.71147 -13933218.37545  21887086.1254                   21887086.0944
  -3605553.03146  -2803971.63344  24390837.8524                   24390839.9654
 11  9 23  0 51 30.0000000  0 10G15G29G12G02G05G30G18G25G26G21
 -11387349.53547  -8852599.77045  22592830.7894                   22592832.0554
 -24160605.90648 -18810754.59046  20920182.0704                   20920181.3914
 -21640663.74647 -16841188.59844  23127605.7504                   23127607.2154
 -30911070.34047 -24063846.53145  22392162.9144                   22392161.0004
 -29888993.45748 -23267375.54346  21174287.8834                   21174286.8324
 -14037066.43047 -10917356.92645  22567015.0164                   22567015.6804
   -680305.95746   -519293.10543  24232982.6414                   24232986.2234
 -21696680.73847 -16884063.16845  22157343.4384                   22157345.9304
 -17999415.52347 -14007899.44945  21868848.5634                   21868848.4534
  -3691310.85246  -2870795.68443  24374519.4144                   24374519.4414
 11  9 23  0 52  0.0000000  0 10G15G29G12G02G05G30G18G25G26G21
 -11506577.03147  -8945504.16045  22570142.2584                   22570143.4694
 -24247530.23048 -18878487.75046  20903641.1414                   20903640.2154
 -21573815.32047 -16789098.98444  23140327.0864                   23140327.9534
 -30887628.21547 -24045579.93045  22396624.0004                   22396622.1724
 -29848696.88348 -23235975.59846  21181956.2034                   21181954.9184
 -14035800.31247 -10916370.35945  22567256.1954                   22567257.2344
   -794303.21146   -608121.77743  24211290.0164                   24211293.9144
 -21663438.49247 -16858160.13746  22163668.8444                   22163672.6214
 -18094797.95747 -14082223.32845  21850697.0784                   21850697.6524
  -3777079.41446  -2937628.10243  24358197.2974                   24358198.4844
 11  9 23  0 52 30.0000000  0 10G15G29G12G02G05G30G18G25G26G21
 -11625616.68047  -9038262.16845  22547490.1024                   22547491.1884
 -24334119.65248 -18945959.94546  20887163.5234                   20887162.6484
 -21506862.45747 -16736927.94545  23153067.4924                   23153069.7464
 -30864067.23447 -24027220.73045  22401107.3674                   22401105.5204
 -29808097.48048 -23204339.69146  21189681.8984                   21189680.4654
 -14034023.46547 -10914985.82045  22567594.1804                   22567595.2304
   -908110.04346   -696802.06243  24189632.7344                   24189636.6994
 -21629818.55147 -16831962.79346  22170066.5554                   22170069.5164
 -18189720.64847 -14156188.97745  21832634.3524                   21832634.4924
  -3862861.15246  -3004470.80543  24341873.4144                   24341874.6844
 11  9 23  0 53  0.0000000  0 10G15G29G12G02G05G30G18G25G26G21
 -11744463.21547  -9130869.69945  22524874.0634                   22524875.1294
 -24420369.50447 -19013167.54346  20870750.5474                   20870749.8524
 -21439806.40647 -16684676.51644  23165827.7194                   23165829.5204
 -30840384.53947 -24008766.66445  22405614.1884                   22405612.0044
 -29767195.71148 -23172468.16446  21197465.1334                   21197463.9454
 -14031735.55546 -10913203.07445  22568029.9454                   22568030.3674
  -1021722.73846   -785331.03943  24168012.8204                   24168016.3754
 -21595821.52347 -16805471.60546  22176536.2344                   22176538.9064
 -18284178.09447 -14229792.07845  21814659.4384                   21814660.0204
  -3948654.12146  -3071322.24243  24325547.0944                   24325548.3204
 11  9 23  0 53 30.0000000  0 10G15G29G12G02G05G30G18G25G26G21
 -11863112.05547  -9223323.18045  22502296.0864                   22502296.7624
 -24506276.07047 -19080107.64546  20854403.1414                   20854402.0204
 -21372648.45747 -16632345.69144  23178607.4614                   23178609.3284
 -30816578.59047 -23990216.58245  22410144.1724                   22410142.1484
 -29725992.35948 -23140361.63746  21205305.8134                   21205304.4924
 -14028937.55947 -10911022.84444  22568561.7424                   22568562.7774
  -1135138.97746   -873706.97743  24146429.8674                   24146432.9964
 -21561449.01647 -16778687.84446  22183077.1804                   22183079.8244
 -18378165.50047 -14303028.92645  21796774.4454                   21796774.5354
  -4034457.53146  -3138181.83643  24309218.5164                   24309220.2734
 11  9 23  0 54  0.0000000  0 10G15G29G12G02G05G30G18G25G26G21
 -10406140.59447  -8088020.57445  22779548.1174                   22779549.2734
 -23016418.18747 -17919179.36746  21137913.9614                   21137912.4804
 -19729977.91047 -15352342.72744  23491197.3754                   23491199.3164
 -29217233.70347 -22743973.80545  22714489.5474                   22714487.5554
 -28109075.37148 -21880426.30546  21512994.7734                   21512993.5514
 -12450215.50446  -9680849.83245  22868982.7814                   22868984.0274
    327062.21946    265670.91843  24424677.9844                   24424680.7274
 -19951288.88747 -15524017.62146  22489480.5004                   22489482.9414
 -16896260.49248 -13148297.66045  22078771.5704                   22078771.7934
  -2544852.64546  -1977450.58643  24592681.5864                   24592683.3404
 11  9 23  0 54 30.0000000  0 10G15G29G12G02G05G30G18G25G26G21
 -10524390.46547  -8180163.18045  22757046.1484                   22757046.8834
 -23101636.35948 -17985583.06246  21121697.1414                   21121696.6024
 -19662630.79747 -15299864.48845  23504013.5864                   23504014.7854
 -29193185.13747 -22725234.66445  22719065.4384                   22719063.5634
 -28067281.16848 -21847859.36746  21520947.9224                   21520946.7074
 -12446408.39846  -9677883.27745  22869707.5164                   22869708.2154
    214037.17246    177599.79342  24403168.6414                   24403172.5824
 -19916178.96547 -15496659.23446  22496161.6644                   22496164.6954
 -16989303.09048 -13220798.29345  22061065.8984                   22061066.0704
  -2630682.97746  -2044331.14843  24576348.0164                   24576349.3404
 11  9 23  0 55  0.0000000  0 10G15G29G12G02G05G30G18G25G26G21
 -10642435.88747  -8272146.46145  22734582.4694                   22734583.2114
 -23186506.99248 -18051715.95346  21105546.6024                   21105545.9734
 -19595193.45347 -15247315.96945  23516846.1174                   23516847.8984
 -29169014.89147 -22706400.69945  22723665.1724                   22723663.0084
 -28025195.71948 -21815065.49246  21528956.5554                   21528955.1334
 -12442099.80946  -9674525.96545  22870527.6024                   22870529.1374
    101209.83646     89682.70743  24381698.7114                   24381701.3874
 -19880704.53947 -15469016.84046  22502912.4694                   22502915.4774
 -17081868.37547 -13292927.00045  22043451.5234                   22043451.3714
  -2716527.27046  -2111222.66443  24560011.9534                   24560013.5394
 11  9 23  0 55 30.0000000  0 10G15G29G12G02G05G30G18G25G26G21
 -10760273.71147  -8363967.98845  22712158.3054                   22712159.3134
 -23271027.31248 -18117575.87146  21089462.8674                   21089461.8094
 -19527669.08647 -15194699.62945  23529695.3284                   23529697.2664
 -29144722.35947 -22687471.46545  22728288.0704                   22728285.6564
 -27982821.13748 -21782046.32046  21537020.3754                   21537018.9184
 -12437291.82047  -9670779.51644  22871441.8364                   22871443.4184
    -11418.49246      1920.63343  24360266.1644                   24360268.2934
 -19844868.52047 -15441092.66445  22509731.1094                   22509734.8014
 -17173952.99648 -13364681.15245  22025927.6804                   22025927.7974
  -2802385.99246  -2178125.38743  24543674.7664                   24543674.9614
 11  9 23  0 56  0.0000000  0 10G15G29G12G02G05G30G18G25G26G21
 -10877898.88347  -8455623.80145  22689775.0394                   22689775.6214
 -23355193.33648 -18183159.72746  21073446.5314                   21073445.8834
 -19460058.27746 -15142015.93445  23542561.8054                   23542563.6564
 -29120305.21947 -22668445.11745  22732934.5164                   22732932.0354
 -27940157.70348 -21748802.07046  21545139.0474                   21545137.2814
 -12431984.40246  -9666643.88745  22872452.4694                   22872452.7504
   -123845.47746    -85684.53543  24338871.5234                   24338874.3594
 -19808671.61747 -15412887.28946  22516619.8914                   22516621.8204
 -17265551.51247 -13436056.52745  22008497.7114                   22008497.2344
  -2888257.18046  -2245037.85543  24527332.8984                   24527333.2624
 11  9 23  0 56 30.0000000  0 10G15G29G12G02G05G30G18G25G26G21
 -10995311.47347  -8547113.97345  22667432.1884                   22667432.0944
 -23439005.88748 -18248468.15246  21057497.4534                   21057496.4104
 -19392367.78546 -15089270.15245  23555442.4454                   23555444.1294
 -29095766.34447 -22649323.92645  22737604.0864                   22737601.7544
 -27897211.14148 -21715337.20346  21553311.4144                   21553310.1414
 -12426183.18447  -9662123.46945  22873556.2034                   22873557.2704
   -236072.90246   -173134.19143  24317515.6414                   24317518.0514
 -19772120.24647 -15384405.71945  22523574.9924                   22523578.2774
 -17356664.00848 -13507053.18745  21991159.2734                   21991158.9224
  -2974144.84846  -2311963.15244  24510988.2664                   24510990.1254
 11  9 23  0 57  0.0000000  0 10G15G29G12G02G05G30G18G25G26G21
 -11112507.28147  -8638435.21145  22645130.2894                   22645131.3244
 -23522461.46548 -18313498.41046  21041616.4384                   21041615.2974
 -19324598.65247 -15036463.07445  23568339.0634                   23568340.4344
 -29071104.07847 -22630106.55545  22742296.9534                   22742294.5274
 -27853982.50048 -21681652.53946  21561537.4144                   21561536.3674
 -12419889.11347  -9657219.02345  22874753.6954                   22874755.1094
   -348098.42246   -260426.56243  24296197.3754                   24296200.3204
 -19735216.02347 -15355649.19945  22530598.1094                   22530599.9734
 -17447286.12548 -13577667.73045  21973914.8444                   21973914.5784
  -3060047.73446  -2378900.32444  24494642.4384                   24494642.9964
 11  9 23  0 57 30.0000000  0 10G15G29G12G02G05G30G18G25G26G21
 -11229485.32847  -8729586.77745  22622870.2584                   22622870.3404
 -23605559.62148 -18378250.16446  21025803.0554                   21025802.2344
 -19256756.94147 -14983599.47745  23581248.7344                   23581250.5784
 -29046320.28147 -22610794.48845  22747013.4064                   22747011.5314
 -27810476.48848 -21647751.73846  21569816.6094                   21569815.1134
 -12413106.34847  -9651933.78545  22876044.8284                   22876045.6954
   -459922.85946   -347562.21944  24274918.0554                   24274920.2304
 -19697963.84447 -15326621.54345  22537686.5944                   22537689.6644
 -17537416.53948 -13647899.14145  21956763.1484                   21956762.9224
  -3145968.36746  -2445851.37143  24478292.0554                   24478293.0394
 11  9 23  0 58  0.0000000  0 10G15G29G12G02G05G30G18G25G26G21
 -11346239.81647  -8820564.15645  22600652.7814                   22600652.9774
 -23688295.92248 -18442719.96147  21010059.0634                   21010058.2774
 -19188842.89146 -14930679.47745  23594172.7344                   23594174.2894
 -29021412.17247 -22591385.57045  22751753.1564                   22751751.2114
 -27766693.19948 -21613634.88346  21578147.8914                   21578146.7774
 -12405834.79747  -9646267.64144  22877428.6024                   22877428.9264
   -571543.10946   -434538.77743  24253676.6024                   24253679.5204
 -19660364.38747 -15297323.28145  22544841.2664                   22544844.2034
 -17627049.85947 -13717743.18745  21939706.3444                   21939706.4064
  -3231904.74246  -2512814.68743  24461938.7894                   24461938.5084
 11  9 23  0 58 30.0000000  0 10G15G29G12G02G05G30G18G25G26G21
 -11462768.60547  -8911365.64545  22578477.8984                   22578478.1884
 -23770668.82448 -18506906.59447  20994384.1644                   20994383.0634
 -19120859.94947 -14877705.82045  23607109.3914                   23607111.0204
 -28996380.07447 -22571880.03545  22756516.6644                   22756514.5984
 -27722635.64548 -21579304.31246  21586532.0234                   21586531.0784
 -12398077.41847  -9640222.94945  22878904.2974                   22878905.5944
   -682958.57846   -521355.75843  24232475.2034                   24232477.5824
 -19622421.13347 -15267757.12945  22552062.0004                   22552064.3094
 -17716183.61347 -13787197.96945  21922745.0164                   21922744.8484
  -3317858.04746  -2579791.22743  24445582.2114                   24445583.3554
 11  9 23  0 59  0.0000000  0 10G15G29G12G02G05G30G18G25G26G21
 -11579068.66447  -9001988.92645  22556346.0944                   22556346.5004
 -23852676.10548 -18570808.32046  20978778.8674                   20978777.2704
 -19052811.20746 -14824680.88344  23620058.5474                   23620060.2894
 -28971224.04747 -22552277.92645  22761304.2034                   22761301.8954
 -27678306.19548 -21544761.87146  21594967.5234                   21594966.3714
 -12389836.50447  -9633801.46945  22880472.7194                   22880474.2114
   -794168.09446   -608012.27343  24211312.8984                   24211314.8444
 -19584137.29748 -15237925.59046  22559347.4774                   22559350.3014
 -17804814.50847 -13856260.90645  21905878.6954                   21905878.8634
  -3403828.88746  -2646781.37544  24429222.2114                   24429222.8054
 11  9 23  0 59 30.0000000  0 10G15G29G12G02G05G30G18G25G26G21
 -11695135.59047  -9092430.53545  22534259.2894                   22534259.7934
 -23934314.06648 -18634422.28146  20963243.6884                   20963242.3954
 -18984698.62946 -14771606.17244  23633019.5474                   23633022.3524
 -28945942.19147 -22532577.74645  22766114.5164                   22766112.1094
 -27633706.61348 -21510008.93446  21603454.2894                   21603453.2194
 -12381113.22747  -9627004.12545  22882132.7504                   22882134.2034
   -905169.74646   -694506.78143  24190189.2584                   24190191.0434
 -19545514.48447 -15207829.93445  22566696.5944                   22566699.5784
 -17892938.28547 -13924928.68445  21889109.0234                   21889108.9104
  -3489816.04746  -2713784.26644  24412859.7194                   24412860.9574
 11  9 23  1  0  0.0000000  0 10G15G29G12G02G05G30G18G25G26G21
 -11810968.10247  -9182689.48445  22512217.5864                   22512217.4654
 -24015582.68048 -18697748.42247  20947778.3984                   20947777.8634
 -18916527.60246 -14718485.96544  23645992.3754                   23645994.9344
 -28920535.89547 -22512780.62545  22770948.7424                   22770946.9964
 -27588841.00448 -21475048.70746  21611992.3674                   21611991.1484
 -12371911.62547  -9619834.06245  22883884.0944                   22883885.4104
  -1015964.32046   -780839.98443  24169104.9454                   24169107.5204
 -19506557.71147 -15177474.01245  22574110.2424                   22574112.9614
 -17980553.81247 -13993200.42645  21872436.0784                   21872436.6684
  -3575822.00846  -2780801.82043  24396492.8284                   24396494.1524
 11  9 23  1  0 30.0000000  0 10G15G29G12G02G05G30G18G25G26G21
 -11926564.37947  -9272764.37145  22490219.8134                   22490219.7854
 -24096480.26248 -18760785.45347  20932383.9384                   20932382.9574
 -18848301.80946 -14665323.04744  23658975.3364                   23658977.2624
 -28895006.08647 -22492887.24245  22775806.7974                   22775805.5984
 -27543712.71148 -21439883.78546  21620579.7194                   21620578.2704
 -12362235.27747  -9612294.06245  22885725.1174                   22885726.6604
  -1126551.92246   -867011.90243  24148061.2194                   24148063.7894
 -19467270.92647 -15146861.00445  22581586.3984                   22581589.1644
 -18067658.84047 -14061074.36745  21855860.7664                   21855860.8954
  -3661848.09046  -2847835.03943  24380122.4694                   24380123.0394
 11  9 23  1  1  0.0000000  0 10G15G29G12G02G05G30G18G25G26G21
 -12041919.66847  -9362651.47345  22468268.6724                   22468268.4454
 -24177003.09448 -18823530.47347  20917060.8054                   20917060.2344
 -18780022.31246 -14612118.30144  23671968.8674                   23671970.3054
 -28869350.78947 -22472896.09845  22780688.9614                   22780687.4304
 -27498322.65248 -21404514.90646  21629217.2584                   21629216.0124
 -12352084.75047  -9604384.58644  22887656.0234                   22887658.3914
  -1236929.79746   -953020.36343  24127055.9384                   24127058.2814
 -19427655.53147 -15115991.85245  22589124.8914                   22589127.2584
 -18154248.88347 -14128547.02345  21839383.0704                   21839382.5784
  -3747892.88346  -2914882.84443  24363748.8364                   24363748.9884
 11  9 23  1  1 30.0000000  0 10G15G29G12G02G05G30G18G25G26G21
 -12157031.02347  -9452348.50845  22446363.2274                   22446363.4104
 -24257149.55948 -18885982.21946  20901809.7974                   20901808.5554
 -18711692.68446 -14558874.46944  23684970.9064                   23684973.4304
 -28843570.00047 -22452807.14145  22785594.6644                   22785592.5784
 -27452673.62548 -21368944.22346  21637903.8984                   21637902.5554
 -12341462.87147  -9596107.80545  22889678.1174                   22889679.2774
  -1347097.37546  -1038865.02043  24106091.9144                   24106093.8404
 -19387714.83247 -15084869.28946  22596725.4384                   22596729.1214
 -18240321.15647 -14195616.22745  21823004.1644                   21823004.0004
  -3833957.18446  -2981945.80543  24347371.5944                   24347371.8984
 11  9 23  1  2  0.0000000  0 10G15G29G12G02G05G30G18G25G26G21
 -12271893.09047  -9541851.27345  22424505.5394                   22424505.4804
 -24336914.89148 -18948136.97347  20886630.7814                   20886629.7814
 -18643313.24247 -14505591.80944  23697983.3444                   23697985.3754
 -28817660.80547 -22432618.14145  22790525.5634                   22790523.2664
 -27406765.30148 -21333171.50046  21646639.5634                   21646638.2774
 -12330369.33246  -9587463.50445  22891789.1254                   22891790.1454
  -1457051.09846  -1124543.02043  24085168.7344                   24085171.1174
 -19347449.38347 -15053493.62545  22604387.4304                   22604389.6994
 -18325869.80547 -14262277.41045  21806724.6414                   21806724.1414
  -3920038.72347  -3049022.23444  24330990.5084                   24330991.1254
 11  9 23  1  2 30.0000000  0 10G15G29G12G02G05G30G18G25G26G21
 -12386505.10547  -9631159.22345  22402695.7114                   22402695.1884
 -24416298.76648 -19009994.48447  20871524.7504                   20871523.4104
 -18574889.37947 -14452274.57044  23711003.7114                   23711005.8244
 -28791624.85247 -22412330.36745  22795479.9384                   22795478.5044
 -27360602.22348 -21297200.26646  21655424.3054                   21655423.4734
 -12318808.87147  -9578455.37945  22893989.0474                   22893990.5124
  -1566791.86746  -1210055.09443  24064285.5314                   24064287.9844
 -19306864.30147 -15021868.91845  22612111.0234                   22612113.4924
 -18410894.17647 -14328530.05145  21790544.7974                   21790544.8714
  -4006140.02346  -3116113.95743  24314606.2114                   24314606.5124
 11  9 23  1  3  0.0000000  0 10G15G29G12G02G05G30G18G25G26G21
 -12500863.16047  -9720269.27745  22380933.8834                   22380933.6724
 -24495298.62148 -19071552.76646  20856491.0474                   20856490.2894
 -18506423.63347 -14398924.66844  23724032.9534                   23724034.3954
 -28765461.62147 -22391943.40245  22800459.0004                   22800456.7504
 -27314186.78948 -21261032.39146  21664257.4384                   21664255.5664
 -12306783.36746  -9569084.87945  22896277.2114                   22896278.8914
  -1676318.90646  -1295400.64543  24043443.2034                   24043445.1484
 -19265962.25447 -14989997.21145  22619893.4454                   22619896.7194
 -18495390.85948 -14394371.53145  21774465.4064                   21774465.3594
  -4092261.05146  -3183221.09443  24298217.3524                   24298217.8164
 11  9 23  1  3 30.0000000  0 10G15G29G12G02G05G30G18G25G26G21
 -12614965.66447  -9809180.19945  22359220.8914                   22359220.6564
 -24573913.22348 -19132810.85247  20841531.3524                   20841530.0354
 -18437920.06247 -14345545.27044  23737068.6484                   23737069.5004
 -28739171.89547 -22371457.89145  22805461.2114                   22805458.5274
 -27267522.73448 -21224670.77346  21673137.0634                   21673135.8364
 -12294296.56647  -9559354.92245  22898653.5234                   22898654.2114
  -1785632.35246  -1380579.75443  24022641.2664                   24022643.3134
 -19224747.43447 -14957881.78945  22627737.1484                   22627739.4024
 -18579358.00447 -14459800.37145  21758487.2114                   21758486.9964
  -4178403.23847  -3250344.72344  24281825.6564                   24281825.1884
 11  9 23  1  4  0.0000000  0 10G15G29G12G02G05G30G18G25G26G21
 -12728808.49247  -9897888.78945  22337557.0004                   22337556.9844
 -24652139.65248 -19193766.46146  20826645.3444                   20826643.8134
 -18369380.56247 -14292137.89544  23750111.4774                   23750112.8014
 -28712754.19147 -22350872.66845  22810488.3204                   22810486.4734
 -27220610.75848 -21188116.00046  21682064.2814                   21682062.8634
 -12281349.79747  -9549266.52744  22901116.8134                   22901118.2664
  -1894729.70746  -1465590.48443  24001880.7344                   24001882.5864
 -19183221.95747 -14925524.28945  22635638.9224                   22635642.5984
 -18662791.55147 -14524813.43045  21742610.2194                   21742609.5634
  -4264565.89846  -3317484.28144  24265428.5554                   24265429.2154
 11  9 23  1  4 30.0000000  0 10G15G29G12G02G05G30G18G25G26G21
 -12842389.10547  -9986393.04345  22315943.6024                   22315943.1954
 -24729975.73448 -19254417.90247  20811833.6414                   20811832.7034
 -18300808.53946 -14238705.19544  23763160.0704                   23763161.7114
 -28686208.41847 -22330187.62145  22815540.2664                   22815538.3164
 -27173454.43048 -21151370.80946  21691037.3284                   21691036.4264
 -12267946.00847  -9538822.03545  22903667.8364                   22903668.8914
  -2003610.74246  -1550432.67243  23981161.3524                   23981162.6724
 -19141389.09447 -14892927.29345  22643599.6954                   22643602.5824
 -18745689.00447 -14589408.73845  21726835.0944                   21726834.9024
  -4350749.75446  -3384640.32443  24249028.6094                   24249029.3134
 11  9 23  1  5  0.0000000  0 10G15G29G12G02G05G30G18G25G26G21
 -12955703.57447 -10074689.92645  22294380.1884                   22294380.3444
 -24807419.05948 -19314763.29747  20797096.4614                   20797095.2034
 -18232206.47747 -14185249.02044  23776214.9454                   23776216.3324
 -28659533.71147 -22309402.13345  22820615.9304                   22820613.8794
 -27126055.44548 -21114436.52746  21700057.1564                   21700056.0594
 -12254087.14147  -9528022.95345  22906305.7424                   22906306.1484
  -2112273.94146  -1635105.10543  23960483.7504                   23960484.3754
 -19099251.55147 -14860092.82845  22651618.0314                   22651620.8284
 -18828047.03947 -14653583.74645  21711162.9694                   21711162.8914
  -4436954.57847  -3451812.71943  24232624.0004                   24232624.0634
 11  9 23  1  5 30.0000000  0 10G15G29G12G02G05G30G18G25G26G21
 -13068750.25047 -10162778.14545  22272868.1484                   22272867.8444
 -24884468.69148 -19374801.91846  20782434.1024                   20782433.2074
 -18163578.77046 -14131772.92644  23789273.7974                   23789275.7154
 -28632731.49247 -22288517.28145  22825716.6414                   22825714.7344
 -27078417.43048 -21077315.98846  21709122.2034                   21709121.3444
 -12239777.01247  -9516872.21145  22909028.4774                   22909029.5744
  -2220719.73846  -1719608.14544  23939846.3834                   23939848.4884
 -19056813.54747 -14827024.29745  22659694.0004                   22659697.1524
 -18909863.73447 -14717336.91845  21695593.3834                   21695593.1914
  -4523182.17247  -3519002.87544  24216215.1884                   24216215.5394
 11  9 23  1  6  0.0000000  0 10G15G29G12G02G05G30G18G25G26G21
 -13181525.24647 -10250654.66045  22251407.2974                   22251407.3484
 -24961121.16448 -19434531.07447  20767847.8984                   20767846.7974
 -18094927.35547 -14078278.34444  23802338.2114                   23802339.8164
 -28605800.18447 -22267531.81645  22830841.4614                   22830839.1294
 -27030541.65648 -21040010.18446  21718232.9774                   21718231.9104
 -12225017.17647  -9505371.04745  22911837.0004                   22911838.2934
  -2328946.42646  -1803940.42243  23919251.7114                   23919253.4654
 -19014077.34447 -14793723.35945  22667825.8054                   22667829.1094
 -18991135.46947 -14780665.45745  21680128.0704                   21680127.6604
  -4609431.62947  -3586210.05144  24199802.7194                   24199802.5474
 11  9 23  1  6 30.0000000  0 10G15G29G12G02G05G30G18G25G26G21
 -13294026.11347 -10338317.56645  22229999.4224                   22229998.8204
 -25037375.22748 -19493949.77047  20753337.1414                   20753335.9494
 -18026255.69546 -14024767.96544  23815405.5164                   23815407.2464
 -28578740.07447 -22246446.00045  22835990.4924                   22835988.3444
 -26982431.21548 -21002521.51646  21727387.9924                   21727386.7464
 -12209810.80947  -9493521.94545  22914731.3204                   22914731.9844
  -2436953.36746  -1888101.52044  23898698.5944                   23898699.9064
 -18971046.54347 -14760192.87545  22676015.0864                   22676018.3714
 -19071859.84047 -14843567.47745  21664766.6024                   21664766.1414
  -4695704.25447  -3653435.29744  24183385.7034                   24183385.3134
 11  9 23  1  7  0.0000000  0 10G15G29G12G02G05G30G18G25G26G21
 -13406248.77047 -10425763.68445  22208644.0944                   22208644.0354
 -25113227.47348 -19553055.36747  20738903.1024                   20738901.8284
 -17957565.54747 -13971243.18744  23828477.4224                   23828478.3834
 -28551549.59447 -22225258.60545  22841164.5634                   22841162.3554
 -26934087.52048 -20964851.08646  21736587.7734                   21736586.5004
 -12194159.27047  -9481325.96145  22917708.6804                   22917711.0204
  -2544738.71546  -1972089.89843  23878187.1254                   23878188.2704
 -18927723.08247 -14726434.36345  22684258.6804                   22684262.1054
 -19152032.81647 -14906039.83245  21649510.0634                   21649509.6024
  -4781998.96147  -3720677.74644  24166963.6644                   24166964.1054
 11  9 23  1  7 30.0000000  0 10G15G29G12G02G05G30G18G25G26G21
 -13518189.81647 -10512990.36345  22187342.4384                   22187341.9224
 -25188675.82848 -19611846.23847  20724545.5084                   20724544.6724
 -17888859.96547 -13917706.39844  23841551.6804                   23841552.8754
 -28524228.33647 -22203969.30145  22846363.8674                   22846361.4734
 -26885513.05548 -20927000.83646  21745831.0944                   21745829.9344
 -12178065.17247  -9468785.11344  22920771.7344                   22920773.0554
  -2652301.68746  -2055904.98043  23857718.1484                   23857720.3634
 -18884110.08647 -14692450.20345  22692558.0554                   22692561.1254
 -19231651.86747 -14968080.57045  21634359.2344                   21634358.9344
  -4868315.80147  -3787937.42644  24150538.1414                   24150538.5594
 11  9 23  1  8  0.0000000  0 10G15G29G12G02G05G30G18G25G26G21
 -13629844.65647 -10599994.01245  22166095.3054                   22166094.4964
 -25263716.46948 -19670319.41847  20710266.0004                   20710264.4304
 -17820140.02347 -13864158.39544  23854629.0004                   23854629.3444
 -28496774.32047 -22182576.57045  22851588.3444                   22851585.8404
 -26836708.26648 -20888971.10946  21755118.3134                   21755117.0044
 -12161529.37547  -9455900.08245  22923918.2734                   22923919.3404
  -2759639.48046  -2139544.60543  23837292.0864                   23837294.0784
 -18840208.91847 -14658241.52345  22700912.6644                   22700915.6524
 -19310712.02748 -15029685.79345  21619314.3444                   21619314.0084
  -4954653.48447  -3855213.39543  24134108.5554                   24134107.8444
 11  9 23  1  8 30.0000000  0 10G15G29G12G02G05G30G18G25G26G21
 -13741212.94948 -10686774.39546  22144902.5314                   22144902.1724
 -25338349.64548 -19728475.09047  20696063.6804                   20696062.0044
 -17751411.35947 -13810603.61744  23867707.1724                   23867708.4064
 -28469189.60947 -22161081.95745  22856837.1484                   22856835.3914
 -26787678.07048 -20850765.73846  21764448.2664                   21764447.0634
 -12144557.05947  -9442674.92645  22927147.4304                   22927149.7194
  -2866753.77046  -2223010.06644  23816909.2194                   23816910.9184
 -18796025.22347 -14623812.69145  22709319.9304                   22709322.8134
 -19389213.43747 -15090855.64845  21604376.2034                   21604375.4494
  -5041014.91047  -3922507.85544  24117674.1724                   24117674.0084
 11  9 23  1  9  0.0000000  0 10G15G29G12G02G05G30G18G25G26G21
 -13852289.58248 -10773327.49645  22123765.0554                   22123764.7504
 -25412571.21948 -19786310.03547  20681939.5234                   20681937.9614
 -17682674.93447 -13757042.79744  23880787.3364                   23880789.0314
 -28441471.96547 -22139483.80145  22862111.7894                   22862108.5744
 -26738423.13748 -20812385.23846  21773821.5474                   21773820.1024
 -12127148.70347  -9429109.97345  22930460.7974                   22930461.5744
  -2973641.82046  -2306299.18443  23796569.2274                   23796570.4534
 -18751560.07847 -14589164.52345  22717781.9534                   22717784.9574
 -19467151.09448 -15151586.21145  21589545.0554                   21589544.7704
  -5127397.93047  -3989819.14144  24101235.6024                   24101235.9024
 11  9 23  1  9 30.0000000  0 10G15G29G12G02G05G30G18G25G26G21
 -13963075.45348 -10859654.03546  22102683.2894                   22102683.0664
 -25486382.74648 -19843825.46147  20667893.8364                   20667892.4224
 -17613937.30147 -13703481.01244  23893867.6564                   23893868.7424
 -28413624.76247 -22117784.64544  22867411.1024                   22867408.3984
 -26688949.51648 -20773834.33246  21783235.7114                   21783234.4414
 -12109310.99247  -9415210.47345  22933854.9844                   22933856.6484
  -3080306.83646  -2389414.47743  23776270.4694                   23776272.2854
 -18706820.56647 -14554302.57045  22726295.0634                   22726298.6484
 -19544526.18448 -15211878.40245  21574821.0004                   21574820.0314
  -5213807.25447  -4057150.92643  24084792.6644                   24084792.4614
 11  9 23  1 10  0.0000000  0 10G15G29G12G02G05G30G18G25G26G21
 -14073565.67647 -10945750.18446  22081657.1024                   22081656.9774
 -25559780.51648 -19901018.48047  20653926.6564                   20653925.1954
 -17545199.62946 -13649919.19544  23906947.5164                   23906950.2544
 -28385645.98047 -22095982.98045  22872735.2894                   22872732.6454
 -26639257.83648 -20735113.51646  21792691.6724                   21792690.1414
 -12091044.77347  -9400977.07445  22937331.3594                   22937332.3284
  -3186745.63346  -2472353.50843  23756016.3364                   23756017.6804
 -18661807.86347 -14519227.75845  22734861.1884                   22734864.2074
 -19621333.92648 -15271728.52746  21560205.3524                   21560204.4734
  -5300241.13347  -4124501.88744  24068345.0314                   24068345.4844
 11  9 23  1 10 30.0000000  0 10G15G29G12G02G05G30G18G25G26G21
 -14183755.98047 -11031612.62946  22060688.5314                   22060688.4844
 -25632761.13748 -19957886.44147  20640038.5234                   20640037.1294
 -17476463.62947 -13596358.71544  23920028.0314                   23920030.2734
 -28357533.95347 -22074077.47345  22878084.9534                   22878081.4064
 -26589349.25447 -20696223.68046  21802188.8364                   21802187.6844
 -12072351.27347  -9386410.73045  22940887.9844                   22940889.5234
  -3292956.57446  -2555115.00043  23735804.3134                   23735806.1174
 -18616523.90247 -14483941.57445  22743478.5704                   22743481.0474
 -19697570.54347 -15331133.59846  21545697.6024                   21545697.0434
  -5386698.60947  -4191871.25843  24051892.1174                   24051892.4104
 11  9 23  1 11  0.0000000  0 10G15G29G12G02G05G30G18G25G26G21
 -14293645.80948 -11117240.95746  22039777.8914                   22039776.5944
 -25705324.84848 -20014429.54747  20626230.1954                   20626229.0864
 -17407734.56647 -13542803.61344  23933107.0084                   23933108.6454
 -28329291.07047 -22052069.99245  22883458.7894                   22883456.5434
 -26539228.52048 -20657168.53946  21811726.4064                   21811724.8094
 -12053235.86747  -9371515.62144  22944526.0234                   22944527.6884
  -3398941.31246  -2637700.20344  23715636.3834                   23715637.2304
 -18570974.36747 -14448448.44145  22752146.2194                   22752149.2934
 -19773235.97747 -15390093.59446  21531299.0944                   21531298.2544
  -5473182.62147  -4259261.28544  24035435.0634                   24035434.3714
 11  9 23  1 11 30.0000000  0 10G15G29G12G02G05G30G18G25G26G21
 -14403233.13747 -11202633.55945  22018923.2504                   22018923.0514
 -25777470.68448 -20070647.02747  20612501.7344                   20612500.2624
 -17339016.36347 -13489256.98444  23946183.5784                   23946185.0434
 -28300917.47747 -22029960.68444  22888858.3204                   22888855.4924
 -26488898.73448 -20617950.49646  21821304.2034                   21821302.3054
 -12033701.98047  -9356294.40645  22948243.2504                   22948244.1954
  -3504699.80146  -2720109.11744  23695511.1564                   23695512.0634
 -18525163.16447 -14412751.41445  22760863.4774                   22760866.5864
 -19848328.18447 -15448606.93046  21517009.3284                   21517008.5204
  -5559693.94147  -4326672.59044  24018971.9224                   24018972.8244
 11  9 23  1 12  0.0000000  0 10G15G29G12G02G05G30G18G25G26G21
 -14512511.78147 -11287785.63346  21998128.4454                   21998127.6804
 -25849193.26248 -20126534.69547  20598853.1024                   20598851.3914
 -17270308.47747 -13435718.39144  23959258.0944                   23959259.7154
 -28272409.55947 -22007746.69544  22894282.8204                   22894279.8364
 -26438359.35247 -20578569.13346  21830921.1954                   21830919.5234
 -12013749.09447  -9340746.70744  22952040.0944                   22952041.2154
  -3610228.06247  -2802338.63344  23675429.8594                   23675430.0554
 -18479090.23447 -14376850.43445  22769630.8594                   22769633.4964
 -19922841.59047 -15506669.24646  21502829.6174                   21502828.9024
  -5646229.68746  -4394102.92644  24002504.8754                   24002505.6024
 11  9 23  1 12 30.0000000  0 10G15G29G12G02G05G30G18G25G26G21
 -14621482.18748 -11372697.51246  21977391.9534                   21977391.5634
 -25920493.90648 -20182093.58647  20585285.2584                   20585283.7584
 -17201617.55947 -13382193.02344  23972329.7424                   23972331.4024
 -28243770.68747 -21985430.67644  22899733.2194                   22899730.5704
 -26387616.15647 -20539028.96146  21840577.1174                   21840575.6764
 -11993383.48847  -9324877.42644  22955915.6094                   22955916.5164
  -3715528.77347  -2884390.85944  23655390.8594                   23655392.3014
 -18432762.17247 -14340750.66445  22778447.1884                   22778449.8634
 -19996776.62548 -15564280.88746  21488760.3834                   21488759.2664
  -5732793.75447  -4461555.33244  23986032.9144                   23986031.0704
 11  9 23  1 13  0.0000000  0 10G15G29G12G02G05G30G18G25G26G21
 -14730137.68047 -11457364.00046  21956715.3364                   21956714.7384
 -25991366.94948 -20237319.28547  20571798.2034                   20571796.7234
 -17132942.94546 -13328680.36744  23985397.7504                   23985399.9184
 -28214997.01647 -21963009.60245  22905208.2504                   22905205.2934
 -26336667.87947 -20499328.98046  21850272.2664                   21850270.7274
 -11972604.28947  -9308685.84444  22959870.0944                   22959870.4924
  -3820597.57446  -2966262.36344  23635397.0474                   23635399.1374
 -18386178.60247 -14304451.78545  22787311.5314                   22787314.4064
 -20070127.57848 -15621437.40246  21474802.2894                   21474801.2034
  -5819382.54347  -4529027.03143  23969554.1724                   23969554.8204
 11  9 23  1 13 30.0000000  0 10G15G29G12G02G05G30G18G25G26G21
 -14838474.91448 -11541782.51246  21936099.6334                   21936098.9024
 -26061809.44948 -20292209.48847  20558393.3204                   20558392.3284
 -17064286.76247 -13275182.09844  23998462.9844                   23998464.8204
 -28186087.28547 -21940482.50845  22910709.7424                   22910706.6024
 -26285516.27047 -20459470.57046  21860006.3984                   21860004.8364
 -11951413.73447  -9292173.73044  22963902.1334                   22963902.7384
  -3925433.28947  -3047952.27744  23615447.5944                   23615448.1724
 -18339341.97347 -14267955.73445  22796224.9454                   22796227.3634
 -20142890.91848 -15678136.02346  21460955.6954                   21460954.4104
  -5905995.75446  -4596517.71544  23953072.7274                   23953072.4694
 11  9 23  1 14  0.0000000  0 10G15G29G12G02G05G30G18G25G26G21
 -14946492.78148 -11625952.16446  21915544.3594                   21915543.4614
 -26131821.52348 -20346764.29347  20545070.5084                   20545069.3554
 -16995653.25847 -13221701.46144  24011522.9844                   24011525.0554
 -28157043.27047 -21917850.78145  22916237.3054                   22916234.2074
 -26234165.45347 -20419456.93446  21869777.9924                   21869776.4734
 -11929816.36347  -9275344.62144  22968011.9844                   22968013.4964
  -4030036.95747  -3129461.36744  23595541.6484                   23595541.9694
 -18292257.49247 -14231266.55145  22805183.9614                   22805187.3054
 -20215066.42648 -15734376.60546  21447220.9614                   21447220.5664
  -5992635.53947  -4664029.13344  23936585.7894                   23936585.2034
 11  9 23  1 14 30.0000000  0 10G15G29G12G02G05G30G18G25G26G21
 -15054188.14848 -11709870.51246  21895050.0864                   21895049.8674
 -26201401.28948 -20400982.24647  20531830.0474                   20531828.6094
 -16927045.92647 -13168241.24244  24024578.6414                   24024580.6174
 -28127864.32847 -21895113.92645  22921789.4924                   22921786.5824
 -26182617.87947 -20379289.97346  21879587.3284                   21879585.7154
 -11907814.77047  -9258200.53944  22972198.8444                   22972200.1134
  -4134407.64547  -3210788.94144  23575680.4844                   23575680.8634
 -18244927.99647 -14194386.44145  22814190.6954                   22814193.6524
 -20286650.91848 -15790156.64846  21433598.8594                   21433597.6914
  -6079302.02746  -4731561.35944  23920093.7344                   23920093.6294
 11  9 23  1 15  0.0000000  0 10G15G29G12G02G05G30G18G25G26G21
 -15161558.99248 -11793535.98846  21874618.1804                   21874617.5944
 -26270547.17248 -20454862.09847  20518671.5634                   20518670.5824
 -16858468.46146 -13114804.27744  24037628.2114                   24037630.1134
 -28098551.23847 -21872272.54745  22927367.5864                   22927364.8524
 -26130876.82847 -20338972.27046  21889433.5704                   21889431.6914
 -11885412.79747  -9240744.45744  22976461.4454                   22976462.8914
  -4238545.58247  -3291935.16444  23555863.8134                   23555864.2504
 -18197357.74647 -14157318.73445  22823242.8674                   22823246.0084
 -20357643.28948 -15845475.30145  21420089.2034                   21420088.3364
  -6165996.24247  -4799115.19544  23903596.0164                   23903596.0554
 11  9 23  1 15 30.0000000  0 10G15G29G12G02G05G30G18G25G26G21
 -15268600.90248 -11876945.16446  21854248.6564                   21854247.6764
 -26339256.13348 -20508401.50047  20505596.9774                   20505595.9144
 -16789921.67647 -13061391.22744  24050672.2664                   24050674.0554
 -28069102.16047 -21849325.20745  22932971.4694                   22932969.2194
 -26078942.85947 -20298504.23846  21899315.7974                   21899314.3594
 -11862611.94547  -9222977.54744  22980800.8284                   22980802.3244
  -4342448.66047  -3372898.41444  23536091.7114                   23536092.1334
 -18149548.42647 -14120064.74645  22832340.6094                   22832344.1094
 -20428039.43447 -15900329.36745  21406693.3364                   21406692.5514
  -6252717.06647  -4866689.74644  23887093.6024                   23887093.7814
 11  9 23  1 16  0.0000000  0 10G15G29G12G02G05G30G18G25G26G21
 -15375308.73848 -11960094.01246  21833942.7814                   21833942.2544
 -26407523.98048 -20561597.18747  20492605.9224                   20492604.6914
 -16721407.15647 -13008003.31644  24063710.1804                   24063712.3914
 -28039514.78147 -21826270.09845  22938601.9534                   22938599.1764
 -26026816.48447 -20257886.27746  21909235.3984                   21909233.4884
 -11839412.92247  -9204900.39144  22985215.4694                   22985216.0394
  -4446114.33247  -3453676.64544  23516364.2194                   23516365.4144
 -18101501.27747 -14082625.43445  22841483.8834                   22841487.0704
 -20497835.00847 -15954715.44546  21393411.5634                   21393410.4304
  -6339462.55547  -4934283.50444  23870586.2114                   23870586.4694
 11  9 23  1 16 30.0000000  0 10G15G29G12G02G05G30G18G25G26G21
 -15481684.54348 -12042984.14546  21813699.8914                   21813699.3444
 -26475353.44548 -20614451.26247  20479698.2894                   20479696.7274
 -16652932.02047 -12954646.08244  24076740.8444                   24076743.1214
 -28009793.24247 -21803110.46145  22944257.5944                   22944255.0554
 -25974504.70747 -20217123.84446  21919189.9384                   21919188.6994
 -11815823.15247  -9186518.75044  22989704.6174                   22989705.1174
  -4549546.32847  -3534272.82044  23496681.5234                   23496682.5824
 -18053223.98847 -14045006.78945  22850670.8054                   22850673.5434
 -20567032.02748 -16008635.12546  21380243.5944                   21380243.2234
  -6426237.47347  -5001900.18044  23854073.5864                   23854073.7384
 11  9 23  1 17  0.0000000  0 10G15G29G12G02G05G30G18G25G26G21
 -15587724.76648 -12125612.77746  21793521.4304                   21793521.1804
 -26542741.80148 -20666961.62947  20466874.6254                   20466873.3324
 -16584498.60247 -12901321.35544  24089763.1954                   24089764.5944
 -27979936.89547 -21779845.77345  22949939.0864                   22949936.2154
 -25922009.43047 -20176218.41846  21929178.9924                   21929177.5204
 -11791844.90646  -9167834.39844  22994266.9144                   22994267.7344
  -4652743.58247  -3614686.09444  23477043.7504                   23477044.2114
 -18004719.26647 -14007210.93045  22859901.0944                   22859904.3164
 -20635627.82047 -16062086.32046  21367190.5084                   21367189.5594
  -6513041.67247  -5069539.66844  23837555.2584                   23837554.5904
 11  9 23  1 17 30.0000000  0 10G15G29G12G02G05G30G18G25G26G21
 -15693424.10248 -12207975.79746  21773407.2344                   21773406.8634
 -26609684.64548 -20719124.84847  20454136.0864                   20454134.8164
 -16516107.12547 -12848029.32444  24102778.0474                   24102779.6954
 -27949942.91047 -21756473.83645  22955646.5944                   22955644.0354
 -25869330.44947 -20135169.83646  21939203.8054                   21939201.8834
 -11767478.67247  -9148847.71544  22998904.0314                   22998904.9384
  -4755702.59847  -3694913.74644  23457450.7194                   23457450.8204
 -17955987.75447 -13969238.34845  22869174.2274                   22869176.8914
 -20703617.35948 -16115065.09446  21354252.3754                   21354251.7074
  -6599872.86747  -5137200.16444  23821031.8054                   23821031.9144
 11  9 23  1 18  0.0000000  0 10G15G29G12G02G05G30G18G25G26G21
 -15798781.71548 -12290072.52346  21753358.2344                   21753357.5204
 -26676182.29748 -20770941.16047  20441481.8054                   20441480.2544
 -16447762.53547 -12794773.82844  24115783.7034                   24115785.8714
 -27919812.78547 -21732995.81244  22961379.5634                   22961377.6484
 -25816472.03147 -20093981.44146  21949262.2734                   21949260.8524
 -11742729.41046  -9129562.59044  23003614.0704                   23003614.6054
  -4858425.28147  -3774957.19943  23437903.2274                   23437903.4694
 -17907034.82047 -13931093.23445  22878489.8444                   22878492.8834
 -20771000.47748 -16167571.35946  21341429.9844                   21341429.0904
  -6686733.59847  -5204883.71544  23804502.7504                   23804502.2624
 11  9 23  1 18 30.0000000  0 10G15G29G12G02G05G30G18G25G26G21
 -15903792.12148 -12371898.69146  21733375.2194                   21733374.8954
 -26742230.01248 -20822406.87947  20428913.2504                   20428912.0314
 -16379465.14547 -12741555.11344  24128780.7114                   24128782.2034
 -27889543.53947 -21709409.39545  22967139.8594                   22967138.0314
 -25763433.73847 -20052652.88346  21959354.9064                   21959353.7624
 -11717597.34446  -9109979.12544  23008395.5864                   23008397.6174
  -4960908.11747  -3854813.79344  23418400.6254                   23418401.5314
 -17857860.96147 -13892775.96945  22887847.6484                   22887849.7854
 -20837772.23847 -16219601.21946  21328723.2974                   21328722.2704
  -6773621.06247  -5272588.04744  23787968.4064                   23787968.1414
 11  9 23  1 19  0.0000000  0 10G15G29G12G02G05G30G18G25G26G21
 -16008451.25848 -12453451.16446  21713458.9694                   21713458.6804
 -26807824.92248 -20873519.75047  20416430.9304                   20416429.5394
 -16311216.85947 -12688374.63744  24141767.0164                   24141769.1804
 -27859134.18447 -21685713.78944  22972926.3594                   22972925.2234
 -25710217.29347 -20011185.50046  21969481.6094                   21969480.4414
 -11692084.46146  -9090098.95744  23013251.3444                   23013252.0594
  -5063149.39547  -3934482.17644  23398944.8834                   23398945.8404
 -17808468.53547 -13854288.39845  22897246.3674                   22897249.2934
 -20903929.39547 -16271152.18746  21316133.9844                   21316133.4924
  -6860534.67247  -5340312.75044  23771429.1884                   23771428.7114
 11  9 23  1 19 30.0000000  0 10G15G29G12G02G05G30G18G25G26G21
 -16112756.56648 -12534727.90646  21693610.3524                   21693609.8404
 -26872965.24648 -20924278.39847  20404035.1254                   20404033.4184
 -16243020.38747 -12635234.57044  24154744.7894                   24154746.6214
 -27828584.29347 -21661908.67645  22978739.8754                   22978738.3054
 -25656824.88747 -19969581.01646  21979641.6724                   21979640.6764
 -11666193.81646  -9069924.39544  23018178.2344                   23018178.7704
  -5165148.62147  -4013961.89144  23379535.2734                   23379536.1564
 -17758860.72347 -13815632.97345  22906686.2344                   22906689.5354
 -20969469.71547 -16322222.47746  21303661.6484                   21303661.5164
  -6947474.42247  -5408057.81244  23754885.0864                   23754883.9844
 11  9 23  1 20  0.0000000  0 10G15G29G12G02G05G30G18G25G26G21
 -16216706.59448 -12615727.82446  21673829.6254                   21673828.6684
 -26937650.68748 -20974682.60247  20391725.5554                   20391724.4574
 -16174880.28147 -12582138.38344  24167710.6024                   24167713.1484
 -27797895.34047 -21637995.21944  22984579.5004                   22984577.8014
 -25603260.21547 -19927842.28546  21989835.3984                   21989833.5944
 -11639929.87547  -9049458.95744  23023175.5554                   23023177.1214
  -5266906.93447  -4093253.92644  23360171.6954                   23360172.4184
 -17709042.35547 -13776813.49645  22916166.5234                   22916169.7234
 -21034392.62947 -16372811.69146  21291307.8674                   21291306.8164
  -7034442.20347  -5475824.69944  23738334.9064                   23738334.3874
 11  9 23  1 20 30.0000000  0 10G15G29G12G02G05G30G18G25G26G21
 -16320300.43048 -12696450.18746  21654116.3284                   21654115.0704
 -27001881.27348 -21024732.36347  20379503.3444                   20379501.9614
 -16106801.16447 -12529089.69943  24180666.3674                   24180667.9804
 -27767068.77347 -21613974.50444  22990446.3134                   22990444.1214
 -25549527.58247 -19885972.69146  22000060.1174                   22000058.6454
 -11613297.44146  -9028706.41844  23028243.4694                   23028245.3164
  -5368425.45347  -4172359.09444  23340852.9774                   23340853.7274
 -17659018.48447 -13737833.91045  22925686.0004                   22925688.9574
 -21098697.92248 -16422919.63346  21279070.3594                   21279069.8554
  -7121439.97747  -5543614.98444  23721779.8984                   23721779.9494
 11  9 23  1 21  0.0000000  0 10G15G29G12G02G05G30G18G25G26G21
 -16423533.94948 -12776891.78546  21634471.1564                   21634470.4884
 -27065653.84048 -21074425.22747  20367367.9384                   20367366.1524
 -16038784.23047 -12476089.51243  24193609.1644                   24193610.8284
 -27736102.91047 -21589845.24644  22996338.7504                   22996336.6374
 -25495628.18047 -19843973.14146  22010317.1174                   22010315.3914
 -11586298.21946  -9007668.03944  23033380.9454                   23033382.7974
  -5469702.36747  -4251275.98444  23321580.1254                   23321580.7384
 -17608791.09047 -13698695.68445  22935243.5164                   22935246.5554
 -21162382.02748 -16472543.52346  21266951.6804                   21266950.6564
  -7208466.62547  -5611427.73444  23705218.9614                   23705218.5634
 11  9 23  1 21 30.0000000  0 10G15G29G12G02G05G30G18G25G26G21
 -16526400.95348 -12857047.78146  21614896.2424                   21614895.2304
 -27128962.86348 -21123756.88747  20355320.5084                   20355318.6804
 -15970829.08646 -12423137.43743  24206541.2584                   24206543.0824
 -27704994.30547 -21565604.76245  23002258.8444                   23002256.5744
 -25441560.52048 -19801842.48046  22020605.6644                   22020603.9184
 -11558931.60547  -8986343.38744  23038589.5004                   23038590.1484
  -5570733.35547  -4330001.24644  23302354.6644                   23302354.8054
 -17558359.69947 -13659398.53145  22944840.7344                   22944843.8164
 -21225439.21548 -16521678.93446  21254952.4064                   21254951.3204
  -7295519.00847  -5679260.54344  23688653.5394                   23688653.3134
 11  9 23  1 22  0.0000000  0 10G15G29G12G02G05G30G18G25G26G21
 -16628901.89147 -12936918.54346  21595391.0164                   21595390.0354
 -27191809.91448 -21172728.56247  20343360.9534                   20343359.4104
 -15902941.91446 -12370238.34043  24219459.9534                   24219460.6414
 -27673745.35547 -21541254.94544  23008204.7734                   23008202.4574
 -25387330.32448 -19759585.17646  22030925.3914                   22030923.3594
 -11531203.90247  -8964737.36744  23043865.3284                   23043866.5474
  -5671521.37946  -4408537.18044  23283174.9844                   23283175.6294
 -17507731.03147 -13619947.63345  22954474.7664                   22954478.0704
 -21287870.99647 -16570326.96945  21243072.2274                   21243071.4614
  -7382600.65647  -5747116.14844  23672082.1884                   23672081.7664
 11  9 23  1 22 30.0000000  0 10G15G29G12G02G05G30G18G25G26G21
 -16731032.23448 -13016500.52346  21575956.2894                   21575954.9454
 -27254191.26248 -21221337.35947  20331490.2504                   20331488.7194
 -15835123.51646 -12317392.82843  24232364.6804                   24232365.9534
 -27642354.39147 -21516794.43445  23014178.5314                   23014175.9414
 -25332938.33248 -19717201.78546  22041275.6024                   22041274.3444
 -11503116.47747  -8942851.02744  23049210.4924                   23049211.6994
  -5772064.39847  -4486882.17244  23264042.4774                   23264042.5124
 -17456906.54747 -13580344.16445  22964146.8674                   22964149.7114
 -21349673.21948 -16618484.46946  21231311.6564                   21231310.3404
  -7469709.62547  -5814993.04744  23655505.4304                   23655504.7074
 11  9 23  1 23  0.0000000  0 10G15G29G12G02G05G30G18G25G26G21
 -16832790.46948 -13095792.55146  21556592.4534                   21556591.1564
 -27316106.59848 -21269583.01247  20319707.8984                   20319706.4414
 -15767378.09846 -12264604.16043  24245256.2974                   24245258.4964
 -27610822.16847 -21492223.84444  23020179.0944                   23020176.7234
 -25278387.68048 -19674694.77346  22051656.1884                   22051654.8634
 -11474673.48446  -8920687.63744  23054622.6334                   23054624.2384
  -5872362.44147  -4565036.31644  23244956.5634                   23244956.2194
 -17405890.67647 -13540591.55145  22973854.3054                   22973857.5744
 -21410845.38748 -16666151.00446  21219670.6414                   21219669.8444
  -7556847.39847  -5882892.39844  23638924.0704                   23638923.3404
 11  9 23  1 23 30.0000000  0 10G15G29G12G02G05G30G18G25G26G21
 -15358748.95748 -11947188.66846  21837092.6024                   21837091.7624
 -25802130.83648 -20089861.59047  20607807.6954                   20607806.1334
 -14124289.32046 -10984275.24643  24557924.8754                   24557928.2154
 -26003728.24647 -20239942.84044  23325999.2734                   23325996.2464
 -23648261.31247 -18404466.41446  22361859.4534                   22361857.2774
  -9870457.66446  -7670649.31644  23359894.9844                   23359895.7114
  -4396990.98447  -3415396.03544  23525709.9774                   23525710.3914
 -15779267.11347 -12273092.68745  23283390.8594                   23283393.9104
 -19895961.94948 -15485722.27746  21507943.2504                   21507942.1804
  -6068590.22747  -4723211.29744  23922129.6254                   23922128.7934
 11  9 23  1 24  0.0000000  0 10G15G29G12G02G05G30G18G25G26G21
 -15459749.17248 -12025890.03146  21817873.0164                   21817872.0234
 -25863103.55548 -20137372.73847  20596205.0554                   20596203.2234
 -14056692.73046 -10931602.57443  24570789.4774                   24570791.3244
 -25971907.79347 -20215147.66044  23332053.8524                   23332051.0984
 -23593395.19947 -18361713.59046  22372299.3984                   22372298.3444
  -9841307.51246  -7647934.89544  23365441.6484                   23365442.8204
  -4496793.23847  -3493163.84044  23506717.9924                   23506718.1374
 -15727872.98047 -12233045.34045  23293170.6334                   23293173.4064
 -19955862.48848 -15532397.94146  21496544.6884                   21496543.4774
  -6155781.28147  -4791152.19144  23905537.3674                   23905536.7814
 11  9 23  1 24 30.0000000  0 10G15G29G12G02G05G30G18G25G26G21
 -15560367.58648 -12104293.88346  21798725.8524                   21798724.8164
 -25923603.62948 -20184515.59847  20584692.1174                   20584690.6994
 -13989175.80146 -10878991.93743  24583637.0784                   24583639.3674
 -25939944.12547 -20190240.90244  23338136.6484                   23338133.5514
 -23538375.91048 -18318841.40646  22382769.5864                   22382767.8634
  -9811809.46946  -7624949.40644  23371055.4694                   23371056.3874
  -4596348.27747  -3570739.00844  23487772.9534                   23487772.6024
 -15676295.84047 -12192855.37945  23302985.8284                   23302988.9654
 -20015125.55147 -15578576.87546  21485267.0784                   21485265.9614
  -6243000.18446  -4859114.78944  23888940.3204                   23888939.4964
 11  9 23  1 25  0.0000000  0 10G15G29G12G02G05G30G18G25G26G21
 -15660600.18748 -12182397.10946  21779652.0004                   21779651.2664
 -25983627.78148 -20231287.60947  20573270.1254                   20573268.6484
 -13921740.38746 -10826444.81643  24596469.3594                   24596471.8164
 -25907835.46547 -20165221.14844  23344246.8054                   23344244.1644
 -23483204.52048 -18275850.70346  22393268.2894                   22393266.6454
  -9781965.41046  -7601694.28144  23376734.0944                   23376735.5434
  -4695654.03147  -3648119.93044  23468875.9144                   23468875.8914
 -15624537.57047 -12152524.28144  23312834.3914                   23312837.6764
 -20073747.85947 -15624256.51646  21474111.3364                   21474110.8204
  -6330245.82846  -4927098.25044  23872338.1254                   23872336.6054
 11  9 23  1 25 30.0000000  0 10G15G29G12G02G05G30G18G25G26G21
 -15760445.21548 -12260198.32446  21760652.0784                   21760651.1174
 -26043175.28148 -20277688.20347  20561938.5704                   20561937.0664
 -13854389.98046 -10773963.99244  24609285.9534                   24609288.5904
 -25875582.68047 -20140089.09845  23350384.7664                   23350382.0864
 -23427884.12947 -18232743.89146  22403795.3134                   22403793.6724
  -9751779.48446  -7578172.77744  23382479.4304                   23382479.5204
  -4794711.18447  -3725307.13344  23450025.6484                   23450025.5634
 -15572602.54347 -12112055.43445  23322718.0234                   23322720.8284
 -20131728.71547 -15669436.33646  21463077.7974                   21463076.9654
  -6417519.66846  -4995103.71944  23855730.2814                   23855729.0204
 11  9 23  1 26  0.0000000  0 10G15G29G12G02G05G30G18G25G26G21
 -15859900.89148 -12337696.14846  21741726.0944                   21741725.1604
 -26102245.51248 -20323716.91047  20550697.7344                   20550696.0594
 -13787128.19546 -10721552.22744  24622085.7034                   24622087.7814
 -25843186.45747 -20114845.27744  23356548.9774                   23356546.8524
 -23372417.98048 -18189523.49645  22414350.6174                   22414348.4454
  -9721255.67246  -7554387.94944  23388286.7504                   23388287.5234
  -4893520.16847  -3802300.97344  23431222.5394                   23431222.5204
 -15520494.78547 -12071452.02045  23332633.6254                   23332636.4654
 -20189066.83647 -15714115.32846  21452166.5474                   21452166.0274
  -6504822.30146  -5063131.62544  23839116.5314                   23839115.5944
 11  9 23  1 26 30.0000000  0 10G15G29G12G02G05G30G18G25G26G21
 -15958962.92647 -12414887.24646  21722875.0554                   21722874.0904
 -26160835.41448 -20369371.32047  20539548.3284                   20539546.4104
 -13719956.51647 -10669210.60944  24634867.7734                   24634869.1094
 -25810644.72346 -20089488.05144  23362741.3054                   23362739.6954
 -23316807.15247 -18146190.35946  22424932.6954                   22424930.7934
  -9690395.50046  -7530341.06244  23394159.2894                   23394161.1884
  -4992079.28547  -3879100.12544  23412467.1174                   23412467.6454
 -15468216.16847 -12030715.46545  23342581.6094                   23342584.6724
 -20245759.25447 -15758291.17246  21441378.3284                   21441377.8134
  -6592152.69146  -5131181.17644  23822498.3054                   23822497.3594
 11  9 23  1 27  0.0000000  0 10G15G29G12G02G05G30G18G25G26G21
 -16057627.84447 -12491768.89846  21704099.9064                   21704098.7194
 -26218942.01648 -20414649.14147  20528491.2034                   20528488.9454
 -13652876.50847 -10616940.45344  24647633.0164                   24647634.2464
 -25777956.68046 -20064016.83644  23368960.9924                   23368959.3874
 -23261052.81648 -18102745.41046  22435542.2894                   22435540.2344
  -9659201.27746  -7506033.86344  23400095.5634                   23400096.6724
  -5090386.91046  -3955703.32444  23393759.7274                   23393759.4494
 -15415769.01247 -11989847.59045  23352562.7344                   23352565.8914
 -20301803.12147 -15801961.66446  21430714.0084                   21430712.9494
  -6679509.82046  -5199251.56644  23805874.9384                   23805873.6954
 11  9 23  1 27 30.0000000  0 10G15G29G12G02G05G30G18G25G26G21
 -16155894.47747 -12568340.21146  21685401.0634                   21685399.1914
 -26276565.05948 -20459550.17247  20517525.5554                   20517523.6644
 -13585892.26246 -10564744.91444  24660379.3914                   24660381.9574
 -25745123.30147 -20038432.37544  23375210.1024                   23375208.0164
 -23205158.46947 -18059191.35945  22446178.8204                   22446177.1564
  -9627677.39146  -7481469.80144  23406093.9844                   23406095.2664
  -5188443.94546  -4032111.24644  23375099.1484                   23375099.6524
 -15363157.96147 -11948851.98445  23362573.9304                   23362577.1954
 -20357198.12547 -15845126.53946  21420172.6174                   21420171.2734
  -6766895.43746  -5267344.18444  23789245.4224                   23789244.7894
 11  9 23  1 28  0.0000000  0 10G15G29G12G02G05G30G18G25G26G21
 -16253760.75848 -12644599.54746  21666777.0554                   21666775.5514
 -26333704.04748 -20504074.00447  20506652.6254                   20506650.5314
 -13519007.34046 -10512626.77744  24673107.3444                   24673109.3444
 -25712145.21546 -20012735.15244  23381485.6724                   23381482.3984
 -23149127.02347 -18015530.48845  22456840.9534                   22456839.4884
  -9595827.62147  -7456651.80544  23412154.9064                   23412156.6764
  -5286250.59446  -4108324.07844  23356488.9144                   23356487.8134
 -15310386.89847 -11907731.68745  23372615.9304                   23372619.2934
 -20411943.34047 -15887785.07846  21409754.7894                   21409754.0704
  -6854310.30547  -5335459.59044  23772611.7734                   23772610.0864
 11  9 23  1 28 30.0000000  0 10G15G29G12G02G05G30G18G25G26G21
 -16351222.37148 -12720543.56246  21648231.1174                   21648229.3204
 -26390355.42648 -20548217.89847  20495871.9844                   20495870.3094
 -13452223.01646 -10460587.03944  24685815.8754                   24685817.7154
 -25679020.26646 -19986923.52344  23387788.5634                   23387785.4964
 -23092959.06648 -17971763.24245  22467529.2814                   22467527.8014
  -9563653.62146  -7431581.17244  23418278.0004                   23418279.1884
  -5383805.25847  -4184340.53144  23337924.3284                   23337923.4574
 -15257457.52747 -11866488.05945  23382688.1644                   23382691.0634
 -20466035.12148 -15929934.44946  21399461.5474                   21399460.3554
  -6941752.57446  -5403596.36344  23755971.3364                   23755970.5704
 11  9 23  1 29  0.0000000  0 10G15G29G12G02G05G30G18G25G26G21
 -16448274.77347 -12796168.72746  21629762.0634                   21629760.6764
 -26446515.72748 -20591979.13747  20485185.3834                   20485183.3984
 -13385539.46146 -10408625.80543  24698504.9924                   24698506.5824
 -25645746.52346 -19960995.90644  23394119.8754                   23394117.3634
 -23036654.79747 -17927889.77745  22478243.8134                   22478242.2544
  -9531156.46546  -7406258.71544  23424461.7424                   23424463.4264
  -5481105.34047  -4260158.65644  23319408.1334                   23319407.5554
 -15204371.11347 -11825122.04345  23392790.1414                   23392793.3674
 -20519470.29748 -15971572.19146  21389292.9384                   21389291.7304
  -7029220.69147  -5471753.27044  23739327.4614                   23739325.9734
 11  9 23  1 29 30.0000000  0 10G15G29G12G02G05G30G18G25G26G21
 -16544915.71948 -12871473.27746  21611371.8524                   21611370.9264
 -26502183.81648 -20635356.81647  20474591.9384                   20474589.8524
 -13318960.50846 -10356746.09443  24711173.6024                   24711176.7154
 -25612324.18046 -19934952.51244  23400480.2584                   23400476.9734
 -22980216.93748 -17883912.21545  22488983.3674                   22488981.8634
  -9498339.87147  -7380687.35544  23430706.1254                   23430707.8754
  -5578150.68747  -4335778.27044  23300941.3204                   23300940.7974
 -15151131.43447 -11783636.60945  23402921.3594                   23402924.3594
 -20572247.46548 -16012697.18746  21379249.8444                   21379248.8134
  -7116715.14147  -5539930.69544  23722677.1804                   23722675.5274
 11  9 23  1 30  0.0000000  0 10G15G29G12G02G05G30G18G25G26G21
 -16641144.94148 -12946456.99646  21593059.8754                   21593058.6884
 -26557360.36348 -20678351.48447  20464091.9064                   20464090.1844
 -13252490.96546 -10304951.64843  24723823.4614                   24723825.4774
 -25578755.20346 -19908794.87544  23406868.5474                   23406865.1094
 -22923650.20347 -17839834.23846  22499747.7034                   22499746.4614
  -9465209.40246  -7354871.42244  23437010.9064                   23437012.6844
  -5674943.72347  -4411201.27744  23282521.7814                   23282521.1994
 -15097744.11747 -11742036.12945  23413080.5164                   23413083.7194
 -20624367.65648 -16053310.25846  21369331.7504                   21369330.5864
  -7204238.36747  -5608130.55144  23706022.1484                   23706020.0204
 11  9 23  1 30 30.0000000  0 10G15G29G12G02G05G30G18G25G26G21
 -16736958.72348 -13021116.99246  21574827.3134                   21574825.9614
 -26612042.59447 -20720960.98047  20453686.1884                   20453684.5664
 -13186132.30146 -10253243.60243  24736450.2114                   24736453.0434
 -25545038.17246 -19882521.87144  23413284.3364                   23413281.6334
 -22866955.39147 -17795656.45346  22510536.6484                   22510534.8054
  -9431766.80946  -7328812.28944  23443374.7114                   23443376.1454
  -5771482.36347  -4486426.07044  23264150.7664                   23264150.6134
 -15044211.01247 -11700322.05545  23423267.3284                   23423270.5514
 -20675827.53548 -16093408.80146  21359539.3204                   21359537.7734
  -7291789.08247  -5676351.82044  23689361.0554                   23689360.5354
 11  9 23  1 31  0.0000000  0 10G15G29G12G02G05G30G18G25G26G21
 -16832354.06648 -13095450.94546  21556674.2424                   21556672.6724
 -26666228.42648 -20763183.65647  20443375.1484                   20443373.0164
 -13119886.73046 -10201623.65643  24749056.3444                   24749058.5084
 -25511172.38346 -19856132.90644  23419728.7894                   23419726.5044
 -22810134.13747 -17751380.15245  22521349.2584                   22521347.7704
  -9398014.68746  -7302511.95744  23449797.5164                   23449798.9964
  -5867766.22347  -4561452.31644  23245828.6484                   23245828.5784
 -14990534.95347 -11658496.59045  23433481.7344                   23433485.3204
 -20726625.27048 -16132991.39146  21349872.6094                   21349871.5234
  -7379366.78947  -5744594.10244  23672696.0634                   23672694.3834
 11  9 23  1 31 30.0000000  0 10G15G29G12G02G05G30G18G25G26G21
 -16927328.80148 -13169457.13346  21538600.9304                   21538599.2854
 -26719916.72348 -20805018.66447  20433158.5234                   20433156.6684
 -13053756.99245 -10150093.98442  24761640.1644                   24761642.9224
 -25477157.70747 -19829627.97344  23426201.6254                   23426199.4924
 -22753189.11747 -17707007.41445  22532185.1564                   22532183.8524
  -9363956.87947  -7275973.39544  23456279.0784                   23456279.5554
  -5963795.46947  -4636280.16044  23227555.0474                   23227554.7194
 -14936719.57447 -11616562.58245  23443722.2734                   23443725.7704
 -20776759.91448 -16172057.27346  21340332.7894                   21340331.0314
  -7466972.13347  -5812857.91444  23656024.7974                   23656023.5314
 11  9 23  1 32  0.0000000  0 10G15G29G12G02G05G30G18G25G26G21
 -17021877.41848 -13243131.30146  21520608.8444                   21520607.4654
 -26773103.54348 -20846462.88747  20423037.3134                   20423035.4494
 -12987743.06645 -10098654.53142  24774203.5084                   24774204.1764
 -25442991.86347 -19803005.23044  23432703.1564                   23432701.2274
 -22696119.78147 -17662537.79345  22543045.3444                   22543043.7854
  -9329593.78947  -7249196.94944  23462817.9384                   23462818.4344
  -6059566.79747  -4710907.02744  23209330.1644                   23209329.5744
 -14882765.41047 -11574520.41445  23453989.3284                   23453993.4614
 -20826227.17648 -16210603.12146  21330918.9924                   21330917.6524
  -7554602.47347  -5881141.19544  23639349.5864                   23639348.2194
 11  9 23  1 32 30.0000000  0 10G15G29G12G02G05G30G18G25G26G21
 -17116000.37547 -13316473.76646  21502697.9144                   21502696.5744
 -26825789.85548 -20887517.10947  20413011.6804                   20413009.9144
 -12921850.77046 -10047309.88743  24786741.8524                   24786743.3284
 -25408676.91447 -19776266.29344  23439233.2424                   23439231.3014
 -22638930.85947 -17617974.99645  22553928.2424                   22553926.6254
  -9294931.24247  -7222187.18044  23469413.7274                   23469415.3954
  -6155082.66847  -4785334.82444  23191154.0234                   23191154.1954
 -14828678.49647 -11532374.79744  23464282.3834                   23464285.4694
 -20875028.44548 -16248630.01246  21321632.0084                   21321630.7584
  -7642260.44947  -5949446.00444  23622669.2344                   23622667.3284
 11  9 23  1 33  0.0000000  0 10G15G29G12G02G05G30G18G25G26G21
 -17209693.77048 -13389481.51646  21484868.7974                   21484866.9414
 -26877973.01648 -20928179.27347  20403081.1954                   20403079.4884
 -12856080.89846  -9996060.60243  24799257.6484                   24799259.3754
 -25374211.32847 -19749409.98044  23445791.6954                   23445789.5634
 -22581623.24647 -17573319.69545  22564833.1564                   22564831.8594
  -9259971.23846  -7194945.61744  23476066.4924                   23476068.4264
  -6250341.38747  -4859562.24244  23173026.6254                   23173026.4304
 -14774460.73047 -11490127.23044  23474598.7504                   23474602.9064
 -20923160.84048 -16286135.71546  21312472.9694                   21312471.8634
  -7729944.72747  -6017771.30944  23605983.3524                   23605981.7734
 11  9 23  1 33 30.0000000  0  9G15G29G02G05G30G18G25G26G21
 -17302955.05948 -13462152.55546  21467121.1804                   21467119.6294
 -26929651.10248 -20968447.86747  20393247.0634                   20393245.3094
 -25339595.17647 -19722436.34444  23452379.0004                   23452376.7154
 -22524199.20347 -17528573.69545  22575760.3444                   22575759.2194
  -9224716.85546  -7167474.67644  23482775.7584                   23482776.0744
  -6345342.63747  -4933589.05144  23154948.3674                   23154947.9534
 -14720115.36747 -11447780.20745  23484941.1484                   23484944.6414
 -20970623.12148 -16323119.25446  21303441.3754                   21303439.3524
  -7817655.41047  -6086117.16844  23589292.5634                   23589290.4534
 11  9 23  1 34  0.0000000  0  9G15G29G02G05G30G18G25G26G21
 -17395781.21148 -13534484.52746  21449456.8914                   21449455.1884
 -26980822.94148 -21008321.97747  20383509.7274                   20383507.5784
 -25304827.60546 -19695344.72344  23458994.0784                   23458992.8984
 -22466660.64147 -17483738.43045  22586710.3054                   22586708.2034
  -9189171.09046  -7139776.68444  23489539.7424                   23489540.4734
  -6440085.94947  -5007414.86744  23136918.9534                   23136917.9964
 -14665645.36347 -11405336.09845  23495306.6094                   23495310.0984
 -21017413.52348 -16359579.25846  21294537.5004                   21294535.8444
  -7905392.53147  -6154483.61344  23572596.2664                   23572594.8554
 11  9 23  1 34 30.0000000  0  9G15G29G02G05G30G18G25G26G21
 -17488161.23448 -13606468.86746  21431877.5084                   21431875.9384
 -27031478.14848 -21047793.53947  20373870.1094                   20373868.0664
 -25269899.91447 -19668128.35944  23465641.5084                   23465639.3284
 -22409000.59447 -17438808.50445  22597682.2814                   22597680.5204
  -9153328.50447  -7111847.39844  23496360.1484                   23496360.8134
  -6534562.31247  -5081032.64844  23118940.3134                   23118940.1644
 -14611045.23847 -11362790.55944  23505696.2734                   23505699.7934
 -21063522.16448 -16395508.02046  21285763.1414                   21285761.2344
  -7993147.12147  -6222863.68744  23555897.5394                   23555895.4654
 11  9 23  1 35  0.0000000  0  9G15G29G02G05G30G18G25G26G21
 -17580089.97347 -13678101.55946  21414384.1174                   21414382.3094
 -27081612.39548 -21086859.14547  20364329.6724                   20364327.5784
 -25234808.67247 -19640784.51244  23472318.9614                   23472317.3984
 -22351218.45747 -17393783.44545  22608677.9304                   22608676.2774
  -9117189.18447  -7083686.89144  23503236.9384                   23503238.3444
  -6628768.27747  -5154439.76244  23101013.6024                   23101012.8754
 -14556315.19147 -11320143.81644  23516111.2504                   23516114.1054
 -21108944.75048 -16430902.19546  21277119.2814                   21277117.9304
  -8080916.43747  -6291255.20344  23539194.6254                   23539193.5824
 11  9 23  1 35 30.0000000  0  9G15G29G02G05G30G18G25G26G21
 -17671568.16447 -13749383.17646  21396976.3594                   21396974.7034
 -27131227.89548 -21125520.53547  20354888.1644                   20354886.2774
 -25199557.41847 -19613315.97744  23479026.8984                   23479025.2274
 -22293320.12147 -17348667.84045  22619695.5634                   22619694.0434
  -9080760.10547  -7055300.58244  23510168.8204                   23510170.5634
  -6722707.63747  -5227639.10544  23083138.1484                   23083136.9884
 -14501462.19547 -11277401.22344  23526549.7584                   23526551.9494
 -21153683.67248 -16465763.63746  21268605.8754                   21268604.2774
  -8168703.91847  -6359660.88744  23522489.0004                   23522488.0004
 11  9 23  1 36  0.0000000  0  9G15G29G02G05G30G18G25G26G21
 -17762595.30547 -13820313.32046  21379654.3984                   21379652.2704
 -27180325.25848 -21163778.18747  20345545.3524                   20345543.6054
 -25164147.88747 -19585724.11344  23485765.5164                   23485763.1254
 -22235309.50847 -17303464.73845  22630734.4384                   22630732.8054
  -9044046.46947  -7026692.54744  23517156.2664                   23517156.5784
  -6816381.99247  -5300631.96944  23065312.0944                   23065310.6024
 -14446491.28147 -11234566.78944  23537009.6484                   23537013.1954
 -21197739.66448 -16500092.93046  21260222.1644                   21260220.9184
  -8256511.50447  -6428082.23844  23505780.1954                   23505778.2624
 11  9 23  1 36 30.0000000  0  9G15G29G02G05G30G18G25G26G21
 -17853173.01647 -13890893.26246  21362417.9384                   21362415.7464
 -27228906.80948 -21201633.91047  20336300.7034                   20336298.4064
 -25128583.80547 -19558011.80544  23492533.2894                   23492531.0664
 -22177192.37147 -17258178.62545  22641793.7974                   22641792.1954
  -9007055.09447  -6997868.06244  23524194.8754                   23524195.8954
  -6909794.89147  -5373421.10544  23047536.0084                   23047534.5664
 -14391409.48047 -11191645.92644  23547491.9534                   23547495.1484
 -21241115.08248 -16533891.90246  21251968.0634                   21251966.5784
  -8344342.89547  -6496522.15644  23489066.7894                   23489065.0634
 11  9 23  1 37  0.0000000  0  9G15G29G02G05G30G18G25G26G21
 -17943296.97348 -13961119.63746  21345267.8054                   21345265.8554
 -27276969.46548 -21239085.29347  20327154.6644                   20327152.4614
 -25092863.43747 -19530177.73044  23499330.1334                   23499326.6414
 -22118969.07047 -17212809.80945  22652873.5704                   22652871.8244
  -8969787.62947  -6968828.46544  23531286.7114                   23531287.4184
  -7002943.98847  -5446004.66844  23029810.4384                   23029809.5864
 -14336218.33647 -11148639.87544  23557994.2664                   23557997.5084
 -21283807.02748 -16567158.30546  21243843.6724                   21243842.2074
  -8432196.58247  -6564979.45344  23472348.3674                   23472346.5164
 11  9 23  1 37 30.0000000  0  9G15G29G02G05G30G18G25G26G21
 -18032965.66447 -14030991.25446  21328204.4534                   21328202.4884
 -27324512.64548 -21276131.89147  20318107.1884                   20318105.3834
 -25056986.84447 -19502221.93744  23506157.7814                   23506154.8284
 -22060642.56247 -17167360.55945  22663972.6954                   22663971.1134
  -8932248.08647  -6939576.85944  23538430.6094                   23538431.7344
  -7095830.07047  -5518383.29744  23012134.7344                   23012133.2624
 -14280921.80147 -11105551.68744  23568516.8204                   23568519.8134
 -21325815.50848 -16599892.13346  21235850.0634                   21235848.2074
  -8520073.36346  -6633454.73444  23455625.4614                   23455623.9774
 11  9 23  1 38  0.0000000  0  9G15G29G02G05G30G18G25G26G21
 -18122176.73447 -14100506.28946  21311228.2504                   21311226.2854
 -27371535.05148 -21312772.69547  20309159.2114                   20309156.8554
 -25020953.85947 -19474144.27044  23513014.1484                   23513011.1254
 -22002214.83647 -17121832.44545  22675090.9384                   22675089.4884
  -8894439.77347  -6910115.80544  23545624.6094                   23545625.4884
  -7188453.22747  -5590557.02744  22994508.5474                   22994507.6684
 -14225523.19947 -11062383.97745  23579059.2664                   23579062.0944
 -21367139.26648 -16632092.41446  21227986.2114                   21227984.8134
  -8607972.49646  -6701947.43444  23438898.4774                   23438897.1374
 11  9 23  1 38 30.0000000  0  9G15G29G02G05G30G18G25G26G21
 -18210930.29748 -14169664.82446  21294338.6954                   21294337.0434
 -27418038.28148 -21349008.94947  20300310.0634                   20300307.8834
 -24984767.35947 -19445946.96944  23519900.2424                   23519897.4104
 -21943690.64847 -17076229.16845  22686227.4304                   22686226.3914
  -8856368.76247  -6880450.02744  23552869.6724                   23552871.6684
  -7280815.92247  -5662527.80544  22976932.5234                   22976931.5554
 -14170028.52347 -11019141.38345  23589619.5314                   23589622.4734
 -21407780.08648 -16663760.52746  21220252.4774                   21220250.8554
  -8695897.38747  -6770460.21545  23422167.3984                   23422165.3594
 11  9 23  1 39  0.0000000  0  9G15G29G02G05G30G18G25G26G21
 -18299224.89548 -14238465.73046  21277536.7664                   21277535.1524
 -27464021.50848 -21384840.00447  20291559.7274                   20291557.6954
 -24948427.87547 -19417630.46544  23526816.0084                   23526812.1524
 -21885072.80147 -17030552.92645  22697382.1644                   22697381.1524
  -8818038.80947  -6850582.53144  23560164.2344                   23560164.4574
  -7372918.57047  -5734295.93744  22959405.9384                   22959404.6644
 -14114441.54347 -10975826.88345  23600197.2034                   23600200.2074
 -21447737.62148 -16694896.21546  21212649.0234                   21212647.3984
  -8783848.48447  -6838993.44944  23405431.0234                   23405428.6644
 11  9 23  1 39 30.0000000  0  9G15G29G02G05G30G18G25G26G21
 -18387057.02748 -14306906.26646  21260822.5164                   21260820.9144
 -27509482.52348 -21420264.13747  20282908.5784                   20282906.6414
 -24911934.12147 -19389193.73844  23533760.2194                   23533756.6604
 -21826362.33247 -16984804.49645  22708554.8984                   22708553.5704
  -8779452.23447  -6820515.04344  23567506.8594                   23567507.2504
  -7464760.00047  -5805860.52744  22941928.9224                   22941927.8754
 -14058764.42247 -10932442.13744  23610792.5634                   23610795.3054
 -21487009.69548 -16725497.76246  21205175.3524                   21205173.8714
  -8871824.61747  -6907546.19944  23388689.1174                   23388687.0354
 11  9 23  1 40  0.0000000  0  9G15G29G02G05G30G18G25G26G21
 -18474423.37147 -14374983.85246  21244197.5314                   21244195.5204
 -27554418.91848 -21455279.48447  20274357.7034                   20274355.3834
 -24875284.58247 -19360635.63744  23540734.4064                   23540730.8554
 -21767560.06247 -16938984.52745  22719743.9924                   22719742.6804
  -8740611.16047  -6790249.21944  23574897.6414                   23574898.1604
  -7556338.79347  -5877220.48844  22924502.4064                   22924501.6484
 -14002999.28147 -10888988.79745  23621403.5944                   23621407.0944
 -21525594.31248 -16755563.63346  21197833.0004                   21197831.6524
  -8959824.66447  -6976117.57844  23371943.0864                   23371941.5044
 11  9 23  1 40 30.0000000  0  9G15G29G02G05G30G18G25G26G21
 -18561321.64547 -14442696.71946  21227661.2424                   21227659.4844
 -27598829.64548 -21489885.20747  20265906.4064                   20265904.2894
 -24838479.23447 -19331956.09044  23547737.8914                   23547734.5474
 -21708668.17247 -16893094.73445  22730951.1024                   22730949.1724
  -8701518.87147  -6759787.66444  23582336.8594                   23582337.5554
  -7647654.79347  -5948375.66044  22907125.0944                   22907124.0084
 -13947149.30147 -10845469.36744  23632032.0634                   23632035.0904
 -21563490.49248 -16785093.07046  21190621.4224                   21190619.8914
  -9047848.68046  -7044707.62945  23355192.6724                   23355191.4694
 11  9 23  1 41  0.0000000  0  9G15G29G02G05G30G18G25G26G21
 -18647750.12547 -14510043.50046  21211214.2814                   21211212.5704
 -27642714.32448 -21524081.02047  20257555.7584                   20257553.2424
 -24801518.97347 -19303155.90244  23554770.6334                   23554768.7624
 -21649689.36747 -16847137.20345  22742174.3834                   22742173.3754
  -8662179.50047  -6729133.59844  23589822.2424                   23589823.7424
  -7738708.78547  -6019326.66844  22889797.6884                   22889796.8284
 -13891218.63347 -10801887.04744  23642674.5784                   23642678.9494
 -21600698.43448 -16814086.21146  21183541.0084                   21183539.3754
  -9135897.31247  -7113316.87944  23338437.5864                   23338435.9884
 11  9 23  1 41 30.0000000  0  9G15G29G02G05G30G18G25G26G21
 -18733706.08648 -14577022.09446  21194857.5234                   21194855.3984
 -27686071.09448 -21557865.48047  20249304.7584                   20249302.9414
 -24764402.59447 -19274234.02744  23561834.4304                   23561831.3984
 -21590624.78947 -16801112.83245  22753414.1644                   22753411.9654
  -8622595.47347  -6698288.87144  23597355.0784                   23597356.0274
  -7829499.88347  -6090072.82844  22872520.6094                   22872519.7344
 -13835209.54747 -10758243.62545  23653333.2274                   23653336.9574
 -21637216.30148 -16842541.61746  21176591.7504                   21176590.1844
  -9223969.59047  -7181944.57044  23321678.4064                   23321675.8634
 11  9 23  1 42  0.0000000  0  9G15G29G02G05G30G18G25G26G21
 -18819189.77048 -14643632.68446  21178590.2734                   21178588.3524
 -27728901.16448 -21591239.51647  20241154.5554                   20241152.3714
 -24727132.49647 -19245192.39144  23568927.3444                   23568924.4224
 -21531478.60947 -16755024.87545  22764669.3134                   22764667.3484
  -8582772.74646  -6667258.13744  23604932.1724                   23604934.1454
  -7920030.48047  -6160616.00444  22855293.3204                   22855292.1214
 -13779127.84447 -10714543.61344  23664005.2274                   23664008.8984
 -21673045.69148 -16870460.56246  21169774.0314                   21169771.9844
  -9312068.24247  -7250592.82045  23304913.2664                   23304911.6134
 11  9 23  1 42 30.0000000  0  9G15G29G02G05G30G18G25G26G21
 -18904195.39148 -14709870.75446  21162414.1334                   21162412.2464
 -27771200.09448 -21624199.68447  20233105.2344                   20233103.1334
 -24689705.28947 -19216028.28544  23576048.5084                   23576046.0514
 -21472250.26247 -16708872.88345  22775939.6094                   22775938.3554
  -8542711.16447  -6636041.31644  23612556.3444                   23612557.3554
  -8010297.33647  -6230953.66044  22838115.8834                   22838114.8284
 -13722973.31646 -10670786.83244  23674691.4454                   23674694.8164
 -21708182.75848 -16897840.02346  21163087.3524                   21163085.8834
  -9400189.44147  -7319258.61344  23288143.8914                   23288142.4884
 11  9 23  1 43  0.0000000  0  9G15G29G02G05G30G18G25G26G21
 -18988723.00848 -14775736.35946  21146329.0234                   21146327.3484
 -27812968.94948 -21656746.80547  20225157.0004                   20225154.9304
 -24652122.91446 -19186743.29744  23583201.0234                   23583197.6254
 -21412943.82447 -16662660.04745  22787225.3834                   22787223.2194
  -8502416.18747  -6604642.59444  23620224.0864                   23620225.4224
  -8100302.15247  -6301087.12944  22820988.8134                   22820987.0354
 -13666751.34446 -10626977.55544  23685389.1484                   23685392.9304
 -21742628.85548 -16924681.08246  21156532.2504                   21156530.7544
  -9488335.31647  -7387943.64845  23271370.3284                   23271368.5204
 11  9 23  1 43 30.0000000  0  9G15G29G02G05G30G18G25G26G21
 -19072766.46148 -14841224.68746  21130335.8524                   21130334.3754
 -27854202.50048 -21688876.80147  20217310.3674                   20217308.3634
 -24614380.99646 -19157333.98444  23590382.2114                   23590379.6844
 -21353556.91047 -16616384.49245  22798526.0164                   22798524.3554
  -8461887.20747  -6573061.53144  23627936.3364                   23627937.7504
  -8190041.29346  -6371013.59444  22803911.8444                   22803910.6254
 -13610461.19947 -10583115.10944  23696101.8914                   23696105.0314
 -21776379.26248 -16950980.04346  21150110.2584                   21150108.6094
  -9576501.92247  -7456644.83644  23254593.1724                   23254591.0634
 11  9 23  1 44  0.0000000  0  9G15G29G02G05G30G18G25G26G21
 -19156328.66048 -14906338.01246  21114434.6954                   21114432.9924
 -27894905.00048 -21720592.99647  20209565.1724                   20209562.7624
 -24576484.86747 -19127804.51244  23597593.5634                   23597592.0434
 -21294096.61747 -16570051.78545  22809841.2034                   22809839.9804
  -8421132.51647  -6541304.64544  23635691.1724                   23635692.8874
  -8279519.48046  -6440736.71544  22786884.4454                   22786882.8134
 -13554111.03547 -10539205.91444  23706824.6724                   23706828.2934
 -21809438.30948 -16976740.28146  21143819.0234                   21143817.5864
  -9664694.18446  -7525366.01244  23237810.5164                   23237808.0204
 11  9 23  1 44 30.0000000  0  9G15G29G02G05G30G18G25G26G21
 -19239405.12548 -14971072.84446  21098625.6644                   21098624.0434
 -27935072.64148 -21751892.41847  20201921.3834                   20201919.3284
 -24538432.00847 -19098152.87544  23604835.1254                   23604832.2234
 -21234562.80547 -16523661.78945  22821169.2814                   22821168.7854
  -8380153.07447  -6509372.57044  23643490.0864                   23643491.1214
  -8368734.17247  -6510254.53144  22769907.6174                   22769905.7664
 -13497701.77347 -10495250.64544  23717559.3364                   23717562.7194
 -21841803.04348 -17001959.49646  21137660.1484                   21137658.3984
  -9752909.40247  -7594105.05544  23221023.8754                   23221021.6994
 11  9 23  1 45  0.0000000  0  9G15G29G02G05G30G18G25G26G21
 -19321993.70748 -15035427.52046  21082909.4844                   21082907.7504
 -27974704.66848 -21782774.47347  20194379.4844                   20194377.5984
 -24500222.21947 -19068379.01244  23612106.2814                   23612103.5704
 -21174957.37547 -16477215.99245  22832512.4534                   22832510.9844
  -8338952.14547  -6477267.93444  23651330.2894                   23651331.2664
  -8457685.54747  -6579567.16045  22752980.4384                   22752978.4024
 -13441236.53147 -10451251.75044  23728303.7344                   23728307.1294
 -21873472.99248 -17026637.32446  21131633.5554                   21131632.1214
  -9841147.57847  -7662861.97345  23204232.3364                   23204230.6254
 11  9 23  1 45 30.0000000  0  9G15G29G02G05G30G18G25G26G21
 -19404090.27048 -15099398.78946  21067287.1024                   21067285.1134
 -28013798.32848 -21813237.02347  20186940.1414                   20186938.2384
 -24461853.27046 -19038481.08644  23619407.2424                   23619404.6684
 -21115279.77747 -16430713.97745  22843868.8444                   22843866.9774
  -8297531.22747  -6444991.86744  23659212.7194                   23659213.3404
  -8546371.77047  -6648673.15245  22736103.8284                   22736102.5204
 -13384716.52347 -10407210.19144  23739059.5164                   23739062.6094
 -21904445.68048 -17050771.83646  21125739.9534                   21125737.9494
  -9929406.75447  -7731635.25444  23187437.0314                   23187435.0234
 11  9 23  1 46  0.0000000  0  9G15G29G02G05G30G18G25G26G21
 -19485695.28148 -15162987.02746  21051757.9614                   21051755.9574
 -28052355.20348 -21843281.30547  20179603.0164                   20179600.8054
 -24423327.70347 -19008461.12944  23626738.4454                   23626736.3834
 -21055535.04747 -16384159.62545  22855237.9844                   22855236.5164
  -8255896.20747  -6412548.98444  23667135.1174                   23667136.3324
  -8634795.16047  -6717574.35944  22719277.3594                   22719275.8094
 -13328147.62947 -10363130.54344  23749824.2894                   23749826.9844
 -21934722.80547 -17074364.34046  21119978.1024                   21119976.6724
 -10017689.50047  -7800426.89145  23170637.4454                   23170635.6214
 11  9 23  1 46 30.0000000  0  9G15G29G02G05G30G18G25G26G21
 -19566805.27348 -15226189.55146  21036323.3674                   21036321.2934
 -28090372.65248 -21872905.24247  20172368.4844                   20172366.2774
 -24384644.25847 -18978318.14144  23634099.4304                   23634097.3404
 -20995723.40647 -16337553.15245  22866619.6414                   22866618.6374
  -8214048.90647  -6379940.68744  23675098.9224                   23675099.3444
  -8722954.32847  -6786269.66845  22702501.1644                   22702500.0164
 -13271531.43747 -10319014.01244  23760597.5234                   23760601.0124
 -21964302.83648 -17097413.66846  21114349.1564                   21114347.7464
 -10105993.94947  -7869235.43745  23153833.4614                   23153831.7814
 11  9 23  1 47  0.0000000  0  9G15G29G02G05G30G18G25G26G21
 -19647419.09848 -15289005.44946  21020982.9144                   21020980.8984
 -28127850.52048 -21902108.73847  20165236.6414                   20165234.8674
 -24345803.43446 -18948052.54344  23641491.0084                   23641488.7774
 -20935847.78147 -16290896.81245  22878014.4064                   22878012.3874
  -8171993.51647  -6347170.20744  23683101.7034                   23683102.5004
  -8810850.12547  -6854759.76645  22685774.9144                   22685773.1764
 -13214872.01647 -10274863.83244  23771379.9534                   23771383.3444
 -21993186.02348 -17119920.00046  21108852.6884                   21108851.2234
 -10194320.75847  -7938061.42644  23137025.7274                   23137023.1764
 11  9 23  1 47 30.0000000  0  9G15G29G02G05G30G18G25G26G21
 -19727534.69948 -15351433.10946  21005737.2424                   21005735.4964
 -28164788.07848 -21930891.20747  20158207.8054                   20158205.5904
 -24306805.41446 -18917664.44944  23648912.0704                   23648909.6844
 -20875910.36747 -16244192.30145  22889419.2274                   22889417.1334
  -8129733.45347  -6314240.24644  23691143.5394                   23691143.5004
  -8898482.67647  -6923044.73045  22669099.0394                   22669097.0044
 -13158172.66447 -10230682.46944  23782169.2974                   23782172.1174
 -22021372.10247 -17141883.12946  21103488.9924                   21103487.5784
 -10282669.98047  -8006904.86744  23120213.3204                   23120210.7974
 11  9 23  1 48  0.0000000  0  9G15G29G02G05G30G18G25G26G21
 -19807149.66848 -15413470.68746  20990587.1334                   20990584.8444
 -28201184.28148 -21959251.84847  20151281.5704                   20151279.5474
 -24267649.62147 -18887153.41044  23656362.6884                   23656360.9414
 -20815912.44147 -16197440.66845  22900836.6954                   22900835.3094
  -8087271.64547  -6281153.11344  23699223.5944                   23699224.9414
  -8985851.75046  -6991124.38744  22652473.4454                   22652470.9574
 -13101436.13747 -10186472.17644  23792965.7344                   23792968.6484
 -22048860.44148 -17163302.56646  21098258.0554                   21098256.5704
 -10371040.98846  -8075765.24645  23103396.3364                   23103395.0984
 11  9 23  1 48 30.0000000  0  9G15G29G02G05G30G18G25G26G21
 -19886260.25048 -15475115.21146  20975532.6564                   20975530.5164
 -28237036.23448 -21987188.39547  20144459.2974                   20144457.0984
 -24228333.82847 -18856517.69944  23663844.3524                   23663842.5474
 -20755853.93047 -16150641.82845  22912264.8054                   22912264.0354
  -8044609.48047  -6247909.85544  23707342.0554                   23707343.0944
  -9072955.17246  -7058997.04744  22635897.8134                   22635895.7774
 -13044663.57447 -10142233.82444  23803769.0314                   23803772.2464
 -22075648.32448 -17184176.19146  21093160.3524                   21093158.8244
 -10459431.66847  -8144640.98845  23086576.5234                   23086574.9964
 11  9 23  1 49  0.0000000  0  9G15G29G02G05G30G18G25G26G21
 -19964865.42248 -15536365.91846  20960574.6094                   20960572.7344
 -28272343.65648 -22014700.63747  20137740.5474                   20137738.4804
 -24188859.00047 -18825758.09444  23671356.2504                   23671354.9574
 -20695737.74647 -16103798.03545  22923704.9924                   22923702.6174
  -8001751.44947  -6214513.93044  23715497.0394                   23715498.1174
  -9159794.36747  -7126663.82845  22619372.6024                   22619371.2384
 -12987859.22347 -10097970.66044  23814579.1724                   23814582.0474
 -22101736.69948 -17204504.75446  21088195.7734                   21088194.3484
 -10547842.66047  -8213532.53945  23069752.1484                   23069749.6134
 11  9 23  1 49 30.0000000  0  9G15G29G02G05G30G18G25G26G21
 -20042963.29348 -15597221.32446  20945712.6334                   20945710.7544
 -28307106.34848 -22041788.40247  20131125.2504                   20131123.0664
 -24149225.69147 -18794874.93444  23678898.3284                   23678895.6374
 -20635566.25447 -16056911.12545  22935155.0084                   22935152.6334
  -7958701.10247  -6180968.19544  23723689.2504                   23723690.8594
  -9246368.98047  -7194124.43745  22602898.1484                   22602896.4024
 -12931026.53147 -10053685.41044  23825393.5704                   23825397.2344
 -22127125.65648 -17224288.30546  21083364.2894                   21083362.9574
 -10636274.30547  -8282440.20745  23052924.4534                   23052922.2504
 11  9 23  1 50  0.0000000  0  9G15G29G02G05G30G18G25G26G21
 -20120552.30948 -15657680.22346  20930948.5394                   20930946.3554
 -28341323.60948 -22068451.16447  20124613.9144                   20124612.0044
 -24109433.83647 -18763868.26244  23686470.4144                   23686466.9534
 -20575341.37547 -16009982.63745  22946615.2344                   22946614.0314
  -7915461.98446  -6147275.34443  23731917.1414                   23731917.9454
  -9332680.18047  -7261379.78145  22586473.0084                   22586471.3204
 -12874168.84846 -10009380.71144  23836213.0394                   23836216.4414
 -22151815.19947 -17243526.85946  21078666.3914                   21078665.1294
 -10724726.68447  -8351364.00045  23036092.0944                   23036089.5124
 11  9 23  1 50 30.0000000  0  9G15G29G02G05G30G18G25G26G21
 -20197628.02048 -15717739.14546  20916281.2114                   20916279.1334
 -28374992.70348 -22094686.78547  20118206.7344                   20118204.9614
 -24069480.91847 -18732736.10944  23694072.6724                   23694070.5554
 -20515062.40647 -15963012.00845  22958085.9694                   22958084.3794
  -7872034.91046  -6113436.06644  23740181.3054                   23740182.3134
  -9418725.35247  -7328427.80945  22570099.2504                   22570097.4964
 -12817286.78147  -9965057.01244  23847037.9454                   23847040.6994
 -22175802.43447 -17262218.14846  21074101.7034                   21074100.0394
 -10813197.37147  -8420302.09045  23019256.8364                   23019254.9144
 11  9 23  1 51  0.0000000  0  9G15G29G02G05G30G18G25G26G21
 -20274191.65248 -15777399.04746  20901711.6414                   20901709.3324
 -28408115.68748 -22120496.86747  20111903.8524                   20111901.6484
 -24029370.39547 -18701481.09044  23701706.0314                   23701703.1294
 -20454735.02047 -15916003.64145  22969566.2814                   22969564.0434
  -7828426.53546  -6079455.48444  23748479.6254                   23748480.8954
  -9504507.57047  -7395270.96545  22553775.5164                   22553773.9884
 -12760386.85947  -9920719.39544  23857865.8444                   23857868.0314
 -22199090.80548 -17280364.87946  21069669.7344                   21069668.0864
 -10901688.91447  -8489256.40645  23002417.0394                   23002414.9534
 11  9 23  1 51 30.0000000  0  9G15G29G02G05G30G18G25G26G21
 -20350240.71148 -15836657.97746  20887240.1094                   20887237.7274
 -28440690.71148 -22145879.96147  20105704.7584                   20105702.7234
 -23989100.95347 -18670102.26243  23709368.5164                   23709365.4384
 -20394359.46547 -15868957.74245  22981055.1484                   22981053.0744
  -7784639.21147  -6045335.47744  23756812.1414                   23756813.3014
  -9590026.00447  -7461908.57045  22537502.0084                   22537500.0164
 -12703471.06646  -9876369.40244  23868695.8674                   23868699.9614
 -22221678.94948 -17297965.97746  21065371.3674                   21065370.3364
 -10990200.16847  -8558226.09845  22985574.4534                   22985571.6294
 11  9 23  1 52  0.0000000  0  9G15G29G02G05G30G18G25G26G21
 -20425773.47348 -15895514.60246  20872866.1334                   20872863.9964
 -28472717.63748 -22170835.97347  20099610.4924                   20099608.3554
 -23948672.94546 -18638599.89143  23717062.1414                   23717058.1724
 -20333937.96547 -15821876.05945  22992553.1094                   22992551.2424
  -7740676.37146  -6011078.69944  23765178.0084                   23765178.7584
  -9675280.94547  -7528340.85245  22521277.9924                   22521276.4384
 -12646542.85946  -9832009.72744  23879528.9384                   23879531.6024
 -22243566.98448 -17315021.52346  21061206.1024                   21061204.5594
 -11078731.29747  -8627211.25845  22968727.1564                   22968724.6604
 11  9 23  1 52 30.0000000  0  9G15G29G02G05G30G18G25G26G21
 -20500785.03148 -15953965.09446  20858592.3284                   20858589.8324
 -28504192.56648 -22195361.85547  20093620.9614                   20093618.6134
 -23908083.03946 -18606971.32043  23724785.7734                   23724782.0904
 -20273469.52347 -15774757.78945  23004060.4224                   23004057.5514
  -7696538.60247  -5976685.59443  23773577.6094                   23773577.8164
  -9760269.84047  -7594565.82445  22505105.4384                   22505103.3284
 -12589602.30946  -9787640.45344  23890364.8444                   23890367.4734
 -22264752.08248 -17331529.35246  21057175.0004                   21057172.9774
 -11167278.93447  -8696209.29345  22951876.8754                   22951874.1914
 11  9 23  1 53  0.0000000  0  9G15G29G02G05G30G18G25G26G21
 -20575273.79348 -16012008.21546  20844417.3834                   20844414.9774
 -28535115.10548 -22219457.30947  20087736.6484                   20087734.6764
 -23867331.75846 -18575217.03944  23732540.3754                   23732537.6524
 -20212955.94946 -15727604.35945  23015575.3524                   23015573.2464
  -7652229.46946  -5942158.98443  23782009.4064                   23782009.7194
  -9844992.94547  -7660583.68445  22488983.1884                   22488981.0704
 -12532652.83646  -9743264.22744  23901201.0554                   23901205.0594
 -22285234.40648 -17347489.54746  21053277.2814                   21053275.0664
 -11255843.35247  -8765220.40645  22935023.3834                   22935021.2544
 11  9 23  1 53 30.0000000  0  9G15G29G02G05G30G18G25G26G21
 -20649239.35248 -16069643.64846  20830342.2424                   20830339.7734
 -28565486.27048 -22243123.11747  20081956.9924                   20081954.5704
 -23826420.48046 -18543338.08243  23740325.3594                   23740323.6094
 -20152400.44947 -15680418.26645  23027099.3594                   23027096.6804
  -7607753.60947  -5907502.43443  23790472.0164                   23790472.8834
  -9929451.76647  -7726395.60945  22472910.9924                   22472908.7664
 -12475698.89847  -9698884.53144  23912040.0784                   23912041.9734
 -22305015.33648 -17362903.19546  21049512.9534                   21049510.9804
 -11344425.60547  -8834245.42645  22918167.0004                   22918164.6524
 11  9 23  1 54  0.0000000  0  9G15G29G02G05G30G18G25G26G21
 -19147257.48848 -14899268.09846  21116159.6644                   21116157.2274
 -27019883.89548 -21038757.59847  20376075.3594                   20376073.3364
 -22209930.16047 -17283735.19144  24047934.1724                   24047932.4884
 -18516387.04347 -14405602.61745  23338422.0554                   23338419.9774
  -5987695.64547  -4645119.56244  24098758.9144                   24098760.4494
  -8438223.31247  -6564399.26645  22756682.3754                   22756680.3914
 -10843325.25847  -8426905.02044  24222669.8284                   24222672.9384
 -20748674.06648 -16150169.68046  21345674.6094                   21345672.8634
  -9857601.89847  -7675681.37145  23201100.0784                   23201096.9884
 11  9 23  1 54 30.0000000  0  9G15G29G02G05G30G18G25G26G21
 -19220171.56648 -14956084.19546  21102284.3754                   21102282.2814
 -27049149.93748 -21061562.27747  20370506.0234                   20370503.9264
 -22168698.54346 -17251606.62543  24055779.5554                   24055776.9104
 -18455753.44946 -14358355.68445  23349959.6884                   23349958.7114
  -5942896.44947  -4610211.07843  24107284.2734                   24107284.9614
  -8522153.97747  -6629799.63745  22740710.2584                   22740708.1294
 -10786371.71147  -8382525.59444  24233507.6484                   24233511.2194
 -20767052.25048 -16164490.29346  21342177.6334                   21342175.5394
  -9946219.09047  -7744733.62145  23184236.1484                   23184233.5084
 11  9 23  1 55  0.0000000  0  9G15G29G02G05G30G18G25G26G21
 -19292558.38348 -15012489.44546  21088510.0164                   21088507.4184
 -27077863.71147 -21083936.60947  20365042.0634                   20365039.6294
 -22127308.12946 -17219354.32444  24063656.1484                   24063654.5744
 -18395084.68046 -14311081.34845  23361505.2584                   23361503.0944
  -5897941.71547  -4575181.40243  24115839.1484                   24115839.6804
  -8605822.07047  -6694995.41445  22724789.0474                   22724786.5984
 -10729424.14547  -8338150.84444  24244344.7504                   24244346.9614
 -20784730.48448 -16178265.48046  21338813.3444                   21338811.4964
 -10034854.29747  -7813799.89545  23167369.7034                   23167367.2424
 11  9 23  1 55 30.0000000  0  9G15G29G02G05G30G18G25G26G21
 -19364413.03148 -15068480.02046  21074836.3134                   21074833.8554
 -27106021.73048 -21105877.89147  20359683.7424                   20359681.4024
 -22085755.72346 -17186975.78944  24071562.7894                   24071561.5084
 -18334379.49247 -14263778.60545  23373057.1884                   23373054.9654
  -5852831.95346  -4540030.93444  24124422.7664                   24124424.5354
  -8689224.85547  -6759984.46945  22708917.8834                   22708915.4774
 -10672482.85247  -8293780.93044  24255179.8204                   24255183.1454
 -20801706.14848 -16191493.22346  21335582.8444                   21335581.4144
 -10123503.93747  -7882877.44945  23150500.4144                   23150497.3954
 11  9 23  1 56  0.0000000  0  9G15G29G02G05G30G18G25G26G21
 -19435733.78148 -15124054.56646  21061264.2504                   21061262.0704
 -27133622.83648 -21127385.21947  20354431.3524                   20354429.0984
 -22044041.03147 -17154470.77343  24079500.8134                   24079498.7584
 -18273638.99247 -14216448.35245  23384615.7274                   23384613.5594
  -5807569.82446  -4504761.74644  24133036.6644                   24133037.0984
  -8772361.84047  -6824766.41445  22693097.2734                   22693094.8484
 -10615550.17647  -8249417.77744  24266014.1094                   24266017.3284
 -20817978.59448 -16204173.00846  21332486.8204                   21332484.5984
 -10212167.50847  -7951965.84045  23133627.9064                   23133625.1604
 11  9 23  1 56 30.0000000  0  9G15G29G02G05G30G18G25G26G21
 -19506522.11348 -15179214.23846  21047793.6334                   21047791.2854
 -27160669.47348 -21148460.48847  20349284.5474                   20349282.1914
 -22002166.64547 -17121841.36744  24087469.8984                   24087467.6914
 -18212867.78547 -14169094.18045  23396179.3834                   23396177.8364
  -5762161.52746  -4469378.64843  24141676.3444                   24141677.9574
  -8855236.03547  -6889343.58245  22677326.9534                   22677323.7624
 -10558632.02347  -8205065.93444  24276845.1954                   24276848.2664
 -20833550.85248 -16216307.18446  21329523.1334                   21329521.1884
 -10300847.55947  -8021067.09045  23116752.5314                   23116749.7774
 11  9 23  1 57  0.0000000  0  9G15G29G02G05G30G18G25G26G21
 -19576771.48048 -15233953.94146  21034425.6954                   21034423.2704
 -27187156.96148 -21169100.05547  20344244.2274                   20344242.0084
 -21960128.48047 -17089084.28543  24095469.6804                   24095464.8914
 -18152063.60547 -14121714.30145  23407750.1644                   23407748.5474
  -5716606.37146  -4433881.06644  24150345.6724                   24150347.5274
  -8937843.64547  -6953713.03145  22661606.7664                   22661604.4734
 -10501727.41447  -8160724.66444  24287673.9144                   24287676.5044
 -20848419.33248 -16227892.97346  21326693.7584                   21326691.7934
 -10389539.58647  -8090177.65245  23099874.9614                   23099872.3134
 11  9 23  1 57 30.0000000  0  9G15G29G02G05G30G18G25G26G21
 -19646482.88748 -15288274.45746  21021160.1954                   21021157.8164
 -27213087.13748 -21189305.35247  20339309.7194                   20339307.3634
 -21917929.28147 -17056201.72743  24103498.9304                   24103494.7344
 -18091230.69547 -14074312.02745  23419326.3594                   23419324.7464
  -5670910.15646  -4398273.62543  24159041.3754                   24159042.7074
  -9020187.34447  -7017876.82845  22645937.2734                   22645935.3404
 -10444841.96547  -8116398.30144  24298498.8134                   24298501.4774
 -20862586.71148 -16238932.44546  21323997.8054                   21323995.7664
 -10478246.14147  -8159299.54745  23082994.5784                   23082992.0434
 11  9 23  1 58  0.0000000  0  9G15G29G02G05G30G18G25G26G21
 -19715654.01648 -15342173.97746  21007996.9144                   21007994.7624
 -27238458.93748 -21209075.55547  20334481.6724                   20334479.3404
 -21875567.85947 -17023192.77344  24111561.3204                   24111556.9454
 -18030369.69547 -14026887.88745  23430907.9304                   23430906.4384
  -5625075.29746  -4362558.14544  24167763.6954                   24167764.5234
  -9102266.67647  -7081834.64545  22630318.1414                   22630316.0634
 -10387977.74647  -8072088.48444  24309319.4774                   24309322.0314
 -20876052.38348 -16249425.13746  21321435.2814                   21321433.0164
 -10566965.71147  -8228431.59845  23066111.9384                   23066109.1954
 11  9 23  1 58 30.0000000  0  9G15G29G02G05G30G18G25G26G21
 -19784285.02348 -15395652.62146  20994937.0234                   20994934.4924
 -27263273.93748 -21228411.88747  20329759.4454                   20329757.1174
 -21833046.34047 -16990059.04744  24119652.2974                   24119646.3554
 -17969484.27747 -13979444.69145  23442494.2584                   23442492.2974
  -5579107.04746  -4326738.68744  24176510.3204                   24176512.0784
  -9184083.43747  -7145587.86345  22614748.8834                   22614745.7544
 -10331139.56247  -8027798.96944  24320135.3834                   24320139.1174
 -20888818.52348 -16259372.75046  21319006.0474                   21319004.1174
 -10655700.09447  -8297575.19545  23049226.0164                   23049223.3054
 11  9 23  1 59  0.0000000  0  9G15G29G02G05G30G18G25G26G21
 -19852372.49648 -15448707.72746  20981980.7584                   20981977.9024
 -27287529.79748 -21247312.52347  20325143.7424                   20325141.6134
 -21790362.53547 -16956798.90644  24127774.5164                   24127771.0634
 -17908574.28947 -13931982.33645  23454085.5474                   23454083.5984
  -5533006.62947  -4290816.26644  24185283.9694                   24185284.9264
  -9265635.93747  -7209135.15245  22599229.8284                   22599227.1764
 -10274328.70347  -7983530.71544  24330945.9224                   24330949.6454
 -20900883.77748 -16268774.21146  21316710.2274                   21316707.7544
 -10744446.46147  -8366728.12545  23032338.4144                   23032335.4454
 11  9 23  1 59 30.0000000  0  9G15G29G02G05G30G18G25G26G21
 -19919914.47748 -15501337.78546  20969127.2584                   20969125.2274
 -27311225.37948 -21265776.58247  20320634.5164                   20320632.3014
 -21747516.18747 -16923412.08644  24135928.2894                   24135924.2894
 -17847641.03547 -13884501.87545  23465680.3524                   23465678.7734
  -5486776.94547  -4254793.13344  24194080.4694                   24194082.6054
  -9346924.38347  -7272476.70345  22583761.1644                   22583758.9964
 -10217547.49647  -7939285.62144  24341751.2504                   24341754.4964
 -20912247.83648 -16277629.27746  21314547.4774                   21314545.4614
 -10833204.16847  -8435889.89845  23015448.0004                   23015445.7194
 11  9 23  2  0  0.0000000  0  9G15G29G02G05G30G18G25G26G21
 -19986911.28948 -15553543.03147  20956378.2814                   20956375.8914
 -27334361.98048 -21283805.07447  20316231.8984                   20316229.4884
 -21704509.00847 -16889899.94944  24144111.2114                   24144108.2894
 -17786687.53547 -13837005.61745  23477279.0474                   23477278.0434
  -5440423.09847  -4218673.23444  24202901.7664                   24202902.3984
  -9427950.35947  -7335613.71945  22568341.9064                   22568340.2704
 -10160800.79347  -7895067.41444  24352550.4144                   24352552.6724
 -20922913.07848 -16285939.82046  21312518.1174                   21312516.1094
 -10921974.48447  -8505061.49245  22998555.7584                   22998552.7074
 11  9 23  2  0 30.0000000  0  9G15G29G02G05G30G18G25G26G21
 -20053358.34048 -15605319.90246  20943733.9774                   20943731.2464
 -27356936.78548 -21301395.80547  20311936.0704                   20311933.5554
 -21661338.30547 -16856260.39144  24152326.4924                   24152324.5904
 -17725712.67647 -13789492.71945  23488882.2974                   23488880.4144
  -5393945.59047  -4182456.96544  24211745.9144                   24211747.0594
  -9508711.34047  -7398544.23045  22552973.4614                   22552971.7234
 -10104088.83247  -7850876.22743  24363341.9304                   24363344.2814
 -20932877.17648 -16293704.02746  21310621.9064                   21310619.8484
 -11010754.59447  -8574240.75445  22981661.4064                   22981658.2854
 11  9 23  2  1  0.0000000  0  9G15G29G02G05G30G18G25G26G21
 -20119257.07448 -15656669.50046  20931193.9144                   20931191.4924
 -27378952.21148 -21318550.64547  20307746.6174                   20307744.3954
 -21618007.03547 -16822495.78144  24160572.0944                   24160569.7814
 -17664721.14847 -13741966.83245  23500489.1644                   23500487.2624
  -5347350.71947  -4146149.25844  24220613.2274                   24220612.9774
  -9589210.60947  -7461270.84845  22537655.1254                   22537653.1134
 -10047417.42646  -7806716.66443  24374125.5944                   24374128.4534
 -20942143.59048 -16300924.57846  21308858.3674                   21308856.5594
 -11099546.68747  -8643429.32845  22964764.3204                   22964761.9454
 11  9 23  2  1 30.0000000  0  9G15G29G02G05G30G18G25G26G21
 -20184604.91848 -15707589.85246  20918758.4304                   20918756.0514
 -27400406.53148 -21335268.26647  20303663.8594                   20303661.5004
 -21574513.84846 -16788604.94144  24168848.2734                   24168847.2074
 -17603713.50047 -13694428.37945  23512097.6094                   23512096.5944
  -5300640.28947  -4109751.48844  24229500.4844                   24229502.0824
  -9669447.05147  -7523792.64545  22522386.6644                   22522384.3324
  -9990788.21946  -7762589.98843  24384901.5704                   24384904.7704
 -20950711.39548 -16307600.75446  21307227.8524                   21307225.7544
 -11188348.70747  -8712625.62945  22947866.2424                   22947863.5474
 11  9 23  2  2  0.0000000  0  9G15G29G02G05G30G18G25G26G21
 -20249401.19548 -15758080.39546  20906428.1724                   20906425.7734
 -27421300.47748 -21351549.23447  20299687.9454                   20299685.5984
 -21530859.66846 -16754588.68744  24177156.0474                   24177153.1954
 -17542691.85247 -13646879.03945  23523709.6644                   23523708.5984
  -5253818.46147  -4073266.94544  24238410.7274                   24238412.5084
  -9749421.75847  -7586110.48845  22507167.6174                   22507165.2894
  -9934205.04746  -7718499.20744  24395670.0474                   24395672.7384
 -20958582.09048 -16313733.72746  21305729.8594                   21305728.2774
 -11277161.19947  -8781830.10245  22930965.4774                   22930962.4104
 11  9 23  2  2 30.0000000  0  9G15G29G02G05G30G18G25G26G21
 -20313643.07848 -15808138.94946  20894203.3054                   20894200.7424
 -27441632.25448 -21367392.15247  20295818.9304                   20295816.6174
 -21487043.06247 -16720445.85944  24185494.4064                   24185491.6564
 -17481656.57447 -13599319.07845  23535323.9774                   23535323.8634
  -5206887.30947  -4036697.18444  24247341.9384                   24247343.0904
  -9829133.84047  -7648223.70345  22491998.9614                   22491996.5204
  -9877669.66046  -7674445.58643  24406427.2974                   24406430.5744
 -20965754.97748 -16319322.96146  21304365.3594                   21304363.1884
 -11365982.69147  -8851041.57845  22914063.4304                   22914060.8634
 11  9 23  2  3  0.0000000  0  9G15G29G02G05G30G18G25G26G21
 -20377328.16848 -15857763.64146  20882084.3754                   20882081.7114
 -27461400.59448 -21382796.03147  20292057.0864                   20292054.8754
 -21443063.22346 -16686175.82044  24193863.1094                   24193859.9964
 -17420608.18047 -13551748.90645  23546941.3754                   23546940.3984
  -5159848.95747  -4000043.86344  24256292.7894                   24256293.4344
  -9908582.32447  -7710131.50845  22476880.8754                   22476878.0434
  -9821183.69146  -7630430.54343  24417176.7734                   24417179.2464
 -20972229.78948 -16324368.23446  21303133.0004                   21303131.1374
 -11454811.63747  -8920258.84445  22897159.7584                   22897157.4144
 11  9 23  2  3 30.0000000  0  9G15G29G02G05G30G18G25G26G21
 -20440453.94948 -15906952.50446  20870071.8674                   20870069.3594
 -27480604.35248 -21397759.97347  20288402.8754                   20288400.3204
 -21398918.78547 -16651777.52344  24202264.4384                   24202260.6134
 -17359547.23847 -13504168.92244  23558560.2584                   23558560.0434
  -5112705.65647  -3963308.78944  24265263.9614                   24265265.4804
  -9987766.80147  -7771833.59845  22461811.8914                   22461809.7584
  -9764749.20746  -7586455.59443  24427915.9144                   24427919.3054
 -20978005.93748 -16328869.08246  21302034.2734                   21302031.7544
 -11543646.53147  -8989480.77045  22880254.9844                   22880251.8554
 11  9 23  2  4  0.0000000  0  9G15G29G02G05G30G18G25G26G21
 -20503020.87548 -15955705.89546  20858165.5944                   20858163.2384
 -27499245.06248 -21412285.17247  20284855.3834                   20284853.2894
 -21354612.00846 -16617252.77044  24210694.9224                   24210691.6914
 -17298476.84447 -13456581.61744  23570181.4844                   23570181.1334
  -5065462.31247  -3926495.73043  24274253.8914                   24274254.8404
 -10066688.93447  -7833331.27045  22446793.6024                   22446790.9414
  -9708370.76646  -7542524.30144  24438644.0704                   24438647.8984
 -20983085.87548 -16332827.43746  21301067.1644                   21301064.9804
 -11632488.55147  -9058708.22745  22863348.7034                   22863346.3914
 11  9 23  2  4 30.0000000  0  9G15G29G02G05G30G18G25G26G21
 -20565027.35248 -16004022.57446  20846366.0164                   20846363.5394
 -27517322.30948 -21426371.31247  20281415.6644                   20281413.1174
 -21310142.54746 -16582601.19143  24219156.6954                   24219153.4304
 -17237398.30147 -13408987.94545  23581804.9454                   23581803.5274
  -5018121.87547  -3889607.04343  24283262.3204                   24283263.0824
 -10145348.30147  -7894624.18745  22431825.0944                   22431822.5664
  -9652051.05146  -7498638.84044  24449361.6254                   24449364.8054
 -20987470.09448 -16336243.66846  21300232.8674                   21300230.2774
 -11721336.82047  -9127940.55145  22846441.4384                   22846438.1884
 11  9 23  2  5  0.0000000  0  9G15G29G02G05G30G18G25G26G21
 -20626469.55548 -16051899.56646  20834673.9844                   20834671.3594
 -27534833.27348 -21440016.19547  20278083.1094                   20278080.4964
 -21265508.10946 -16547821.07843  24227651.4614                   24227646.3674
 -17176311.12947 -13361387.55145  23593429.1724                   23593428.1484
  -4970685.50047  -3852643.57443  24292289.0084                   24292289.8914
 -10223743.87947  -7955711.54345  22416906.8834                   22416903.8524
  -9595790.64547  -7454799.53944  24460067.7034                   24460070.7974
 -20991156.95748 -16339116.50846  21299531.2894                   21299529.6724
 -11810188.42648  -9197175.47745  22829533.4064                   22829530.0594
 11  9 23  2  5 30.0000000  0  9G15G29G02G05G30G18G25G26G21
 -20687348.27348 -16099337.46946  20823089.4304                   20823086.7154
 -27551779.87148 -21453221.30947  20274858.5234                   20274855.8914
                                  24236174.2664                   24236171.7114
 -17115218.57047 -13313782.95745  23605055.0314                   23605054.2624
  -4923158.08246  -3815609.19543  24301333.4224                   24301333.5824
 -10301877.49647  -8016594.79745  22402038.7974                   22402035.5984
  -9539594.32847  -7411010.19144  24470761.2664                   24470764.7384
 -20994149.39148 -16341448.23446  21298961.9454                   21298959.6604
 -11899044.91047  -9266414.20345  22812624.3284                   22812621.9304
 11  9 23  2  6  0.0000000  0  9G15G29G02G05G30G18G25G26G21
 -20747662.64148 -16146335.62146  20811611.6644                   20811609.0124
 -27568162.73448 -21465987.14147  20271740.6174                   20271738.5554
 -21175750.23445 -16477879.84443  24244730.0864                   24244727.3594
 -17054122.64147 -13266175.74245  23616680.9774                   23616679.8954
  -4875543.55146  -3778506.89143  24310393.5554                   24310394.4654
 -10379749.95347  -8077274.52745  22387219.7274                   22387217.2974
  -9483465.47347  -7367273.39844  24481442.7894                   24481445.1524
 -20996448.57848 -16343239.76246  21298524.3914                   21298521.9694
 -11987906.34047  -9335656.76645  22795714.5864                   22795711.5124
 11  9 23  2  6 30.0000000  0  9G15G29G02G05G30G18G25G26G21
 -20807409.39847 -16192891.48046  20800242.1884                   20800239.9104
 -27583979.33648 -21478311.74647  20268730.8054                   20268728.5984
 -21130625.36746 -16442717.59443  24253318.2894                   24253314.6524
 -16993022.53946 -13218565.28144  23628308.1884                   23628307.1684
  -4827842.84046  -3741337.43743  24319471.7194                   24319470.9224
 -10457359.34447  -8137749.27745  22372451.2894                   22372448.7624
  -9427404.75447  -7323589.71544  24492109.7504                   24492113.2424
 -20998053.07847 -16344489.97746  21298218.6254                   21298216.6214
 -12076770.09047  -9404901.14545  22778804.0864                   22778801.1294
 11  9 23  2  7  0.0000000  0  9G15G29G02G05G30G18G25G26G21
 -20866586.91048 -16239003.76246  20788981.3204                   20788978.3324
 -27599229.75048 -21490195.16447  20265828.8364                   20265826.2734
 -21085335.68446 -16407426.91043  24261935.5004                   24261933.2344
 -16931919.64846 -13170952.62544  23639934.3204                   23639933.7384
  -4780059.07146  -3704103.21943  24328564.7894                   24328565.3204
 -10534705.99247  -8198019.28945  22357732.1334                   22357730.0394
  -9371414.85547  -7279961.22344  24502765.1884                   24502768.1644
 -20998963.70747 -16345199.53146  21298045.3134                   21298043.3404
 -12165635.07847  -9474146.50445  22761893.8524                   22761890.9694
 11  9 23  2  7 30.0000000  0  9G15G29G02G05G30G18G25G26G21
 -20925195.63747 -16284672.85546  20777828.0554                   20777825.6994
 -27613915.42248 -21501638.52047  20263034.1724                   20263031.9064
 -21039883.03146 -16372009.23043  24270585.2664                   24270583.2974
 -16870817.31246 -13123340.36344  23651562.8284                   23651561.3134
  -4732197.23846  -3666808.23443  24337672.7504                   24337672.7774
 -10611791.90247  -8258086.12545  22343063.3054                   22343060.6684
  -9315500.36747  -7236391.49644  24513405.2274                   24513408.3014
 -20999183.33247 -16345370.62146  21298003.5704                   21298001.3914
 -12254502.62147  -9543393.82845  22744982.2814                   22744980.0234
 11  9 23  2  8  0.0000000  0  9G15G29G02G05G30G18G25G26G21
 -20983234.44148 -16329897.84446  20766783.7504                   20766781.0704
 -27628035.90248 -21512641.46947  20260347.1644                   20260344.8484
 -20994267.31646 -16336464.50443  24279266.6024                   24279262.9024
 -16809716.67646 -13075729.47744  23663189.8134                   23663188.2544
  -4684260.27346  -3629454.73043  24346794.3204                   24346795.0824
 -10688617.13747  -8317949.85245  22328444.1254                   22328441.5354
  -9259663.90646  -7192882.57444  24524029.6414                   24524033.9224
 -20998712.36747 -16345003.59446  21298093.0704                   21298091.0664
 -12343371.62147  -9612642.30545  22728071.9694                   22728068.2384
 11  9 23  2  8 30.0000000  0  9G15G29G02G05G30G18G25G26G21
 -21040701.04747 -16374676.96546  20755848.1484                   20755845.1094
 -27641590.48848 -21523203.45347  20257767.9064                   20257765.4304
 -20948487.66446 -16300792.02043  24287978.0554                   24287975.5984
 -16748617.98446 -13028120.09044  23674816.1644                   23674814.4964
  -4636250.41446  -3592044.39543  24355930.0084                   24355930.3364
 -10765181.10248  -8377609.98045  22313874.4694                   22313871.6524
  -9203907.30147  -7149435.85244  24534640.1564                   24534643.1134
 -20997550.96147 -16344098.56246  21298314.3914                   21298311.9104
 -12432240.78947  -9681890.92645  22711160.4454                   22711156.5204
 11  9 23  2  9  0.0000000  0  9G15G29G02G05G30G18G25G26G21
 -21097594.73447 -16419009.64847  20745021.4924                   20745019.1454
 -27654579.54348 -21533324.77747  20255296.0784                   20255293.5354
 -20902544.69946 -16264992.30543  24296720.3054                   24296717.0124
 -16687523.32446 -12980513.85244  23686442.4924                   23686439.7664
  -4588171.30546  -3554580.08243  24365078.6484                   24365080.0274
 -10841484.73047  -8437067.25845  22299353.9614                   22299351.2664
  -9148233.88746  -7106053.94943  24545234.5234                   24545237.9494
 -20995700.73847 -16342656.79746  21298666.0084                   21298664.2074
 -12521110.04747  -9751139.58245  22694248.7894                   22694246.0744
 11  9 23  2  9 30.0000000  0  9G15G29G02G05G30G18G25G26G21
 -21153912.57048 -16462893.63346  20734304.6804                   20734301.9304
 -27667001.08248 -21543003.87147  20252932.3444                   20252929.9304
 -20856436.19946 -16229063.58643  24305494.4144                   24305492.0554
 -16626432.12946 -12932910.30544  23698068.1094                   23698066.0164
  -4540024.07846  -3517062.68443  24374239.9844                   24374242.2704
 -10917526.19547  -8496320.24645  22284883.3914                   22284881.3554
  -9092644.18747  -7062737.30144  24555812.9614                   24555816.0354
 -20993160.25847 -16340677.16046  21299149.7194                   21299147.7894
 -12609976.38747  -9820385.98045  22677338.2894                   22677334.5394
 11  9 23  2 10  0.0000000  0  8G15G29G05G30G18G25G26G21
 -21209654.73847 -16506329.04346  20723697.2114                   20723694.3674
 -27678856.73048 -21552242.02747  20250676.1334                   20250673.6564
 -16565347.20346 -12885311.66444  23709692.1414                   23709689.6214
  -4491813.43046  -3479495.91443  24383415.0704                   24383415.7504
 -10993307.46547  -8555370.49245  22270463.3754                   22270459.9614
  -9037142.78547  -7019489.45743  24566375.0944                   24566377.6954
 -20989932.76247 -16338162.19146  21299763.9384                   21299761.4804
 -12698841.04747  -9889631.07845  22660427.3914                   22660424.3794
 11  9 23  2 10 30.0000000  0  8G15G29G05G30G18G25G26G21
 -21264820.16048 -16549315.02746  20713199.3834                   20713196.4654
 -27690146.46548 -21561039.19547  20248528.0704                   20248525.3134
 -16504270.00447 -12837719.03544  23721314.7034                   23721312.2074
  -4443542.76246  -3441882.32444  24392601.1724                   24392601.9494
 -11068829.04747  -8614218.37145  22256091.8444                   22256088.9344
  -8981732.37946  -6976312.57043  24576919.0314                   24576921.4964
 -20986018.81247 -16335112.32846  21300508.7504                   21300506.6374
 -12787703.05147  -9958874.09845  22643517.5784                   22643514.6564
 11  9 23  2 11  0.0000000  0  8G15G29G05G30G18G25G26G21
 -21319399.55148 -16591844.37546  20702813.3914                   20702810.7624
 -27700861.93748 -21569388.89147  20246488.6644                   20246486.2584
 -16443193.37547 -12790126.86744  23732937.6024                   23732934.6414
  -4395206.63746  -3404217.76244  24401799.0634                   24401800.2234
 -11144082.44547  -8672857.28945  22241771.6954                   22241768.6844
  -8926407.27346  -6933202.09843  24587446.4774                   24587449.7814
 -20981411.34047 -16331522.05146  21301385.2344                   21301383.0744
 -12876553.57047 -10028108.18045  22626610.0634                   22626607.2624
 11  9 23  2 11 30.0000000  0  8G15G29G05G30G18G25G26G21
 -21373388.27048 -16633913.46146  20692539.4774                   20692536.9414
 -27710999.89548 -21577288.57847  20244559.5394                   20244556.8594
 -16382115.12947 -12742533.40644  23744560.3444                   23744557.7384
  -4346804.53146  -3366501.77344  24411009.4144                   24411010.0084
 -11219064.78147  -8731284.98445  22227502.6644                   22227499.6684
  -8871166.58246  -6890157.39143  24597958.2274                   24597962.6094
 -20976107.73847 -16327389.34846  21302394.3674                   21302392.5124
 -12965388.31247 -10097329.94945  22609704.9534                   22609701.8794
 11  9 23  2 12  0.0000000  0  8G15G29G05G30G18G25G26G21
 -21426787.37148 -16675523.10546  20682378.2974                   20682375.3794
 -27720562.78548 -21584740.15647  20242739.9924                   20242737.3284
 -16321039.13747 -12694941.73844  23756182.5554                   23756180.0434
  -4298342.38346  -3328739.06244  24420232.1804                   24420232.4924
 -11293779.12947  -8789503.86345  22213284.9534                   22213281.7344
  -8816015.78146  -6847182.69143  24608453.9384                   24608457.2854
 -20970112.07447 -16322717.35546  21303535.3524                   21303533.3094
 -13054209.61748 -10166541.28545  22592803.0554                   22592799.7274
 11  9 23  2 12 30.0000000  0  8G15G29G05G30G18G25G26G21
 -21479598.08648 -16716674.27047  20672328.7814                   20672326.0394
 -27729552.61348 -21591745.20747  20241029.1724                   20241026.8094
 -16259968.70747 -12647354.37944  23767803.9454                   23767801.5234
  -4249825.06246  -3290933.29344  24429463.7274                   24429464.9224
 -11368227.45747  -8847515.46945  22199117.8204                   22199114.3554
  -8760959.35247  -6804281.52343  24618930.5314                   24618932.3754
 -20963427.19947 -16317508.34046  21304807.4064                   21304805.4304
 -13143018.05948 -10235742.57845  22575903.2344                   22575900.5234
 11  9 23  2 13  0.0000000  0  8G15G29G05G30G18G25G26G21
 -21531822.88748 -16757368.87146  20662390.4924                   20662387.6094
 -27737972.85248 -21598306.41447  20239427.0864                   20239424.6174
 -16198908.55947 -12599775.02344  23779423.3984                   23779420.8324
  -4201258.99246  -3253089.57843  24438705.1884                   24438706.9024
 -11442413.71548  -8905322.85545  22185000.6414                   22184997.5004
  -8706003.36747  -6761458.64843  24629388.3284                   24629390.2814
 -20956057.71548 -16311765.85546  21306209.6564                   21306207.6724
 -13231816.25847 -10304935.89545  22559005.6484                   22559002.2854
 11  9 23  2 13 30.0000000  0  8G15G29G05G30G18G25G26G21
 -21583459.64148 -16797605.25446  20652564.3524                   20652561.5394
 -27745823.00448 -21604423.39547  20237933.2344                   20237930.4884
 -16137858.86747 -12552203.82044  23791040.3674                   23791038.7424
  -4152646.37146  -3215209.57843  24447956.3284                   24447956.8554
 -11516337.20748  -8962925.49245  22170932.9614                   22170930.4224
  -8651149.52047  -6718715.38343  24639826.4774                   24639829.6524
 -20948004.00847 -16305490.21946  21307742.5394                   21307740.2384
 -13320602.12147 -10374119.62545  22542109.8204                   22542106.7274
 11  9 23  2 14  0.0000000  0  8G15G29G05G30G18G25G26G21
 -21634511.82448 -16837386.12946  20642849.1254                   20642846.7154
 -27753107.19548 -21610099.36347  20236546.6804                   20236544.2934
 -16076825.42647 -12504645.28544  23802655.0944                   23802653.5274
  -4103994.55946  -3177299.05943  24457214.7584                   24457214.8794
 -11590002.66847  -9020327.07445  22156915.3364                   22156912.2774
  -8596404.75046  -6676057.11743  24650244.2504                   24650247.2624
 -20939271.58248 -16298685.70746  21309404.1644                   21309402.3204
 -13409380.21148 -10443297.27045  22525216.3594                   22525213.1604
 11  9 23  2 14 30.0000000  0  7G15G29G05G30G18G26G21
 -21684977.33248 -16876709.85946  20633246.3284                   20633243.3364
 -27759824.84848 -21615333.87547  20235268.7974                   20235266.0044
 -16015808.10547 -12457099.30144  23814266.0704                   23814264.1024
  -4055305.42246  -3139359.46943  24466480.0394                   24466480.3594
 -11663409.27748  -9077526.94945  22142946.4144                   22142943.3484
 -20929860.44948 -16291352.33246  21311195.0704                   21311193.3914
 -13498148.19547 -10512467.04745  22508324.0944                   22508320.6414
 11  9 23  2 15  0.0000000  0  7G15G29G05G30G18G26G21
 -21734853.55148 -16915574.39547  20623754.9924                   20623751.7624
 -27765974.22748 -21620125.58247  20234098.4534                   20234095.3794
 -15954806.28147 -12409565.42244  23825874.3524                   23825872.5044
  -4006580.44146  -3101391.89143  24475751.5314                   24475752.1414
 -11736555.76647  -9134524.13345  22129027.1954                   22129024.2974
 -20919770.55948 -16283490.06246  21313115.0554                   21313112.9924
 -13586903.22348 -10581626.73045  22491434.7814                   22491431.2664
 11  9 23  2 15 30.0000000  0  7G15G29G05G30G18G26G21
 -21784132.90248 -16953973.84846  20614377.2664                   20614374.4694
 -27771549.17648 -21624469.68047  20233037.4614                   20233035.0274
 -15893814.83647 -12362039.59044  23837480.9614                   23837478.9064
  -3957816.02746  -3063393.62143  24485031.7274                   24485032.4344
 -11809435.98848  -9191313.83645  22115158.7344                   22115155.0394
 -20908996.42648 -16275094.60546  21315165.3674                   21315163.3554
 -13675638.25447 -10650770.83245  22474548.6884                   22474545.9414
 11  9 23  2 16  0.0000000  0  7G15G29G05G30G18G26G21
 -21832814.81248 -16991907.76246  20605113.4304                   20605110.9844
 -27776549.99648 -21628366.40647  20232085.7814                   20232083.2424
 -15832835.24647 -12314523.00044  23849084.5634                   23849082.2304
  -3909015.52746  -3025367.22343  24494317.5314                   24494318.7074
 -11882050.63348  -9247896.58645  22101340.4304                   22101337.1564
 -20897539.59448 -16266167.17646  21317345.6334                   21317343.6604
 -13764352.17648 -10719898.46945  22457667.1884                   22457663.6644
 11  9 23  2 16 30.0000000  0  7G15G29G05G30G18G26G21
 -21880896.69148 -17029374.10946  20595963.6724                   20595960.9654
 -27780975.23048 -21631814.62547  20231243.4144                   20231241.2034
 -15771866.84047 -12267015.12944  23860686.4844                   23860684.5554
  -3860180.11746  -2987313.59043  24503610.2274                   24503611.1454
 -11954398.06248  -9304271.13745  22087572.8444                   22087569.6724
 -20885399.85948 -16256707.62946  21319655.7584                   21319653.6954
 -13853042.69148 -10789007.89145  22440789.9064                   22440786.0234
 11  9 23  2 17  0.0000000  0  7G15G29G05G30G18G26G21
 -21928381.46548 -17066375.18747  20586927.5234                   20586924.7194
 -27784829.00448 -21634817.55147  20230510.5704                   20230507.7304
 -15710914.18446 -12219519.54344  23872285.0004                   23872283.3054
  -3811316.42646  -2949237.97742  24512908.7344                   24512909.5044
 -12026482.36348  -9360440.63745  22073855.6334                   22073852.0274
 -20872582.13748 -16246719.77046  21322094.7274                   21322092.6254
 -13941713.05547 -10858101.59845  22423916.6094                   22423913.0984
 11  9 23  2 17 30.0000000  0  7G15G29G05G30G18G26G21
 -21975268.25848 -17102910.30947  20578005.2424                   20578002.2504
 -27788111.76248 -21637375.53147  20229885.6954                   20229883.2894
 -15649978.84446 -12172037.45744  23883880.7894                   23883879.2774
  -3762427.68746  -2911142.83243  24522212.3594                   24522212.6334
 -12098303.96948  -9416405.43445  22060188.3204                   22060185.2584
 -20859088.32447 -16236205.07846  21324662.8134                   21324660.5984
 -14030362.14847 -10927178.72745  22407046.9614                   22407043.7934
 11  9 23  2 18  0.0000000  0  7G15G29G05G30G18G26G21
 -22021560.59048 -17138982.19947  20569196.2114                   20569193.2464
 -27790827.96148 -21639492.03947  20229368.8524                   20229366.2624
 -15589066.20346 -12124573.04744  23895471.8754                   23895469.9064
  -3713521.14146  -2873033.82442  24531518.2584                   24531518.9924
 -12169867.85547  -9472169.41045  22046569.9224                   22046566.7344
 -20844923.94548 -16225167.87546  21327358.3674                   21327355.8404
 -14118993.21948 -10996241.82045  22390181.0164                   22390177.1884
 11  9 23  2 18 30.0000000  0  7G15G29G05G30G18G26G21
 -22067258.19548 -17174590.68047  20560500.1094                   20560497.2154
 -27792978.55148 -21641167.80147  20228959.3754                   20228956.6914
 -15528177.75846 -12077127.50044  23907058.5474                   23907056.8204
  -3664600.23446  -2834913.64842  24540828.4224                   24540828.4344
 -12241174.95748  -9527733.30145  22033000.3594                   22032997.5044
 -20830091.05148 -16213609.75446  21330180.7974                   21330178.4964
 -14207605.40647 -11065290.20345  22373318.1484                   22373314.7894
 11  9 23  2 19  0.0000000  0  7G15G29G05G30G18G26G21
 -22112361.74648 -17209736.25446  20551917.0474                   20551914.3594
 -27794565.28148 -21642404.19547  20228657.4454                   20228654.9184
 -15467316.22746 -12029702.91844  23918639.7664                   23918638.4694
  -3615669.31645  -2796785.64542  24550139.1484                   24550140.0594
 -12312226.86348  -9583098.34445  22019479.7664                   22019476.7154
 -20814592.31247 -16201532.79346  21333130.0944                   21333127.8484
 -14296200.13747 -11134324.96145  22356459.3284                   22356455.9614
 11  9 23  2 19 30.0000000  0  7G15G29G05G30G18G26G21
 -22156868.04348 -17244416.44147  20543447.9384                   20543444.8634
 -27795585.87948 -21643199.44947  20228463.3134                   20228460.7034
 -15406479.95746 -11982298.03144  23930216.2194                   23930215.9844
  -3566729.02746  -2758650.25843  24559452.5554                   24559452.2774
 -12383021.40648  -9638262.83245  22006008.0234                   22006004.4574
 -20798427.18048 -16188936.56645  21336205.9454                   21336203.7114
 -14384773.44147 -11203343.03945  22339603.8914                   22339600.5904
 11  9 23  2 20  0.0000000  0  7G15G29G05G30G18G26G21
 -22200777.45748 -17278631.52047  20535092.0314                   20535089.0474
 -27796042.22348 -21643555.02047  20228376.3914                   20228373.8634
 -15345671.39846 -11934914.72344  23941787.7194                   23941787.8284
  -3517783.39846  -2720510.78143  24568766.8284                   24568766.7974
 -12453560.26247  -9693228.08245  21992584.6174                   21992581.2894
 -20781598.09047 -16175822.96546  21339407.7974                   21339406.0864
 -14473325.69147 -11272344.72345  22322753.3524                   22322749.7584
 11  9 23  2 20 30.0000000  0  7G15G29G05G30G18G26G21
 -22244090.49248 -17312381.89147  20526849.8364                   20526846.8364
 -27795935.75048 -21643472.03547  20228396.6884                   20228394.0984
 -15284892.77346 -11887554.74644  23953354.2424                   23953353.3984
  -3468836.41445  -2682370.20343  24578080.2894                   24578081.5434
 -12523844.68748  -9747995.08645  21979210.1804                   21979206.9104
 -20764108.03547 -16162194.33246  21342736.7194                   21342734.1524
 -14561857.05147 -11341330.11345  22305906.0864                   22305902.6914
 11  9 23  2 21  0.0000000  0  7G15G29G05G30G18G26G21
 -22286805.51648 -17345666.28546  20518721.3674                   20518718.7154
 -27795265.85548 -21642950.01647  20228524.3834                   20228521.4774
 -15224144.16046 -11840218.13744  23964914.0084                   23964912.5864
  -3419890.09445  -2644230.18043  24587394.1484                   24587395.0824
 -12593874.52047  -9802563.68745  21965883.7344                   21965880.4884
 -20745957.40647 -16148050.95745  21346190.7034                   21346188.0784
 -14650365.30947 -11410297.51245  22289063.7194                   22289059.8554
 11  9 23  2 21 30.0000000  0  7G15G29G05G30G18G26G21
 -22328924.17648 -17378485.97347  20510706.6024                   20510703.5664
 -27794035.12548 -21641990.98447  20228758.0314                   20228756.0234
 -15163428.37946 -11792907.13744  23976468.1024                   23976466.3954
  -3370949.24246  -2606094.40643  24596708.7734                   24596708.9844
 -12663652.17247  -9856935.81245  21952605.4224                   21952601.9774
 -20727150.03547 -16133395.84845  21349769.2504                   21349766.9494
 -14738851.81647 -11479247.97345  22272224.8834                   22272221.5314
 11  9 23  2 22  0.0000000  0  7G15G29G05G30G18G26G21
 -22370444.04748 -17410839.07447  20502805.5554                   20502802.3364
 -27792242.66848 -21640594.25047  20229099.2504                   20229096.9144
 -15102745.05146 -11745621.41444  23988015.9534                   23988013.8874
  -3322015.69946  -2567964.35243  24606020.0164                   24606019.9224
 -12733176.77347  -9911110.74245  21939375.3204                   21939371.4304
 -20707686.18047 -16118229.17245  21353473.3054                   21353470.5514
 -14827314.60947 -11548179.95345  22255391.2894                   22255387.4804
 11  9 23  2 22 30.0000000  0  7G15G29G05G30G18G26G21
 -22411365.48448 -17442725.87147  20495018.6094                   20495015.5864
 -27789889.82448 -21638760.84847  20229547.0704                   20229544.8094
 -15042096.09446 -11698362.47744  23999556.4614                   23999555.5704
  -3273092.94946  -2529842.72743  24615329.7424                   24615329.6564
 -12802449.18747  -9965089.16445  21926193.3674                   21926189.4494
 -20687568.17647 -16102552.77345  21357301.3134                   21357298.9654
 -14915752.50047 -11617092.52345  22238562.4534                   22238558.3054
 11  9 23  2 23  0.0000000  0  7G15G29G05G30G18G26G21
 -22451688.66447 -17474146.48847  20487345.1884                   20487342.1134
 -27786977.94548 -21636491.84047  20230101.5084                   20230099.0004
 -14981483.23846 -11651131.66844  24011090.5784                   24011089.8524
  -3224184.62946  -2491732.31643  24624636.4844                   24624636.7154
 -12871470.83647 -10018872.19145  21913059.1644                   21913055.7114
 -20666798.66847 -16086368.72745  21361253.6884                   21361251.5784
 -15004165.69947 -11685985.86745  22221737.4844                   22221733.8444
 11  9 23  2 23 30.0000000  0  7G15G29G05G30G18G26G21
 -22491412.65647 -17505100.21946  20479785.7664                   20479783.2074
 -27783506.83648 -21633787.05547  20230761.7894                   20230759.0824
 -14920907.12146 -11603929.48044  24022618.3204                   24022617.4344
  -3175293.09847  -2453634.99244  24633940.2194                   24633940.5744
 -12940241.48847 -10072459.63345  21899972.2424                   21899968.5704
 -20645379.10247 -16069678.12945  21365329.9774                   21365327.7304
 -15092552.77047 -11754858.84045  22204918.2894                   22204914.7234
 11  9 23  2 24  0.0000000  0  7G15G29G05G30G18G26G21
 -22530535.27748 -17535585.34047  20472341.2034                   20472338.0664
 -27779475.55948 -21630645.78547  20231528.8834                   20231526.4344
 -14860366.99646 -11556755.30044  24034138.1884                   24034137.3404
  -3126419.63746  -2415551.79743  24643240.6564                   24643241.5904
 -13008759.90647 -10125850.51245  21886933.3834                   21886930.0124
 -20623309.07047 -16052480.67245  21369529.9614                   21369526.9454
 -15180910.22347 -11823708.75445  22188104.2974                   22188100.1054
 11  9 23  2 24 30.0000000  0  7G15G29G05G30G18G26G21
 -20993635.45348 -16338001.02347  20764803.4614                   20764800.6374
 -26199465.70748 -20399469.26247  20532194.9614                   20532192.2074
 -13224446.57846 -10282012.16444  24345443.9534                   24345442.7114
  -1502149.43746  -1149886.72343  24952328.8054                   24952329.4804
 -11501605.33647  -8951444.28945  22173735.4224                   22173731.7974
 -19025172.51247 -14807179.43045  21673644.6414                   21673642.7304
 -13693816.02747 -10664934.00445  22471088.7814                   22471084.8984
 11  9 23  2 25  0.0000000  0  6G15G29G05G18G26G21
 -21031556.89548 -16367550.16047  20757587.1724                   20757584.3554
 -26194319.00048 -20395458.82447  20533174.1174                   20533171.6604
 -13163984.14846 -10234898.55544  24356949.8364                   24356947.9964
 -11569623.84447  -9004445.64145  22160791.6724                   22160788.1804
 -19001810.32847 -14788975.10945  21678090.5554                   21678088.3054
 -13782115.70747 -10733738.89145  22454285.5944                   22454282.3954
 11  9 23  2 25 30.0000000  0  6G15G29G05G18G26G21
 -21068878.68448 -16396632.04347  20750485.1024                   20750482.2584
 -26188617.50448 -20391016.08247  20534259.0784                   20534256.3954
 -13103563.74646 -10187817.73444  24368447.3204                   24368446.1054
 -11637395.00047  -9057254.25845  22147895.2584                   22147891.6334
 -18977807.10547 -14770271.27345  21682658.1954                   21682655.7774
 -13870386.51647 -10802521.29745  22437488.4694                   22437484.3714
 11  9 23  2 26  0.0000000  0  6G15G29G05G18G26G21
 -21105593.51248 -16425240.96547  20743498.3204                   20743495.5474
 -26182354.88748 -20386136.10547  20535450.7114                   20535448.0744
 -13043179.45346 -10140765.00044  24379938.3134                   24379935.6524
 -11704912.21547  -9109865.00045  22135047.2504                   22135043.6414
 -18953157.61747 -14751063.85945  21687348.7194                   21687346.4494
 -13958620.48447 -10871274.97345  22420698.2974                   22420694.0664
 11  9 23  2 26 30.0000000  0  6G15G29G05G18G26G21
 -21141694.98048 -16453371.93747  20736628.7344                   20736625.6294
 -26175525.42248 -20380814.43447  20536750.4694                   20536747.8444
 -12982826.05546 -10093736.34444  24391422.9924                   24391420.6994
 -11772169.84048  -9162273.46945  22122248.3134                   22122244.8284
 -18927857.46547 -14731349.43445  21692163.2504                   21692161.1884
 -14046809.90647 -10939993.95745  22403915.9384                   22403912.0594
 11  9 23  2 27  0.0000000  0  6G15G29G05G18G26G21
 -21177183.78948 -16481025.52347  20729875.4534                   20729871.9304
 -26168131.19148 -20375052.67647  20538157.5864                   20538154.8324
 -12922505.48046 -10046733.28544  24402901.2034                   24402898.8364
 -11839169.30947  -9214480.77345  22109498.6564                   22109494.9344
 -18901909.66047 -14711130.34845  21697101.1724                   21697098.4884
 -14134955.48448 -11008678.76645  22387142.2034                   22387138.8554
 11  9 23  2 27 30.0000000  0  6G15G29G05G18G26G21
 -21212065.17248 -16508205.78146  20723237.3444                   20723234.2234
 -26160178.38348 -20368855.67247  20539670.6644                   20539667.9304
 -12862224.14546  -9999760.79343  24414372.4924                   24414370.0944
 -11905916.54747  -9266491.55145  22096797.1334                   22096793.6804
 -18875321.68047 -14690412.41845  21702160.3834                   21702158.2584
 -14223061.03148 -11077332.39545  22370376.4844                   22370373.1724
 11  9 23  2 28  0.0000000  0  6G15G29G05G18G26G21
 -21246342.04748 -16534915.00447  20716714.8984                   20716711.7194
 -26151670.89848 -20362226.44947  20541289.7274                   20541287.4774
 -12801986.09046  -9952822.09043  24425835.1564                   24425833.2504
 -11972415.35248  -9318308.73045  22084142.8134                   22084139.6994
 -18848098.56247 -14669199.56645  21707340.6804                   21707338.4454
 -14311128.69148 -11145956.47745  22353617.2584                   22353613.9734
 11  9 23  2 28 30.0000000  0  6G15G29G05G18G26G21
 -21280012.36348 -16561151.57447  20710307.3284                   20710304.4184
 -26142608.14148 -20355164.55147  20543014.3444                   20543011.6844
 -12741790.79346  -9905916.61343  24437290.1174                   24437288.7704
 -12038664.67248  -9369931.50845  22071535.8364                   22071532.6454
 -18820240.95347 -14647492.32045  21712641.9694                   21712639.5124
 -14399155.87148 -11214549.03946  22336866.6804                   22336862.9964
 11  9 23  2 29  0.0000000  0  6G15G29G05G18G26G21
 -21313078.43748 -16586917.31647  20704015.2114                   20704012.3594
 -26132993.31648 -20347672.46547  20544843.9694                   20544841.3674
 -12681641.38746  -9859046.91843  24448736.1484                   24448733.8674
 -12104667.62548  -9421362.31645  22058975.8594                   22058972.2854
 -18791753.46547 -14625294.25845  21718062.9614                   21718060.2624
 -14487143.71147 -11283110.93446  22320123.2584                   22320119.7424
 11  9 23  2 29 30.0000000  0  6G15G29G05G18G26G21
 -21345539.04348 -16612211.25847  20697838.0314                   20697834.7814
 -26122826.27348 -20339750.08247  20546778.6954                   20546776.1214
 -12621537.59846  -9812212.78543  24460173.6334                   24460171.7664
 -12170423.34448  -9472600.48445  22046462.7114                   22046459.1804
 -18762636.80947 -14602605.93445  21723603.6804                   21723601.4534
 -14575090.04747 -11351640.48446  22303387.3754                   22303383.5234
 11  9 23  2 30  0.0000000  0  6G15G29G05G18G26G21
 -21377396.21548 -16637034.98047  20691775.8054                   20691772.6484
 -26112109.48848 -20331399.33247  20548817.9064                   20548815.2424
 -12561482.68746  -9765416.73843  24471602.0784                   24471598.9574
 -12235934.33248  -9523647.94145  22033996.4384                   22033993.4144
 -18732895.19547 -14579430.63345  21729263.3984                   21729261.2074
 -14662995.96548 -11420138.55945  22286659.5394                   22286655.6604
 11  9 23  2 30 30.0000000  0  6G15G29G05G18G26G21
 -21408651.04348 -16661389.35947  20685828.1334                   20685825.0744
 -26100845.41848 -20322622.12547  20550961.6174                   20550958.9734
 -12501478.26246  -9718660.05543  24483021.1254                   24483017.9884
 -12301202.45748  -9574506.14845  22021576.2974                   22021572.6524
 -18702531.91447 -14555770.90645  21735040.9454                   21735038.7664
 -14750861.53547 -11488605.18445  22269938.8984                   22269935.3014
 11  9 23  2 31  0.0000000  0  6G15G29G05G18G26G21
 -21439301.69148 -16685272.93747  20679995.5864                   20679992.5004
 -26089033.76648 -20313418.23847  20553209.1254                   20553206.5824
 -12441524.30946  -9671942.66043  24494429.6954                   24494426.0474
 -12366227.69548  -9625175.11745  22009202.6024                   22009198.6914
 -18671548.17647 -14531627.71945  21740937.1174                   21740934.7734
 -14838684.25447 -11557038.42245  22253227.0234                   22253222.8874
 11  9 23  2 31 30.0000000  0  6G15G29G05G18G26G21
 -21469352.06648 -16708688.78147  20674277.2344                   20674274.2814
 -26076679.41848 -20303791.45747  20555560.0634                   20555557.3954
 -12381625.61346  -9625268.32844  24505827.3914                   24505825.4064
 -12431013.90648  -9675657.82045  21996873.8134                   21996870.6684
 -18639949.94947 -14507005.71145  21746950.1724                   21746948.3874
 -14926466.73847 -11625440.30145  22236522.5634                   22236518.6484
 11  9 23  2 32  0.0000000  0  6G15G29G05G18G26G21
 -21498800.00848 -16731635.19547  20668673.5004                   20668670.4024
 -26063780.80148 -20293740.57847  20558014.6174                   20558011.8054
 -12321780.30146  -9578635.58643  24517215.9694                   24517212.8444
 -12495558.87548  -9725952.55945  21984591.4844                   21984588.0124
 -18607736.82847 -14481904.55145  21753080.1724                   21753077.2934
 -15014205.37547 -11693808.02345  22219825.9224                   22219822.1024
 11  9 23  2 32 30.0000000  0  6G15G29G05G18G26G21
 -21527643.62948 -16754110.70747  20663184.6334                   20663181.7424
 -26050337.34048 -20283265.14547  20560572.6954                   20560570.2384
 -12261987.55546  -9532043.84044  24528594.2114                   24528591.2664
 -12559861.88348  -9776058.75445  21972355.0394                   21972351.7234
 -18574909.59447 -14456324.87145  21759326.4844                   21759324.2704
 -15101897.32447 -11762139.35545  22203139.0004                   22203134.8364
 11  9 23  2 33  0.0000000  0  6G15G29G05G18G26G21
 -21555884.26648 -16776116.36747  20657810.2814                   20657807.1024
 -26036351.44548 -20272367.03547  20563234.2114                   20563231.4344
 -12202249.64146  -9485494.80144  24539961.0784                   24539959.4454
 -12623924.71548  -9825977.80546  21960164.2424                   21960161.2194
 -18541471.83647 -14430269.45345  21765689.6254                   21765687.5634
 -15189542.69547 -11830434.39145  22186460.7424                   22186456.9184
 11  9 23  2 33 30.0000000  0  6G15G29G05G18G26G21
 -21583522.02048 -16797652.24647  20652551.1724                   20652548.0474
 -26021824.33648 -20261047.19947  20565998.5704                   20565995.9104
 -12142567.39547  -9438989.13744  24551318.8984                   24551316.7424
 -12687748.44948  -9875710.53145  21948019.2034                   21948015.2274
 -18507425.74247 -14403740.02045  21772168.5864                   21772166.2154
 -15277140.27747 -11898692.18746  22169791.3754                   22169787.3984
 11  9 23  2 34  0.0000000  0  6G15G29G05G18G26G21
 -21610559.05948 -16818720.03547  20647406.3594                   20647402.9264
 -26006759.10548 -20249308.05147  20568865.5784                   20568862.6414
 -12082943.90247  -9392529.27344  24562664.3284                   24562663.1214
 -12751335.30148  -9925258.68445  21935918.7034                   21935915.6994
 -18472775.69547 -14376739.96945  21778761.8054                   21778759.2854
 -15364690.79348 -11966913.31645  22153130.5164                   22153127.1914
 11  9 23  2 34 30.0000000  0  6G15G29G05G18G26G21
 -21636994.14148 -16839318.77347  20642375.8284                   20642372.8094
 -25991155.06648 -20237149.04747  20571834.7034                   20571832.2114
 -12023378.14147  -9346114.41444  24573999.6804                   24573997.8404
 -12814684.11348  -9974621.35546  21923863.7274                   21923860.5274
 -18437522.64547 -14349270.03945  21785470.5784                   21785468.2274
 -15452191.76247 -12035095.84045  22136480.4144                   22136475.8634
 11  9 23  2 35  0.0000000  0  7G15G29G22G05G18G26G21
 -21662827.81648 -16859448.87547  20637459.4774                   20637456.4964
 -25975013.97748 -20224571.55947  20574906.0004                   20574903.8204
   7731514.78156   6033663.26253  24714378.7974                   24714376.4534
 -11963871.68446  -9299745.72344  24585323.8834                   24585321.8674
 -12877796.59048 -10023799.85946  21911853.9064                   21911850.6724
 -18401669.46147 -14321332.47745  21792292.8134                   21792290.3554
 -15539642.51647 -12103239.23046  22119838.4614                   22119834.8674
 11  9 23  2 35 30.0000000  0  7G15G29G22G05G18G26G21
 -21688066.39548 -16879115.27047  20632656.9924                   20632653.9614
 -25958343.64848 -20211581.68447  20578078.7974                   20578075.8364
   7632594.19946   5956582.40643  24695555.5704                   24695552.0044
 -11904431.75046  -9253428.91444  24596634.8444                   24596631.4774
 -12940679.76248 -10072799.68446  21899887.6724                   21899883.6484
 -18365225.10247 -14292934.25845  21799227.9144                   21799225.8634
 -15627048.25048 -12171347.53946  22103206.0634                   22103202.2464
 11  9 23  2 36  0.0000000  0  7G15G29G22G05G18G26G21
 -21712713.12948 -16898320.48447  20627966.8524                   20627963.5124
 -25941148.07448 -20198182.53147  20581350.8594                   20581348.2034
   7533823.66046   5879618.47743  24676759.9224                   24676756.8484
 -11845061.55546  -9207166.41843  24607932.8364                   24607930.1724
 -13003336.78548 -10121623.30145  21887964.4534                   21887960.4024
 -18328194.65647 -14264079.35545  21806274.8754                   21806272.6294
 -15714410.51648 -12239421.97346  22086581.4614                   22086577.1764
 11  9 23  2 36 30.0000000  0  7G15G29G22G05G18G26G21
 -21736769.22748 -16917065.46547  20623388.9534                   20623385.9344
 -25923429.47348 -20184375.82047  20584722.7034                   20584719.5634
   7435202.10946   5802770.62143  24657992.5554                   24657989.2934
                                  24619217.336
 -13065769.10548 -10170271.82446  21876083.4774                   21876080.0314
 -18290581.66847 -14234770.52045  21813432.3754                   21813430.3554
 -15801729.10248 -12307462.37946  22069965.1094                   22069961.7304
 11  9 23  2 37  0.0000000  0  7G15G29G22G05G18G26G21
 -21760229.14848 -16935345.90247  20618924.8134                   20618921.6174
 -25905183.35948 -20170158.06647  20588194.9614                   20588192.0124
   7336735.66046   5726043.65243  24639255.7114                   24639251.8094
 -11726529.41846  -9114804.31653  24630487.9384                   24630485.3914
 -13127972.08248 -10218741.62945  21864246.7504                   21864243.4144
 -18252382.60247 -14205004.98445  21820701.0234                   21820699.0084
 -15888996.96548 -12375463.25446  22053358.3674                   22053354.4844
 11  9 23  2 37 30.0000000  0  7G15G29G22G05G18G26G21
 -21783090.89548 -16953160.21547  20614574.1804                   20614571.0744
 -25886408.66848 -20155528.43047  20591767.1414                   20591764.5904
   7238426.62146   5649439.39543  24620547.6254                   24620544.2154
 -11667363.14846  -9068700.70744  24641747.2114                   24641744.4774
 -13189944.07848 -10267031.44546  21852454.1804                   21852450.1294
 -18213598.15247 -14174783.32045  21828081.7504                   21828079.6214
 -15976210.53948 -12443421.81646  22036762.1724                   22036758.3714
 11  9 23  2 38  0.0000000  0  7G15G29G22G05G18G26G21
 -21805356.04348 -16970509.65247  20610337.2114                   20610334.3444
 -25867107.98048 -20140488.92247  20595440.1334                   20595437.3794
   7140273.53546   5572956.63743  24601869.1094                   24601866.0164
 -11608264.50846  -9022649.85243  24652993.2894                   24652989.9064
 -13251687.07848 -10315142.82445  21840704.7814                   21840701.1604
 -18174231.89847 -14144108.30145  21835572.9224                   21835571.0634
 -16063369.89848 -12511338.14146  22020176.6414                   22020172.8284
 11  9 23  2 38 30.0000000  0  7G15G29G22G05G18G26G21
 -21827023.86348 -16987393.64847  20606213.8444                   20606210.7424
 -25847281.61748 -20125039.80547  20599213.0634                   20599210.1564
   7042277.76246   5496596.48043  24583221.4454                   24583218.4534
 -11549232.89546  -8976651.21143  24664226.7034                   24664223.7034
 -13313200.44548 -10363075.25846  21828999.2664                   21828995.1844
 -18134285.26247 -14112981.05945  21843174.8524                   21843172.5664
 -16150472.47348 -12579210.21546  22003601.2974                   22003597.1454
 11  9 23  2 39  0.0000000  0  7G15G29G22G05G18G26G21
 -21848093.34048 -17003811.39547  20602205.0004                   20602201.5984
 -25826929.17648 -20109180.75447  20603086.0784                   20603083.1844
   6944441.01646   5420360.23043  24564602.9144                   24564599.7344
 -11490267.12546  -8930703.86743  24675447.4384                   24675443.8404
 -13374483.28548 -10410828.07046  21817337.2424                   21817333.3134
 -18093759.05947 -14081402.17245  21850886.5394                   21850884.3754
 -16237515.12948 -12647035.60246  21987037.5474                   21987033.7304
 11  9 23  2 39 30.0000000  0  7G15G29G22G05G18G26G21
 -21868564.52048 -17019762.93447  20598309.1954                   20598305.8914
 -25806052.14548 -20092912.93747  20607058.4844                   20607055.9924
   6846763.25046   5344247.85243  24546016.2114                   24546012.5274
 -11431368.42646  -8884808.80543  24686655.1644                   24686652.3834
 -13435536.35548 -10458401.83246  21805719.4694                   21805715.6054
 -18052656.14547 -14049373.91445  21858708.2894                   21858706.1484
 -16324497.41048 -12714813.94946  21970485.3284                   21970481.5434
 11  9 23  2 40  0.0000000  0  7G15G29G22G05G18G26G21
 -21888438.08248 -17035248.79747  20594527.2584                   20594524.1804
 -25784651.64148 -20076237.20747  20611130.7894                   20611128.3054
   6749244.77746   5268259.66443  24527459.1884                   24527455.1334
 -11372537.36346  -8838966.45743  24697850.2114                   24697847.2344
 -13496360.55548 -10505797.27046  21794144.7344                   21794141.0124
 -18010979.00847 -14016898.20745  21866639.3284                   21866636.6484
 -16411417.53548 -12782543.87546  21953945.3284                   21953940.6684
 11  9 23  2 40 30.0000000  0  7G15G29G22G05G18G26G21
 -21907717.28948 -17050271.53947  20590858.4924                   20590855.5594
 -25762732.50448 -20059157.35947  20615302.3204                   20615299.5434
   6651882.44146   5192393.10943  24508930.7504                   24508928.0234
 -11313777.78946  -8793179.76643  24709031.9694                   24709028.7304
 -13556959.31248 -10553017.03546  21782613.3054                   21782609.5084
 -17968733.56247 -13983979.67245  21874678.1254                   21874675.4344
 -16498277.57848 -12850226.96146  21937416.0784                   21937412.2424
 11  9 23  2 41  0.0000000  0  7G15G29G22G05G18G26G21
 -21926400.96548 -17064830.21547  20587302.9534                   20587299.7304
 -25740294.09048 -20041672.87947  20619571.7504                   20619569.5124
   6554678.46946   5116649.92643  24490433.0634                   24490429.9104
 -11255088.53546  -8747447.87143  24720200.2814                   24720197.4884
 -13617331.44548 -10600060.19946  21771124.6254                   21771120.9574
 -17925920.40647 -13950618.75045  21882825.0234                   21882822.7704
 -16585074.12548 -12917860.59046  21920899.1804                   21920894.7854
 11  9 23  2 41 30.0000000  0  7G15G29G22G05G18G26G21
 -21944489.27748 -17078924.97347  20583861.2194                   20583857.6604
 -25717337.38748 -20023784.54747  20623940.5004                   20623937.6604
   6457632.78146   5041030.10543  24471965.6334                   24471963.0354
 -11196469.95746  -8701771.04743  24731355.3834                   24731352.0634
 -13677477.23048 -10646927.00446  21759679.4534                   21759675.5984
 -17882541.75047 -13916817.19945  21891079.4844                   21891077.3524
 -16671805.57047 -12985443.48046  21904394.4454                   21904390.6254
 11  9 23  2 42  0.0000000  0  7G15G29G22G05G18G26G21
 -21961981.26248 -17092555.06647  20580532.4224                   20580529.0314
 -25693862.86348 -20005492.70347  20628407.3834                   20628404.8404
   6360746.68446   4965534.60944  24453529.2894                   24453525.7234
 -11137921.59447  -8656148.94543  24742497.1564                   24742493.6644
 -13737396.42248 -10693617.22346  21748277.1254                   21748273.2814
 -17838599.12147 -13882576.18045  21899441.6094                   21899439.1374
 -16758469.14848 -13052973.48046  21887903.1094                   21887899.1804
 11  9 23  2 42 30.0000000  0  7G15G29G22G05G18G26G21
 -21978878.95748 -17105722.07847  20577316.8444                   20577313.7384
 -25669873.53548 -19986799.71947  20632972.3054                   20632970.0204
   6264018.95347   4890162.53144  24435122.6484                   24435119.1724
 -11079445.19546  -8610582.91043  24753624.2114                   24753621.0044
 -13797091.39548 -10740132.72745  21736917.4144                   21736913.2384
 -17794096.59047 -13847898.86745  21907909.9534                   21907907.7384
 -16845064.92248 -13120450.66846  21871424.3364                   21871420.1604
 11  9 23  2 43  0.0000000  0  7G15G29G22G05G18G26G21
 -21995183.03548 -17118426.53147  20574214.2504                   20574211.2154
 -25645370.72748 -19967706.61747  20637635.1094                   20637632.7304
   6167449.41447   4814913.70344  24416745.5864                   24416743.0164
 -11021041.82047  -8565073.79743  24764737.8134                   24764735.0864
 -13856562.31248 -10786473.64545  21725600.2584                   21725596.5354
 -17749037.22747 -13812787.64845  21916484.4304                   21916482.6374
 -16931591.55947 -13187873.97346  21854958.5944                   21854954.7304
 11  9 23  2 43 30.0000000  0  7G15G29G22G05G18G26G21
 -22010893.68048 -17130668.56247  20571224.6094                   20571221.2424
 -25620355.53548 -19948214.25847  20642395.4144                   20642393.0274
   6071039.35247   4739789.12544  24398399.9534                   24398396.1914
 -10962711.33647  -8519621.47343  24775837.6804                   24775835.7774
 -13915809.56247 -10832640.28146  21714325.9384                   21714322.1604
 -17703422.97347 -13777244.07445  21925165.2664                   21925162.1134
 -17018047.70347 -13255242.34846  21838507.0314                   21838502.5204
 11  9 23  2 44  0.0000000  0  6G15G29G22G18G26G21
 -22026011.96148 -17142449.02047  20568347.6334                   20568344.3914
 -25594830.24648 -19928324.43447  20647253.1094                   20647250.5634
   5974787.37147   4664787.72344  24380083.5784                   24380079.1994
 -13974834.33248 -10878633.54746  21703094.0554                   21703090.1604
 -17657257.23047 -13741270.76245  21933950.1174                   21933947.3954
 -17104432.27348 -13322554.97746  21822068.2664                   21822064.0904
 11  9 23  2 44 30.0000000  0  6G15G29G22G18G26G21
 -22040536.85248 -17153767.09447  20565583.4694                   20565580.5394
 -25568794.37148 -19908036.73046  20652207.1644                   20652204.6454
   5878695.40647   4589911.03944  24361797.7504                   24361794.1724
 -14033636.08248 -10924453.02746  21691904.3524                   21691900.1644
 -17610541.01647 -13704868.49245  21942839.8754                   21942837.3054
 -17190741.80147 -13389809.10246  21805643.9064                   21805640.1374
 11  9 23  2 45  0.0000000  0  6G15G29G22G18G26G21
 -22054463.14548 -17164618.73047  20562933.3204                   20562930.1884
 -25542243.69948 -19887347.89147  20657259.7344                   20657256.9844
   5782769.54347   4515163.79744  24343543.0084                   24343539.5784
 -14092209.23048 -10970094.38746  21680757.9384                   21680753.9574
 -17563271.25847 -13668034.89845  21951834.8364                   21951832.4104
 -17276969.42248 -13456999.43046  21789235.4774                   21789231.2304
 11  9 23  2 45 30.0000000  0  6G15G29G22G18G26G21
 -22067787.45748 -17175001.28147  20560397.9844                   20560394.8914
 -25515175.81248 -19866256.03147  20662410.3134                   20662408.1054
   5687013.88347   4440549.16044  24325321.6024                   24325317.7974
 -14150550.60248 -11015555.15246  21669655.7344                   21669652.1684
 -17515446.76247 -13630769.04345  21960935.7504                   21960932.4924
 -17363109.50048 -13524121.53146  21772843.6024                   21772839.4534
 11  9 23  2 46  0.0000000  0  6G15G29G22G18G26G21
 -22080514.35948 -17184918.34046  20557976.1334                   20557972.9734
 -25487596.27748 -19844765.48046  20667658.8594                   20667656.0434
   5591424.43047   4366064.02744  24307131.2734                   24307127.4024
 -14208664.90648 -11060838.96546  21658597.1254                   21658593.3594
 -17467073.99647 -13593075.97745  21970140.6954                   21970138.0514
 -17449164.52347 -13591177.35946  21756467.9064                   21756463.2734
 11  9 23  2 46 30.0000000  0  6G15G29G22G18G26G21
 -22092647.87148 -17194373.00046  20555666.9534                   20555663.9964
 -25459510.28548 -19822880.29347  20673003.4924                   20673000.8094
   5495997.29746   4291705.39843  24288971.4844                   24288968.2464
 -14266556.14547 -11105948.97346  21647580.7974                   21647576.7114
 -17418159.56247 -13554960.79745  21979448.4694                   21979446.0984
 -17535136.12147 -13658168.18446  21740108.3834                   21740103.8524
 11  9 23  2 47  0.0000000  0  6G15G29G22G18G26G21
 -22104188.88748 -17203365.97747  20553471.1094                   20553467.8284
 -25430919.10548 -19800601.44947  20678444.0004                   20678441.6334
   5400732.88747   4217473.55544  24270843.3834                   24270839.4534
 -14324225.03948 -11150885.73046  21636606.5784                   21636602.8244
 -17368706.02747 -13516425.58245  21988859.2194                   21988856.7894
 -17621023.14148 -13725093.10546  21723764.1804                   21723759.7034
 11  9 23  2 47 30.0000000  0  6G15G29G22G18G26G21
 -22115140.06248 -17211899.33647  20551386.9774                   20551383.8594
 -25401826.17248 -19777931.62546  20683980.0634                   20683977.7664
   5305629.97746   4143367.56344  24252745.9694                   24252742.6604
 -14381673.73447 -11195650.89846  21625674.6564                   21625670.3984
 -17318717.82447 -13477473.72345  21998371.8054                   21998368.8634
 -17706826.01647 -13791952.45346  21707436.5084                   21707432.1334
 11  9 23  2 48  0.0000000  0  6G15G29G22G18G26G21
 -22125500.72348 -17219972.55547  20549415.6334                   20549412.2854
 -25372232.09448 -19754871.30547  20689611.6644                   20689608.9304
   5210689.54747   4069388.16044  24234679.6884                   24234674.5944
 -14438902.14547 -11240244.42646  21614784.5234                   21614780.4454
 -17268196.57047 -13438106.50045  22007985.1484                   22007983.1724
 -17792541.19548 -13858743.47746  21691125.5314                   21691121.2704
 11  9 23  2 48 30.0000000  0  6G15G29G22G18G26G21
 -22135272.94148 -17227587.25047  20547555.6094                   20547552.7344
 -25342140.10948 -19731423.00846  20695338.1644                   20695335.4304
   5115909.97747   3995534.09844  24216643.3834                   24216638.9574
 -14495912.10547 -11284667.73046  21603936.0704                   21603931.8524
 -17217146.73847 -13398327.43045  22017699.7194                   22017697.8054
 -17878169.71947 -13925466.97346  21674830.3834                   21674826.6214
 11  9 23  2 49  0.0000000  0  6G15G29G22G18G26G21
 -22144455.95348 -17234742.82447  20545808.6414                   20545805.0784
 -25311549.70348 -19707586.33647  20701159.4614                   20701156.5904
   5021293.11747   3921806.79344  24198638.3834                   24198633.6334
 -14552702.54747 -11328919.97746  21593128.7584                   21593125.2274
 -17165569.20747 -13358137.15645  22027514.5944                   22027512.5274
 -17963707.40647 -13992119.68046  21658553.5084                   21658549.1994
 11  9 23  2 49 30.0000000  0  6G15G29G22G18G26G21
 -22153052.41048 -17241441.34447  20544172.5474                   20544169.2544
 -25280464.75848 -19683364.29746  20707074.4844                   20707072.1804
   4926837.10246   3848204.84443  24180663.1724                   24180659.1684
 -14609276.24647 -11373003.34446  21582363.2114                   21582359.0864
 -17113469.03147 -13317539.62545  22037429.3364                   22037426.4344
 -18049155.19947 -14058702.36746  21642293.0474                   21642288.9964
 11  9 23  2 50  0.0000000  0  6G15G29G22G18G26G21
 -22161064.69148 -17247684.65647  20542647.5634                   20542644.2074
 -25248888.50848 -19658759.42646  20713083.3364                   20713080.5434
   4832540.49246   3774727.09443  24162718.8204                   24162714.1994
 -14665635.00847 -11416919.23846  21571638.6094                   21571634.8094
 -17060850.49247 -13276538.16445  22047442.3134                   22047439.9804
 -18134512.56247 -14125214.55946  21626050.4144                   21626046.3284
 11  9 23  2 50 30.0000000  0  6G15G29G22G18G26G21
 -22168492.87948 -17253472.84047  20541234.3674                   20541230.8284
 -25216821.52748 -19633772.16446  20719185.2344                   20719183.0314
   4738404.18847   3701374.28543  24144806.1174                   24144801.4694
 -14721778.92247 -11460667.70746  21560954.7664                   21560950.9264
 -17007715.54347 -13235134.30945  22057553.1954                   22057551.1804
 -18219777.55147 -14191654.78146  21609824.9384                   21609820.4964
 11  9 23  2 51  0.0000000  0  7G15G29G22G09G18G26G21
 -22175340.26248 -17258808.44147  20539931.0084                   20539927.7734
 -25184268.40647 -19608406.09847  20725380.0234                   20725377.5944
   4644425.56346   3628144.34043  24126921.9224                   24126917.4574
   7713765.30156   6020770.61752  24755465.4144                   24755464.2704
 -14777711.26647 -11504251.31646  21550311.1174                   21550307.0044
 -16954069.47347 -13193332.18745  22067762.0864                   22067759.7894
 -18304950.48047 -14258023.26646  21593616.8834                   21593613.0204
 11  9 23  2 51 30.0000000  0  7G15G29G22G09G18G26G21
 -22181613.41448 -17263696.59446  20538737.6174                   20538734.3554
 -25151236.09047 -19582666.62146  20731665.9224                   20731663.1604
   4550599.39146   3555033.18443  24109067.1254                   24109063.8444
   7602564.98846   5934121.11742  24734304.6254                   24734301.9574
 -14833437.96547 -11547674.69546  21539706.5634                   21539702.6844
 -16899920.70747 -13151138.34445  22078066.2034                   22078063.3524
 -18390035.09447 -14324322.94146  21577425.8674                   21577421.6054
 11  9 23  2 52  0.0000000  0  7G15G29G22G09G18G26G21
 -22187315.00448 -17268139.37147  20537652.2344                   20537648.8054
 -25117728.35247 -19556556.69946  20738042.1254                   20738039.3914
   4456923.70346   3482039.28943  24091240.8984                   24091235.8324
   7491260.01646   5847390.07442  24713123.2974                   24713121.0474
 -14888961.75447 -11590939.95346  21529140.7344                   21529136.7624
 -16845274.03947 -13108556.50445  22088465.5554                   22088462.3164
 -18475032.40647 -14390554.58646  21561251.4384                   21561247.1564
 11  9 23  2 52 30.0000000  0  7G15G29G22G09G18G26G21
 -22192442.94948 -17272135.15247  20536676.6484                   20536673.1414
 -25083744.47347 -19530075.75046  20744509.0474                   20744506.3164
   4363400.95346   3409164.58244  24073444.6564                   24073439.5314
   7379855.87946   5760581.75843  24691924.4224                   24691922.2664
 -14944280.62147 -11634045.55146  21518613.7194                   21518609.9804
 -16790129.94547 -13065587.08645  22098959.1174                   22098955.7424
 -18559937.30547 -14456714.21146  21545094.3444                   21545090.4884
 11  9 23  2 53  0.0000000  0  7G15G29G22G09G18G26G21
 -22196998.74648 -17275685.10947  20535809.7274                   20535806.3954
 -25049286.10248 -19503225.07446  20751066.3364                   20751063.6764
   4270031.62146   3336409.39844  24055676.2734                   24055672.6254
   7268355.91846   5673698.78943  24670707.1414                   24670705.9304
 -14999394.94148 -11676991.73046  21508126.1884                   21508121.7894
 -16734491.07047 -13022232.09845  22109546.7424                   22109543.0164
 -18644748.85548 -14522801.10946  21528955.3284                   21528951.2304
 11  9 23  2 53 30.0000000  0  7G15G29G22G09G18G26G21
 -22200979.76248 -17278787.18047  20535051.8364                   20535048.6804
 -25014351.55548 -19476003.34846  20757714.4064                   20757711.5704
   4176818.80147   3263776.14544  24037939.3364                   24037934.7424
   7156766.27046   5586745.94943  24649472.2344                   24649471.6334
 -15054302.22348 -11719776.59446  21497677.1884                   21497673.5084
 -16678356.96147 -12978491.24244  22120228.2584                   22120225.8094
 -18729461.62948 -14588811.03146  21512835.3054                   21512831.0124
 11  9 23  2 54  0.0000000  0  7G15G29G22G09G18G26G21
 -22204389.15648 -17281443.82847  20534403.3834                   20534399.9454
 -24978944.77048 -19448413.64146  20764451.6724                   20764449.0704
   4083760.44546   3191263.26643  24020229.8444                   24020225.6684
   7045087.67246   5499723.75043  24628219.4694                   24628219.5514
 -15109005.38347 -11762402.40646  21487268.1094                   21487263.6884
 -16621732.53547 -12934368.30544  22131003.9304                   22131001.0514
 -18814076.21147 -14654744.43446  21496732.9844                   21496729.0984
 11  9 23  2 54 30.0000000  0  7G15G29G22G09G18G26G21
 -22207223.93748 -17283652.73046  20533863.7894                   20533860.4494
 -24943063.74647 -19420454.41046  20771279.6174                   20771277.1804
   3990860.61746   3118873.93044  24002551.3054                   24002547.4804
   6933327.12946   5412637.74644  24606951.5784                   24606951.6914
 -15163500.96947 -11804866.46146  21476897.0704                   21476893.7734
 -16564617.00047 -12889862.68044  22141872.1724                   22141868.8714
 -18898586.78947 -14720596.80546  21480651.6094                   21480647.2114
 11  9 23  2 55  0.0000000  0  7G15G29G22G09G18G26G21
 -22209483.93748 -17285413.75847  20533433.7114                   20533430.3054
 -24906708.89847 -19392125.94946  20778197.6174                   20778195.3324
   3898120.41446   3046608.97744  23984904.7034                   23984899.6804
   6821489.15246   5325491.35943  24585670.3984                   24585669.1294
 -15217788.58647 -11847168.46946  21466566.8914                   21466563.1804
 -16507012.20747 -12844975.85544  22152833.9694                   22152831.6764
 -18982990.53547 -14786365.91846  21464589.8284                   21464585.6914
 11  9 23  2 55 30.0000000  0  7G15G29G22G09G18G26G21
 -20635751.17648 -16059128.47347  20832904.9534                   20832902.0744
 -23294464.55147 -18135831.63746  21084997.9304                   21084995.1644
   5380961.98846   4202070.07044  24267079.3364                   24267075.0864
   8284999.15646   6465888.85544  24864167.3284                   24864165.9614
 -13696447.80547 -10661708.09846  21756068.3674                   21756064.5234
 -14873503.69547 -11572112.08244  22463680.4454                   22463677.5044
 -17491863.89147 -13624449.02346  21748341.9614                   21748338.0354
 11  9 23  2 56  0.0000000  0  7G15G29G22G09G18G26G21
 -20636869.84848 -16060000.15247  20832692.5164                   20832688.9614
 -23257173.02347 -18106773.30946  21092094.0394                   21092091.8594
   5288536.04746   4130050.00844  24249491.3134                   24249487.7584
   8173009.64846   6378624.41444  24842856.1174                   24842854.6764
 -13750325.79347 -10703690.91446  21745815.3834                   21745811.6484
 -14814933.92247 -11526473.30945  22474826.0704                   22474823.6954
 -17576053.90647 -13690051.61346  21732321.2894                   21732316.4104
 11  9 23  2 56 30.0000000  0  7G15G29G22G09G18G26G21
 -20637417.14848 -16060426.60947  20832588.1954                   20832584.6804
 -23219413.68447 -18077350.45346  21099279.5164                   21099277.0634
   5196269.57847   4058154.19544  24231932.9774                   24231929.0634
   8060951.07046   6291306.11744  24821531.7894                   24821530.9344
 -13803997.93447 -10745513.32446  21735601.9064                   21735597.9654
 -14755883.84047 -11480460.28145  22486063.0394                   22486060.3874
 -17660132.28547 -13755567.19946  21716321.7114                   21716317.7194
 11  9 23  2 57  0.0000000  0  7G15G29G22G09G18G26G21
 -20637396.93748 -16060410.84446  20832591.7894                   20832588.5474
 -23181191.15647 -18047566.65646  21106552.9064                   21106550.3364
   5104159.87147   3986380.53944  24214405.4774                   24214400.7774
   7948824.15046   6203934.55144  24800195.0704                   24800193.3324
 -13857467.57847 -10787177.95346  21725427.1954                   21725423.0594
 -14696359.11747 -11434077.41045  22497390.6024                   22497388.1454
 -17744099.73047 -13820996.36746  21700343.2974                   21700338.7194
 11  9 23  2 57 30.0000000  0  7G15G29G22G09G18G26G21
 -20636807.21948 -16059951.31246  20832703.8674                   20832700.9224
 -23142504.35948 -18017421.10246  21113914.8364                   21113912.3204
   5012209.83646   3914731.31344  24196907.7664                   24196903.5904
   7836634.87546   6116514.42644  24778846.6024                   24778844.9534
 -13910732.28947 -10828682.88746  21715291.2664                   21715287.6024
 -14636359.77747 -11387324.67245  22508807.3674                   22508805.4344
 -17827951.39148 -13886335.29746  21684386.6884                   21684382.5394
 11  9 23  2 58  0.0000000  0  7G15G29G22G09G18G26G21
 -20635651.28948 -16059050.57447  20832923.9064                   20832920.7774
 -23103356.88748 -17986916.57446  21121364.2034                   21121361.7854
   4920417.61347   3843205.02344  24179440.1024                   24179435.5204
   7724384.44946   6029046.67644  24757485.7424                   24757483.8364
 -13963794.78947 -10870030.24646  21705193.6804                   21705190.2344
 -14575890.58247 -11340205.85245  22520315.1174                   22520312.3094
 -17911687.62148 -13951584.28546  21668452.0164                   21668447.8014
 11  9 23  2 58 30.0000000  0  7G15G29G22G09G18G26G21
 -20633930.57448 -16057709.74647  20833251.4844                   20833248.1024
 -23063751.06248 -17956054.89146  21128901.2274                   21128898.6604
   4828783.09447   3771801.62544  24162001.9454                   24161997.7544
   7612075.35945   5941533.19943  24736113.9454                   24736112.1994
 -14016655.71547 -10911220.54346  21695134.2664                   21695130.5474
 -14514954.87547 -11292723.48445  22531910.5554                   22531908.0554
 -17995306.68747 -14016741.98446  21652539.8134                   21652535.3524
 11  9 23  2 59  0.0000000  0  7G15G29G22G09G18G26G21
 -20631645.56648 -16055929.21546  20833686.2274                   20833682.9774
 -23023688.45748 -17924837.27346  21136524.6884                   21136521.8714
   4737306.43046   3700521.23044  24144594.3674                   24144590.5004
   7499711.32446   5853976.85543  24714730.1334                   24714730.0394
 -14069315.52047 -10952254.12146  21685113.8204                   21685109.8874
 -14453555.42247 -11244879.76645  22543594.2584                   22543591.7234
 -18078806.42247 -14081806.68046  21636650.6564                   21636646.0434
 11  9 23  2 59 30.0000000  0  7G15G29G22G09G18G26G21
 -20628797.66848 -16053710.06646  20834228.2974                   20834225.1214
 -22983170.94148 -17893265.19546  21144235.0084                   21144232.4454
   4645988.07846   3629364.18444  24127217.3054                   24127213.5514
   7387295.50445   5766380.21143  24693339.2734                   24693337.0204
 -14121774.52747 -10993131.23446  21675131.2274                   21675127.3134
 -14391694.80547 -11196676.71144  22555366.0394                   22555363.1094
 -18162185.00447 -14146776.98046  21620783.7974                   21620779.4224
 11  9 23  3  0  0.0000000  0  8G15G29G22G09G06G18G26G21
 -20625388.76248 -16051053.76246  20834876.6954                   20834873.3554
 -22942201.40248 -17861340.87146  21152031.0704                   21152028.8204
   4554826.84047   3558329.59844  24109870.1414                   24109865.9064
   7274830.16445   5678744.91043  24671937.8524                   24671935.9344
   9288628.89556   7248056.48453  24937988.2504                   24937987.4574
 -14174034.31247 -11033853.11746  21665186.5084                   21665182.6414
 -14329377.21947 -11148117.55144  22567224.5234                   22567221.8874
 -18245441.41847 -14211652.08646  21604940.9844                   21604936.3094
 11  9 23  3  0 30.0000000  0  8G15G29G22G09G06G18G26G21
 -20621426.94948 -16047966.62146  20835630.8134                   20835627.4884
 -22900788.51648 -17829071.09846  21159912.3524                   21159908.9024
   4463816.18047   3487412.30944  24092551.5004                   24092546.5124
   7162311.53145   5591068.14843  24650526.6094                   24650524.6174
   9177436.64145   7161413.30543  24916829.7424                   24916828.3754
 -14226102.38747 -11074425.59846  21655278.1724                   21655274.3954
 -14266612.25047 -11099209.80544  22579168.3914                   22579165.2734
 -18328580.50448 -14276435.77346  21589119.9844                   21589115.6844
 11  9 23  3  1  0.0000000  0  8G15G29G22G09G06G18G26G21
 -20616916.98048 -16044452.35246  20836488.6724                   20836485.4614
 -22858937.76248 -17796460.11746  21167875.8444                   21167872.9384
   4372952.35547   3416609.46544  24075259.9454                   24075255.6054
   7049739.44545   5503349.71143  24629103.3364                   24629102.6844
   9066491.54346   7074962.75843  24895717.9064                   24895715.2854
 -14277982.89148 -11114851.93046  21645405.9694                   21645401.4454
 -14203406.43446 -11049958.54344  22591195.3134                   22591193.2894
 -18411603.93747 -14341129.34446  21573321.1484                   21573316.7584
 11  9 23  3  1 30.0000000  0  8G15G29G22G09G06G18G26G21
 -20611858.83647 -16040510.93047  20837451.5944                   20837448.3554
 -22816649.94548 -17763508.57046  21175922.8524                   21175920.2814
   4282236.67247   3345922.04744  24057997.6884                   24057993.1844
   6937118.32445   5415593.04743  24607671.1334                   24607671.4844
   8955797.25846   6988707.62543  24874652.8594                   24874651.4224
 -14329675.05147 -11155131.50846  21635568.9064                   21635564.6374
 -14139761.73846 -11000365.29744  22603306.7344                   22603304.7664
 -18494508.84047 -14405730.53946  21557545.0004                   21557540.5704
 11  9 23  3  2  0.0000000  0  8G15G29G22G09G06G18G26G21
 -20606251.56247 -16036141.61747  20838518.7424                   20838515.3444
 -22773924.84048 -17730216.28146  21184053.0554                   21184050.3524
   4191671.37147   3275351.80944  24040763.5554                   24040758.3594
   6824453.62145   5327802.44543  24586233.0784                   24586231.8284
   8845358.75146   6902651.82443  24853636.6884                   24853634.5084
 -14381177.19547 -11195263.01246  21625768.4844                   21625764.4884
 -14075678.40647 -10950430.25044  22615501.5004                   22615498.8984
 -18577291.10947 -14470236.18446  21541792.0864                   21541787.2704
 11  9 23  3  2 30.0000000  0  8G15G29G22G09G06G18G26G21
 -20600094.83247 -16031344.15246  20839690.3364                   20839686.9304
 -22730762.96148 -17696583.64846  21192266.7114                   21192264.0474
   4101257.82447   3204899.82444  24023558.2504                   24023553.8984
   6711750.31346   5239981.74643  24564786.3364                   24564784.7234
   8735179.82046   6816798.21943  24832670.2974                   24832668.2234
 -14432488.43047 -11235245.75446  21616004.0784                   21615999.9734
 -14011158.48847 -10900155.00044  22627779.3674                   22627776.7664
 -18659947.02747 -14534643.37146  21526062.9144                   21526058.4804
 11  9 23  3  3  0.0000000  0  8G15G29G22G09G06G18G26G21
 -20593388.28947 -16026118.26246  20840966.5084                   20840963.0554
 -22687164.19548 -17662610.57846  21200563.2894                   21200561.0124
   4010998.23847   3134567.80143  24006382.3134                   24006377.4144
   6599012.96546   5152134.48843  24543334.0864                   24543332.1294
   8625264.51646   6731150.03943  24811754.4224                   24811752.3634
 -14483607.59047 -11275078.84046  21606276.5164                   21606272.5704
 -13946203.05146 -10849540.39544  22640140.4064                   22640137.3164
 -18742472.77047 -14598949.12546  21510358.7814                   21510354.0864
 11  9 23  3  3 30.0000000  0  8G15G29G22G09G06G18G26G21
 -20586131.86748 -16020463.90246  20842347.0554                   20842344.2234
 -22643129.58248 -17628297.89846  21208942.4534                   21208939.9804
   3920893.88747   3064356.74244  23989235.6174                   23989231.8134
   6486246.47746   5064264.55144  24521875.5864                   24521873.3874
   8515617.03546   6645710.54743  24790888.9224                   24790887.0234
 -14534534.02747 -11314761.75046  21596585.1804                   21596581.3324
 -13880813.67246 -10798587.65644  22652583.2814                   22652581.0824
 -18824864.21948 -14663150.23046  21494680.0944                   21494675.7344
 11  9 23  3  4  0.0000000  0  8G15G29G22G09G06G18G26G21
 -20578328.44547 -16014383.30546  20843832.2734                   20843828.6134
 -22598662.42248 -17593648.15646  21217404.3674                   21217401.8404
   3830943.12147   2994265.33644  23972119.0474                   23972113.8794
   6373452.56646   4976373.25844  24500411.4534                   24500408.9414
   8406238.13346   6560480.34443  24770073.9454                   24770072.7464
 -14585269.99247 -11354296.23446  21586930.8204                   21586926.5664
 -13814994.96547 -10747300.39144  22665109.0634                   22665105.8444
 -18907122.25848 -14727247.37546  21479026.8754                   21479022.4804
 11  9 23  3  4 30.0000000  0  8G15G29G22G09G06G18G26G21
 -20569979.60548 -16007877.70346  20845420.6024                   20845417.4844
 -22553765.21148 -17558663.32046  21225948.1724                   21225945.4184
   3741145.72347   2924293.44944  23955031.1954                   23955026.3444
   6260634.10946   4888462.79744  24478942.6804                   24478940.1024
   8297129.91846   6475461.03543  24749311.8674                   24749309.2424
 -14635815.86747 -11393682.61346  21577311.9304                   21577307.6134
 -13748749.98046 -10695680.94144  22677714.8524                   22677711.5314
 -18989244.84847 -14791238.97746  21463399.7664                   21463395.4494
 11  9 23  3  5  0.0000000  0  8G15G29G22G09G06G18G26G21
 -20561083.78147 -16000945.88746  20847113.8914                   20847109.9964
 -22508436.87548 -17523342.54346  21234573.9844                   21234571.4344
   3651504.82047   2854443.53944  23937973.0474                   23937967.6134
   6147797.55146   4800538.25043  24457469.5554                   24457468.9304
   8188298.18845   6390657.19543  24728601.5554                   24728599.1294
 -14686169.37147 -11432919.07446  21567730.1954                   21567725.7034
 -13682078.95747 -10643729.50044  22690401.9144                   22690398.4414
 -19071226.49247 -14855120.76246  21447799.0554                   21447794.3364
 11  9 23  3  5 30.0000000  0  8G15G29G22G09G06G18G26G21
 -20551643.06248 -15993589.46546  20848910.7424                   20848906.9654
 -22462680.55548 -17487688.26646  21243281.0164                   21243278.5044
   3562019.39147   2784714.71944  23920944.0864                   23920938.8524
   6034944.89146   4712601.19144  24435994.7034                   24435993.3834
   8079744.17646   6306069.75843  24707944.3054                   24707941.8484
 -14736332.16847 -11472006.94546  21558184.4304                   21558180.0234
 -13614985.98447 -10591449.29344  22703168.8594                   22703166.4304
 -19153067.30947 -14918892.80146  21432225.1024                   21432220.8094
 11  9 23  3  6  0.0000000  0  8G15G29G22G09G06G18G26G21
 -20541660.23448 -15985810.62946  20850809.6334                   20850806.1374
 -22416499.88348 -17451703.32446  21252068.9614                   21252066.4224
   3472687.66847   2715105.71944  23903945.0004                   23903939.3594
   5922077.92246   4624652.96944  24414516.9614                   24414515.3634
   7971469.05146   6221699.60543  24687339.9844                   24687337.6174
 -14786306.39848 -11510947.87146  21548674.6884                   21548670.1254
 -13547475.46947 -10538843.72744  22716015.8984                   22716012.7624
 -19234766.11347 -14982554.19146  21416678.5474                   21416674.0164
 11  9 23  3  6 30.0000000  0  8G15G29G22G09G06G18G26G21
 -20531135.11748 -15977609.22346  20852812.6564                   20852809.0944
 -22369894.85248 -17415387.71546  21260937.8204                   21260934.8714
   3383511.80947   2645618.13344  23886975.1954                   23886970.0664
   5809202.18447   4536697.90244  24393037.6564                   24393036.3364
   7863477.38346   6137550.33243  24666789.8754                   24666787.5004
 -14836090.41047 -11549740.57046  21539201.0164                   21539196.8014
 -13479548.17247 -10485913.39144  22728941.6174                   22728939.2424
 -19316318.43448 -15046101.42646  21401159.6174                   21401155.4774
 11  9 23  3  7  0.0000000  0  8G15G29G22G09G06G18G26G21
 -20520069.15648 -15968986.38346  20854918.8204                   20854914.7664
 -22322867.43448 -17378742.97346  21269886.7974                   21269884.0664
   3294491.82047   2576252.04344  23870034.6414                   23870030.2304
   5696320.97746   4448738.57844  24371557.1094                   24371555.5864
   7755771.21145   6053623.52743  24646293.9924                   24646291.5234
 -14885685.06247 -11588385.73446  21529763.8834                   21529759.0044
 -13411207.70347 -10432661.10544  22741947.0554                   22741943.4654
 -19397722.82448 -15109533.40646  21385668.8984                   21385664.3674
 11  9 23  3  7 30.0000000  0  8G15G29G22G09G06G18G26G21
 -20508464.03148 -15959943.42246  20857127.0554                   20857123.3054
 -22275420.10948 -17341771.03946  21278915.5084                   21278912.7194
   3205627.27347   2507007.03544  23853124.2974                   23853119.0904
   5583437.30146   4360777.34444  24350075.4924                   24350074.0124
   7648352.91846   5969921.03543  24625852.5944                   24625850.8134
 -14935091.03547 -11626883.87946  21520362.0314                   21520357.5824
 -13342456.98846 -10379089.16844  22755028.8284                   22755026.9574
 -19478977.49248 -15172848.71546  21370206.5394                   21370202.1024
 11  9 23  3  8  0.0000000  0  8G15G29G22G09G06G18G26G21
 -20496322.00847 -15950482.10246  20859437.6024                   20859434.0594
 -22227555.82848 -17304474.19146  21288024.0634                   21288021.2304
   3116917.54347   2437882.66444  23836243.8914                   23836238.7154
   5470553.73446   4272816.16444  24328595.2114                   24328593.0164
   7541223.98846   5886443.98444  24605467.6414                   24605465.7624
 -14984309.90247 -11665236.21546  21510995.8914                   21510991.5434
 -13273300.23446 -10325200.83244  22768189.2194                   22768186.9024
 -19560081.04748 -15236046.26646  21354773.0004                   21354768.2814
 11  9 23  3  8 30.0000000  0  8G15G29G22G09G06G18G26G21
 -20483647.21948 -15940605.63346  20861849.3524                   20861846.0944
 -22179279.64148 -17266856.39546  21297210.3364                   21297207.6844
   3028359.96147   2368876.84044  23819391.8594                   23819386.5664
   5357670.89546   4184855.59843  24307113.3914                   24307112.2774
   7434384.43846   5803192.45744  24585136.5314                   24585134.2034
 -15033344.85247 -11703445.24646  21501664.5004                   21501660.6914
 -13203742.72746 -10271000.20744  22781426.3284                   22781422.5944
 -19641034.41847 -15299126.79346  21339368.2504                   21339363.7154
 11  9 23  3  9  0.0000000  0  8G15G29G22G09G06G18G26G21
 -20470437.39848 -15930312.24646  20864363.3204                   20864359.8324
 -22130589.82848 -17228916.28146  21306476.1254                   21306472.9024
   2939958.15647   2299992.45744  23802569.0704                   23802564.4614
   5244795.88346   4096901.14543  24285634.5554                   24285632.3364
   7327840.43446   5720171.20744  24564861.5944                   24564859.7624
 -15082192.19547 -11741508.08646  21492369.6174                   21492365.0434
 -13133783.99646 -10216486.93444  22794738.7114                   22794735.8524
 -19721831.14148 -15362085.25846  21323992.8984                   21323988.5864
 11  9 23  3  9 30.0000000  0  8G15G29G22G09G06G18G26G21
 -20456695.82048 -15919604.52746  20866978.1334                   20866974.5084
 -22081490.46548 -17190657.05146  21315819.2274                   21315816.4804
   2851710.11347   2231227.85944  23785776.2274                   23785770.9264
   5131930.43046   4008954.10243  24264156.3594                   24264154.3054
   7221592.48046   5637380.64544  24544642.9064                   24544641.7384
 -15130855.01648 -11779427.13746  21483109.2894                   21483105.2274
 -13063429.11346 -10161664.98044  22808126.8674                   22808123.7624
 -19802471.89548 -15424922.19546  21308647.5474                   21308643.1454
 11  9 23  3 10  0.0000000  0  8G15G29G22G09G06G18G26G21
 -20442423.29348 -15908483.06246  20869693.8674                   20869690.5084
 -22031982.69148 -17152079.56646  21325240.2894                   21325237.1804
   2763617.01247   2162583.98444  23769012.4614                   23769006.9734
   5019078.71546   3921017.80143  24242681.8914                   24242679.6644
   7115644.01646   5554823.45744  24524481.7274                   24524479.8444
 -15179332.67648 -11817201.89846  21473884.2194                   21473880.0124
 -12992679.86346 -10106535.72344  22821590.1254                   22821587.0904
 -19882953.25848 -15487634.92646  21293332.2424                   21293328.0784
 11  9 23  3 10 30.0000000  0  8G15G29G22G09G06G18G26G21
 -20427621.85248 -15896949.46546  20872510.4614                   20872506.9964
 -21982069.33248 -17113186.04746  21334738.5394                   21334735.6254
   2675677.89847   2094060.10244  23752277.9384                   23752273.2424
   4906243.67646   3833094.44543  24221209.7274                   24221207.9454
   7009996.88746   5472501.06343  24504377.9384                   24504375.8324
 -15227626.59048 -11854833.50446  21464693.9844                   21464689.5004
 -12921539.99247 -10051102.07844  22835127.9614                   22835125.0864
 -19963273.92648 -15550222.43446  21278047.7894                   21278043.5274
 11  9 23  3 11  0.0000000  0  8G15G29G22G09G06G18G26G21
 -20412294.84448 -15885006.33646  20875426.9304                   20875423.7814
 -21931754.02048 -17073979.31246  21344313.4304                   21344310.4264
   2587891.25447   2025655.03544  23735572.3834                   23735567.0514
   4793426.87946   3745185.32844  24199741.0314                   24199739.4844
   6904651.96146   5390414.15243  24484331.3674                   24484329.2304
 -15275738.77748 -11892323.48046  21455538.7034                   21455534.1294
 -12850014.36347  -9995367.85244  22848738.5314                   22848735.9614
 -20043432.71548 -15612683.81646  21262794.2344                   21262789.8954
 11  9 23  3 11 30.0000000  0  8G15G29G22G09G06G18G26G21
 -20396442.77748 -15872654.07046  20878443.6644                   20878440.5904
 -21881037.94948 -17034460.30146  21353963.7114                   21353961.2734
   2500257.97347   1957369.46544  23718896.6174                   23718891.5664
   4680632.75446   3657293.85944  24178277.6334                   24178275.3554
   6799612.58646   5308565.34043  24464342.6884                   24464341.0164
 -15323668.76648 -11929671.49646  21446417.6484                   21446413.2544
 -12778105.24247  -9939334.79344  22862422.6884                   22862420.2074
 -20123427.11748 -15675017.09846  21247571.9534                   21247567.5044
 11  9 23  3 12  0.0000000  0  8G15G29G22G09G06G18G26G21
 -20380067.15248 -15859893.82846  20881559.6724                   20881556.2344
 -21829923.37548 -16994630.77046  21363690.7194                   21363688.3634
   2412778.56347   1889203.80144  23702250.1254                   23702244.6254
   4567864.72347   3569422.76244  24156818.5314                   24156816.6054
   6694881.23446   5226956.52743  24444413.3674                   24444411.7034
 -15371416.84848 -11966877.77046  21437331.5004                   21437327.3134
 -12705814.96947  -9883004.73844  22876178.8134                   22876176.6804
 -20203254.84048 -15737220.49646  21232380.8754                   21232376.4534
 11  9 23  3 12 30.0000000  0  8G15G29G22G09G06G18G26G21
 -20363172.21548 -15846728.93746  20884774.3364                   20884771.3284
 -21778415.38348 -16954494.68046  21373492.4844                   21373489.9104
   2325450.32447   1821155.94144  23685631.9144                   23685626.2734
   4455123.91847   3481572.85243  24135363.5634                   24135361.4414
   6590457.82846   5145587.66443  24424542.1174                   24424540.6484
 -15418986.41448 -12003944.94946  21428279.3914                   21428274.9924
 -12633149.68047  -9826382.46144  22890006.5704                   22890004.5314
 -20282916.61348 -15799294.57846  21217221.8444                   21217217.5004
 11  9 23  3 13  0.0000000  0  8G15G29G22G09G06G18G26G21
 -20345758.97748 -15833160.16446  20888088.5474                   20888085.2114
 -21726515.30948 -16914053.07046  21383368.7034                   21383365.6724
   2238273.30547   1753225.89144  23669041.8754                   23669036.8754
   4342414.14847   3393747.08243  24113916.7114                   24113913.2734
   6486345.32046   5064461.07043  24404730.1484                   24404727.9654
 -15466377.57848 -12040873.10546  21419261.0944                   21419257.0234
 -12560111.66046  -9769469.76244  22903905.2274                   22903903.5234
 -20362409.50848 -15861237.07446  21202095.0944                   21202090.4184
 11  9 23  3 13 30.0000000  0  8G15G29G22G09G06G18G26G21
 -20327825.71948 -15819186.18746  20891501.0704                   20891497.5124
 -21674221.96148 -16873305.01246  21393319.8524                   21393316.8244
   2151250.82447   1685416.26244  23652482.3594                   23652477.1454
   4229742.10947   3305950.72343  24092475.7504                   24092473.5354
   6382549.65246   4983581.38343  24384978.2114                   24384975.5124
 -15513587.41048 -12077659.94946  21410277.6484                   21410273.0594
 -12486700.75847  -9712266.51244  22917875.1884                   22917872.9884
 -20441727.75448 -15923043.48446  21187001.2974                   21186996.9844
 11  9 23  3 14  0.0000000  0  8G15G29G22G09G06G18G26G21
 -20309378.28548 -15804811.55946  20895011.4384                   20895008.2934
 -21621541.93748 -16832255.66046  21403344.4454                   21403341.7664
   2064378.88347   1617723.92644  23635951.4844                   23635945.8914
   4117107.29347   3218183.37143  24071041.9534                   24071039.3954
   6279068.93846   4902947.11743  24365286.1254                   24365284.5904
 -15560620.33248 -12114308.94946  21401327.3914                   21401322.9534
 -12412924.10246  -9654778.22344  22931913.9844                   22931912.3524
 -20520873.95748 -15984715.82846  21171939.9064                   21171935.4384
 11  9 23  3 14 30.0000000  0  8G15G29G22G09G06G18G26G21
 -20290417.11748 -15790036.61346  20898619.3834                   20898615.8794
 -21568476.56648 -16790906.03546  21413442.5634                   21413439.9534
   1977658.52046   1550149.72744  23619448.4224                   23619443.2544
   4004513.89547   3130448.27343  24049615.6954                   24049613.1024
   6175906.61746   4822560.93443  24345655.2734                   24345653.2974
 -15607475.98448 -12150819.83246  21392411.1334                   21392406.4344
 -12338783.82047  -9597006.62544  22946022.8674                   22946020.5704
 -20599844.36748 -16046251.19546  21156912.4614                   21156908.0664
 11  9 23  3 15  0.0000000  0  8G15G29G22G09G06G18G26G21
 -20270945.84448 -15774864.18446  20902325.2114                   20902321.3794
 -21515029.25848 -16749258.80546  21423613.2034                   21423610.7854
   1891088.21546   1482692.41444  23602974.6724                   23602969.2074
   3891964.21547   3042747.28544  24028198.4924                   24028196.8444
   6073063.87146   4742423.76243  24326085.3524                   24326082.9574
 -15654156.25448 -12187194.03946  21383528.0554                   21383523.7464
 -12264284.28547  -9538955.05944  22960199.9924                   22960197.0164
 -20678638.72348 -16107649.37146  21141918.3754                   21141914.0314
 11  9 23  3 15 30.0000000  0  8G15G29G22G09G06G18G26G21
 -20250966.01648 -15759295.46946  20906127.0004                   20906122.9344
 -21461202.64848 -16707316.00846  21433856.0784                   21433853.5204
   1804667.60946   1415351.79744  23586529.6644                   23586523.9344
   3779461.64847   2955083.00044  24006790.1414                   24006787.7074
   5970542.71546   4662537.14843  24306576.1724                   24306573.2934
 -15700662.35548 -12223432.53146  21374678.3054                   21374673.9734
 -12189428.95346  -9480626.25444  22974444.4454                   22974441.8014
 -20757254.74248 -16168908.57446  21126958.0314                   21126953.8714
 11  9 23  3 16  0.0000000  0  8G15G29G22G09G06G18G26G21
 -20230475.12948 -15743328.54346  20910026.1804                   20910022.9384
 -21406995.03148 -16665076.31646  21444171.3754                   21444169.0204
   1718400.94546   1348131.10244  23570113.1804                   23570108.3054
   3667013.53947   2867461.13743  23985391.6724                   23985388.9884
   5868349.52346   4582906.14543  24287129.3444                   24287127.1954
 -15746990.69148 -12259532.50446  21365862.1954                   21365857.9024
 -12114216.73047  -9422019.34844  22988756.9384                   22988753.6294
 -20835686.40248 -16230024.12946  21112033.1564                   21112028.4574
 11  9 23  3 16 30.0000000  0  8G15G29G22G09G06G18G26G21
 -20209478.34048 -15726967.39846  20914021.9454                   20914018.3014
 -21352411.86748 -16622544.00046  21454558.2114                   21454555.3164
   1632284.83247   1281027.71144  23553725.5004                   23553720.7624
   3554620.12146   2779881.94543  23964003.7194                   23964000.9064
   5766483.77746   4503530.28143  24267745.2734                   24267742.8634
 -15793144.60248 -12295496.55946  21357079.2974                   21357074.9884
 -12038653.71947  -9363139.10944  23003135.2034                   23003132.8914
 -20913934.34048 -16290996.52346  21097143.0314                   21097138.6604
 11  9 23  3 17  0.0000000  0  8G15G29G22G09G06G18G26G21
 -20187977.09848 -15710213.17646  20918113.6024                   20918109.8094
 -21297454.97748 -16579720.45746  21465016.6254                   21465013.5944
   1546319.59447   1214041.89544  23537367.6484                   23537362.1094
   3442285.49646   2692348.57443  23942626.8364                   23942625.3444
   5664948.02047   4424411.54743  24248423.4924                   24248420.7074
 -15839124.50448 -12331325.02346  21348329.9304                   21348324.8914
 -11962742.80547  -9303987.77044  23017580.4304                   23017577.6564
 -20991996.18448 -16351823.90246  21082288.6174                   21082283.8594
 11  9 23  3 17 30.0000000  0  8G15G29G22G09G06G18G26G21
 -20165973.46948 -15693067.48446  20922300.4924                   20922297.2344
 -21242127.05948 -16536607.81646  21475545.0314                   21475542.4654
   1460504.71947   1147173.22744  23521037.4844                   23521031.8244
   3330012.76246   2604863.35244  23921262.3134                   23921260.5164
   5563744.55547   4345551.74643  24229164.9224                   24229162.1644
 -15884930.93748 -12367018.32446  21339612.8914                   21339608.5354
 -11886487.24247  -9244567.88344  23032091.6884                   23032088.3914
 -21069869.96148 -16412504.74646  21067469.3984                   21067465.1054
 11  9 23  3 18  0.0000000  0  8G15G29G22G09G06G18G26G21
 -20143470.16848 -15675532.43446  20926583.0004                   20926579.3054
 -21186431.52348 -16493208.71146  21486143.2344                   21486140.7234
   1374839.13747   1080420.89544  23504735.8834                   23504730.6214
   3217804.38746   2517428.34043  23899908.9144                   23899907.1454
   5462874.44547   4266951.70743  24209969.0554                   24209967.6254
 -15930565.69948 -12402577.85246  21330928.9384                   21330924.5314
 -11809891.35947  -9184882.78143  23046667.4614                   23046665.2234
 -21147554.65648 -16473038.24646  21052686.8054                   21052681.9024
 11  9 23  3 18 30.0000000  0  8G15G29G22G09G06G18G26G21
 -20120470.06648 -15657610.25846  20930959.3444                   20930956.0234
 -21130371.71148 -16449525.75046  21496811.2894                   21496808.4774
   1289322.00047   1013784.21144  23488462.4614                   23488456.7584
   3105662.89546   2430045.46143  23878569.0864                   23878567.9344
   5362339.26647   4188612.62544  24190838.5004                   24190836.3984
 -15976030.21548 -12438004.72346  21322277.2114                   21322272.8794
 -11732958.94547  -9124935.46944  23061306.5004                   23061305.2814
 -21225049.28548 -16533423.64546  21037939.6334                   21037935.3204
 11  9 23  3 19  0.0000000  0  8G15G29G22G09G06G18G26G21
 -20096974.23848 -15639301.81646  20935430.5704                   20935426.9064
 -21073949.23848 -16405560.20346  21507548.3444                   21507545.1134
   1203953.80947    947263.62544  23472217.9844                   23472211.6884
   2993592.48446   2342717.93844  23857243.1884                   23857241.9844
   5262141.70747   4110536.68444  24171771.4384                   24171769.2154
 -16021324.64148 -12473299.05946  21313658.1414                   21313653.6374
 -11655692.89847  -9064728.17643  23076010.1724                   23076007.8524
 -21302350.68048 -16593658.45746  21023229.7194                   21023225.6334
 11  9 23  3 19 30.0000000  0  8G15G29G22G09G06G18G26G21
 -20072984.57848 -15620608.56646  20939995.6254                   20939992.2974
 -21017166.41848 -16361313.87146  21518353.4144                   21518350.8674
   1118734.40647    880858.96944  23456000.4224                   23455994.4454
   2881596.85247   2255448.69944  23835931.3524                   23835929.5594
   5162284.58247   4032725.96944  24152769.6334                   24152767.4734
 -16066449.11748 -12508460.96546  21305071.0634                   21305066.5864
 -11578095.63347  -9004262.81244  23090775.9304                   23090774.1844
 -21379456.41848 -16653740.82446  21008556.9844                   21008552.6134
 11  9 23  3 20  0.0000000  0  8G15G29G22G09G06G18G26G21
 -20048500.73048 -15601530.23846  20944654.9224                   20944651.1804
 -20960023.67248 -16316787.06646  21529227.5554                   21529225.1414
   1033665.94947    814571.90644  23439812.1484                   23439806.8834
   2769681.45347   2168241.97744  23814634.7424                   23814633.3164
   5062772.25846   3955183.96144  24133832.5944                   24133830.9304
 -16111402.12548 -12543489.26246  21296516.7734                   21296512.3444
 -11500168.52747  -8943540.41844  23105605.3134                   23105603.1954
 -21456362.50448 -16713667.62946  20993922.1024                   20993917.8634
